[[{"header":{"parameterUnit":"m.s-1","parameterCategory":1,"la1":31.0,"la2":29.5877,"lo1":-88.7671,"lo2":-86.6584,"dy":0.0162,"dx":0.0185,"nx":115,"ny":88,"refTime":"2026-05-04T12:00:00:Z","depth":0,"parameterNumber":2,"parameterNumberName":"U-component_of_WINDS"},"data":[0.0,0.0,0.0,0.0,0.0,0.0,0.0,0.0,0.0,0.0,0.0,0.0,0.0,0.0,0.0,0.0,0.0,0.0,0.0,0.0,0.0,0.0,0.0,0.0,0.0,0.0,0.0,0.0,0.0,0.0,0.0,0.0,0.0,0.0,0.0,0.0,0.0,0.0,0.0,0.0,0.0,0.0,0.0,0.0,0.0,0.0,0.0,0.0,0.0,0.0,0.0,0.0,0.0,0.0,0.0,0.0,0.0,0.0,0.0,0.0,0.0,0.0,0.0,0.0,0.0,0.0,0.0,0.0,0.0,0.0,0.0,0.0,0.0,0.0,0.0,0.0,0.0,0.0,0.0,0.0,0.0,0.0,0.0,0.0,0.0,0.0,0.0,0.0,0.0,0.0,0.0,0.0,0.0,0.0,0.0,0.0,0.0,0.0,0.0,0.0,0.0,0.0,0.0,0.0,0.0,0.0,0.0,0.0,0.0,0.0,0.0,0.0,0.0,0.0,0.0,0.0,0.0,0.0,0.0,0.0,0.0,0.0,0.0,0.0,0.0,0.0,0.0,0.0,0.0,0.0,0.0,0.0,0.0,0.0,0.0,0.0,0.0,0.0,0.0,0.0,0.0,0.0,0.0,0.0,0.0,0.0,0.0,0.0,0.0,0.0,0.0,0.0,0.0,0.0,0.0,0.0,0.0,0.0,0.0,0.0,0.0,0.0,0.0,0.0,0.0,0.0,0.0,0.0,0.0,0.0,0.0,0.0,0.0,0.0,0.0,0.0,0.0,0.0,0.0,0.0,0.0,0.0,0.0,0.0,0.0,0.0,0.0,0.0,0.0,0.0,0.0,0.0,0.0,0.0,0.0,0.0,0.0,0.0,0.0,0.0,0.0,0.0,0.0,0.0,0.0,0.0,0.0,0.0,0.0,0.0,0.0,0.0,0.0,0.0,0.0,0.0,0.0,0.0,0.0,0.0,0.0,0.0,0.0,0.0,0.0,0.0,0.0,0.0,0.0,0.0,0.0,0.0,0.0,0.0,0.0,0.0,0.0,0.0,0.0,0.0,0.0,0.0,0.0,0.0,0.0,0.0,0.0,0.0,0.0,0.0,0.0,0.0,0.0,0.0,0.0,0.0,0.0,0.0,0.0,0.0,0.0,0.0,0.0,0.0,0.0,0.0,0.0,0.0,0.0,0.0,0.0,0.0,0.0,0.0,0.0,0.0,0.0,0.0,0.0,0.0,0.0,0.0,0.0,0.0,0.0,0.0,0.0,0.0,0.0,0.0,0.0,0.0,0.0,0.0,0.0,0.0,0.0,0.0,0.0,0.0,0.0,0.0,0.0,0.0,0.0,0.0,0.0,0.0,0.0,0.0,0.0,0.0,0.0,0.0,0.0,0.0,0.0,0.0,0.0,0.0,0.0,0.0,0.0,0.0,0.0,0.0,0.0,0.0,0.0,0.0,0.0,0.0,0.0,0.0,0.0,0.0,0.0,0.0,0.0,0.0,0.0,0.0,0.0,0.0,0.0,0.0,0.0,0.0,0.0,0.0,0.0,0.0,0.0,0.0,0.0,0.0,0.0,0.0,0.0,0.0,0.0,0.0,0.0,0.0,0.0,0.0,0.0,0.0,0.0,0.0,0.0,0.0,0.0,0.0,0.0,0.0,0.0,0.0,0.0,0.0,0.0,0.0,0.0,0.0,0.0,0.0,0.0,0.0,0.0,0.0,0.0,0.0,0.0,0.0,0.0,0.0,0.0,0.0,0.0,0.0,0.0,0.0,0.0,0.0,0.0,0.0,0.0,0.0,0.0,0.0,0.0,0.0,0.0,0.0,0.0,0.0,0.0,0.0,0.0,0.0,0.0,0.0,0.0,0.0,0.0,0.0,0.0,0.0,0.0,0.0,0.0,0.0,0.0,0.0,0.0,0.0,0.0,0.0,0.0,0.0,0.0,0.0,0.0,0.0,0.0,0.0,0.0,0.0,0.0,0.0,0.0,0.0,0.0,0.0,0.0,0.0,0.0,0.0,0.0,0.0,0.0,0.0,0.0,0.0,0.0,0.0,0.0,0.0,0.0,0.0,0.0,0.0,0.0,0.0,0.0,0.0,0.0,0.0,0.0,0.0,0.0,0.0,0.0,0.0,0.0,0.0,0.0,0.0,0.0,0.0,0.0,0.0,0.0,0.0,0.0,0.0,0.0,0.0,0.0,0.0,0.0,0.0,0.0,0.0,0.0,0.0,0.0,0.0,0.0,0.0,0.0,0.0,0.0,0.0,0.0,0.0,0.0,0.0,0.0,0.0,0.0,0.0,0.0,0.0,0.0,0.0,0.0,0.0,0.0,0.0,0.0,0.0,0.0,0.0,0.0,0.0,0.0,0.0,0.0,0.0,0.0,0.0,0.0,0.0,0.0,0.0,0.0,0.0,0.0,0.0,0.0,0.0,0.0,0.0,0.0,0.0,0.0,0.0,0.0,0.0,0.0,0.0,0.0,0.0,0.0,0.0,0.0,0.0,0.0,0.0,0.0,0.0,0.0,0.0,0.0,0.0,0.0,0.0,0.0,0.0,0.0,0.0,0.0,0.0,0.0,0.0,0.0,0.0,0.0,0.0,0.0,0.0,0.0,0.0,0.0,0.0,0.0,0.0,0.0,0.0,0.0,0.0,0.0,0.0,0.0,0.0,0.0,0.0,0.0,0.0,0.0,0.0,0.0,0.0,0.0,0.0,0.0,0.0,0.0,0.0,0.0,0.0,0.0,0.0,0.0,0.0,0.0,0.0,0.0,0.0,0.0,0.0,0.0,0.0,0.0,0.0,0.0,0.0,0.0,0.0,0.0,0.0,0.0,0.0,0.0,0.0,0.0,0.0,0.0,0.0,0.0,0.0,0.0,0.0,0.0,0.0,0.0,0.0,0.0,0.0,0.0,0.0,0.0,0.0,0.0,0.0,0.0,0.0,0.0,0.0,0.0,0.0,0.0,0.0,0.0,0.0,0.0,0.0,0.0,0.0,0.0,0.0,0.0,0.0,0.0,0.0,0.0,0.0,0.0,0.0,0.0,0.0,0.0,0.0,0.0,0.0,0.0,0.0,0.0,0.0,0.0,0.0,0.0,0.0,0.0,0.0,0.0,0.0,0.0,0.0,0.0,0.0,0.0,0.0,0.0,0.0,0.0,0.0,0.0,0.0,0.0,0.0,0.0,0.0,0.0,0.0,0.0,0.0,0.0,0.0,0.0,0.0,0.0,0.0,0.0,0.0,0.0,0.0,0.0,0.0,0.0,0.0,0.0,0.0,0.0,0.0,0.0,0.0,0.0,0.0,0.0,0.0,0.0,0.0,0.0,0.0,0.0,0.0,0.0,0.0,0.0,0.0,0.0,0.0,0.0,0.0,0.0,0.0,0.0,0.0,0.0,0.0,0.0,0.0,0.0,0.0,0.0,0.0,0.0,0.0,0.0,0.0,0.0,0.0,0.0,0.0,0.0,0.0,0.0,0.0,0.0,0.0,0.0,0.0,0.0,0.0,0.0,0.0,0.0,0.0,0.0,0.0,0.0,0.0,0.0,0.0,0.0,0.0,0.0,0.0,0.0,0.0,0.0,0.0,0.0,0.0,0.0,0.0,0.0,0.0,0.0,0.0,0.0,0.0,0.0,0.0,0.0,0.0,0.0,0.0,0.0,0.0,0.0,0.0,0.0,0.0,0.0,0.0,0.0,0.0,0.0,0.0,0.0,0.0,0.0,0.0,0.0,0.0,0.0,0.0,0.0,0.0,0.0,0.0,0.0,0.0,0.0,0.0,0.0,0.0,0.0,0.0,0.0,0.0,0.0,0.0,0.0,0.0,0.0,0.0,0.0,0.0,0.0,0.0,0.0,0.0,0.0,0.0,0.0,0.0,0.0,0.0,0.0,0.0,0.0,0.0,0.0,0.0,0.0,0.0,0.0,0.0,0.0,0.0,0.0,0.0,0.0,0.0,0.0,0.0,0.0,0.0,0.0,0.0,0.0,0.0,0.0,0.0,0.0,0.0,0.0,0.0,0.0,0.0,0.0,0.0,0.0,0.0,0.0,0.0,0.0,0.0,0.0,0.0,0.0,0.0,0.0,0.0,0.0,0.0,0.0,0.0,0.0,0.0,0.0,0.0,0.0,0.0,0.0,0.0,0.0,0.0,0.0,0.0,0.0,0.0,0.0,0.0,0.0,0.0,0.0,0.0,0.0,0.0,0.0,0.0,0.0,0.0,0.0,0.0,0.0,0.0,0.0,0.0,0.0,0.0,-1.1366,0.0,0.0,0.0,0.0,0.0,0.0,0.0,0.0,0.0,0.0,0.0,0.0,0.0,0.0,0.0,0.0,0.0,0.0,0.0,0.0,0.0,0.0,0.0,0.0,0.0,0.0,0.0,0.0,0.0,0.0,0.0,0.0,0.0,0.0,0.0,0.0,0.0,0.0,0.0,0.0,0.0,0.0,0.0,0.0,0.0,0.0,0.0,0.0,0.0,0.0,0.0,0.0,0.0,0.0,0.0,0.0,0.0,0.0,0.0,0.0,0.0,0.0,0.0,0.0,0.0,0.0,0.0,0.0,0.0,0.0,0.0,0.0,0.0,0.0,0.0,0.0,0.0,0.0,0.0,0.0,0.0,0.0,0.0,0.0,0.0,0.0,0.0,0.0,0.0,0.0,0.0,0.0,0.0,0.0,0.0,0.0,0.0,0.0,0.0,0.0,0.0,0.0,0.0,0.0,0.0,0.0,0.0,0.0,0.0,0.0,-1.3958,-1.4567,-1.3977,-1.3544,-1.3253,0.0,0.0,0.0,0.0,0.0,0.0,0.0,0.0,0.0,0.0,0.0,0.0,0.0,0.0,0.0,0.0,0.0,0.0,0.0,0.0,0.0,0.0,0.0,0.0,0.0,0.0,0.0,0.0,0.0,0.0,0.0,0.0,0.0,0.0,0.0,0.0,0.0,0.0,0.0,0.0,0.0,0.0,0.0,0.0,0.0,0.0,0.0,0.0,0.0,0.0,0.0,0.0,0.0,0.0,0.0,0.0,0.0,0.0,0.0,0.0,0.0,0.0,0.0,0.0,0.0,0.0,0.0,0.0,0.0,0.0,0.0,0.0,0.0,0.0,0.0,0.0,0.0,0.0,0.0,0.0,0.0,0.0,0.0,0.0,0.0,0.0,0.0,0.0,0.0,0.0,0.0,0.0,0.0,0.0,0.0,0.0,0.0,0.0,0.0,0.0,0.0,0.0,0.0,0.0,0.0,0.0,0.0,0.0,0.0,0.0,0.0,0.0,-1.5886,-1.5195,-1.449,0.0,0.0,0.0,0.0,0.0,0.0,0.0,0.0,0.0,0.0,0.0,0.0,0.0,0.0,0.0,0.0,0.0,0.0,0.0,0.0,0.0,0.0,0.0,0.0,0.0,0.0,0.0,0.0,0.0,0.0,0.0,0.0,0.0,0.0,0.0,0.0,0.0,0.0,0.0,0.0,0.0,0.0,0.0,0.0,0.0,0.0,0.0,0.0,0.0,0.0,0.0,0.0,0.0,0.0,0.0,0.0,0.0,0.0,0.0,0.0,0.0,0.0,0.0,0.0,0.0,0.0,0.0,0.0,0.0,0.0,0.0,0.0,0.0,0.0,0.0,0.0,0.0,0.0,0.0,0.0,0.0,0.0,0.0,0.0,0.0,0.0,0.0,0.0,0.0,0.0,0.0,0.0,0.0,0.0,0.0,0.0,0.0,0.0,0.0,0.0,0.0,0.0,0.0,0.0,0.0,0.0,0.0,0.0,0.0,0.0,-1.7232,-1.8047,-1.727,0.0,-1.4274,0.0,0.0,0.0,0.0,0.0,0.0,0.0,0.0,0.0,0.0,0.0,0.0,0.0,0.0,0.0,0.0,0.0,0.0,0.0,0.0,0.0,0.0,0.0,0.0,0.0,0.0,0.0,0.0,0.0,0.0,0.0,0.0,0.0,0.0,0.0,0.0,0.0,0.0,0.0,0.0,0.0,0.0,0.0,0.0,0.0,0.0,0.0,0.0,0.0,0.0,0.0,0.0,0.0,0.0,0.0,0.0,0.0,0.0,0.0,0.0,0.0,0.0,0.0,0.0,0.0,0.0,0.0,0.0,0.0,0.0,0.0,0.0,0.0,0.0,0.0,0.0,0.0,0.0,0.0,0.0,0.0,0.0,0.0,0.0,0.0,0.0,0.0,0.0,0.0,0.0,0.0,0.0,0.0,0.0,0.0,0.0,0.0,0.0,0.0,0.0,0.0,0.0,0.0,0.0,0.0,0.0,0.0,0.0,0.0,0.0,-1.8841,-1.9479,-1.8175,-1.6847,0.0,0.0,0.0,0.0,0.0,0.0,0.0,0.0,0.0,0.0,0.0,0.0,0.0,0.0,0.0,0.0,0.0,0.0,0.0,0.0,0.0,0.0,0.0,0.0,0.0,0.0,0.0,0.0,0.0,0.0,0.0,0.0,0.0,0.0,0.0,0.0,0.0,0.0,0.0,0.0,0.0,0.0,0.0,0.0,0.0,0.0,0.0,0.0,0.0,0.0,0.0,0.0,0.0,0.0,0.0,0.0,0.0,0.0,0.0,0.0,0.0,0.0,0.0,0.0,0.0,0.0,0.0,0.0,0.0,0.0,0.0,0.0,0.0,0.0,0.0,0.0,0.0,0.0,0.0,0.0,0.0,0.0,0.0,0.0,0.0,0.0,0.0,0.0,0.0,0.0,0.0,0.0,0.0,0.0,0.0,0.0,0.0,0.0,0.0,0.0,0.0,0.0,0.0,0.0,0.0,0.0,0.0,0.0,0.0,0.0,-1.9683,-1.9889,-1.9824,-1.8495,-1.7171,-1.6063,0.0,0.0,0.0,0.0,0.0,0.0,0.0,0.0,0.0,0.0,0.0,0.0,0.0,0.0,0.0,0.0,0.0,0.0,0.0,0.0,0.0,0.0,0.0,0.0,0.0,0.0,0.0,0.0,0.0,0.0,0.0,0.0,0.0,0.0,0.0,0.0,0.0,0.0,0.0,0.0,0.0,0.0,0.0,0.0,0.0,0.0,0.0,0.0,0.0,0.0,0.0,0.0,0.0,0.0,0.0,0.0,0.0,0.0,0.0,0.0,0.0,0.0,0.0,0.0,0.0,0.0,0.0,0.0,0.0,0.0,0.0,0.0,0.0,0.0,0.0,0.0,0.0,0.0,0.0,0.0,0.0,0.0,0.0,0.0,0.0,0.0,0.0,0.0,0.0,0.0,0.0,0.0,0.0,0.0,0.0,0.0,0.0,0.0,0.0,0.0,0.0,0.0,0.0,0.0,0.0,0.0,0.0,0.0,-2.0319,-2.0472,-2.0051,-1.9008,-1.8007,-1.6835,0.0,0.0,0.0,0.0,0.0,0.0,0.0,0.0,0.0,0.0,0.0,0.0,0.0,0.0,0.0,0.0,0.0,0.0,0.0,0.0,0.0,0.0,0.0,0.0,0.0,0.0,0.0,0.0,0.0,0.0,0.0,0.0,0.0,0.0,0.0,0.0,0.0,0.0,0.0,0.0,0.0,0.0,0.0,0.0,0.0,0.0,0.0,0.0,0.0,0.0,0.0,0.0,0.0,0.0,0.0,0.0,0.0,0.0,0.0,0.0,0.0,0.0,0.0,0.0,0.0,0.0,0.0,0.0,0.0,0.0,0.0,0.0,0.0,0.0,0.0,0.0,0.0,0.0,0.0,0.0,0.0,0.0,0.0,0.0,0.0,0.0,0.0,0.0,0.0,0.0,0.0,0.0,0.0,0.0,0.0,0.0,0.0,0.0,0.0,0.0,0.0,0.0,0.0,0.0,0.0,0.0,0.0,0.0,0.0,-2.1693,-2.1081,-2.0232,-1.918,-1.791,-1.6598,0.0,0.0,0.0,0.0,0.0,0.0,0.0,0.0,0.0,0.0,0.0,0.0,0.0,0.0,0.0,0.0,0.0,0.0,0.0,0.0,0.0,0.0,0.0,0.0,0.0,0.0,0.0,0.0,0.0,0.0,0.0,0.0,0.0,0.0,0.0,0.0,0.0,0.0,0.0,0.0,0.0,0.0,0.0,0.0,0.0,0.0,0.0,0.0,0.0,0.0,0.0,0.0,0.0,0.0,0.0,0.0,0.0,0.0,0.0,0.0,0.0,0.0,0.0,0.0,0.0,0.0,0.0,0.0,0.0,0.0,0.0,0.0,0.0,0.0,0.0,0.0,0.0,0.0,0.0,0.0,0.0,0.0,0.0,0.0,0.0,0.0,0.0,0.0,0.0,0.0,0.0,0.0,0.0,0.0,0.0,0.0,0.0,0.0,0.0,0.0,0.0,0.0,0.0,0.0,0.0,0.0,0.0,0.0,0.0,-2.2952,0.0,-2.1694,-2.0606,-1.9444,-1.8172,0.0,0.0,0.0,0.0,0.0,0.0,0.0,0.0,0.0,0.0,0.0,0.0,0.0,0.0,0.0,0.0,0.0,0.0,0.0,0.0,0.0,0.0,0.0,0.0,0.0,0.0,0.0,0.0,0.0,0.0,0.0,0.0,0.0,0.0,0.0,0.0,0.0,0.0,0.0,0.0,0.0,0.0,0.0,0.0,0.0,0.0,0.0,0.0,0.0,0.0,0.0,0.0,0.0,0.0,0.0,0.0,0.0,0.0,0.0,0.0,0.0,0.0,0.0,0.0,0.0,0.0,0.0,0.0,0.0,0.0,0.0,0.0,0.0,0.0,0.0,0.0,0.0,0.0,0.0,0.0,0.0,0.0,0.0,0.0,0.0,0.0,0.0,0.0,0.0,0.0,0.0,0.0,0.0,0.0,0.0,0.0,0.0,0.0,0.0,0.0,0.0,0.0,0.0,0.0,0.0,0.0,0.0,0.0,-2.2933,-2.4081,-2.4705,-2.4396,-2.3314,-2.2522,-2.1666,0.0,0.0,0.0,0.0,0.0,0.0,0.0,0.0,0.0,0.0,0.0,0.0,0.0,0.0,0.0,0.0,0.0,0.0,0.0,0.0,0.0,0.0,0.0,0.0,0.0,0.0,0.0,0.0,0.0,0.0,0.0,0.0,0.0,0.0,0.0,0.0,0.0,0.0,0.0,0.0,0.0,0.0,0.0,0.0,0.0,0.0,0.0,0.0,0.0,0.0,0.0,0.0,0.0,0.0,0.0,0.0,0.0,0.0,0.0,0.0,0.0,0.0,0.0,0.0,0.0,0.0,0.0,0.0,0.0,0.0,0.0,0.0,0.0,0.0,0.0,0.0,0.0,0.0,0.0,0.0,0.0,0.0,0.0,0.0,0.0,0.0,0.0,0.0,0.0,0.0,0.0,0.0,0.0,0.0,0.0,0.0,0.0,0.0,0.0,0.0,0.0,0.0,0.0,0.0,0.0,0.0,0.0,0.0,0.0,-2.485,-2.5561,-2.5239,-2.3838,-2.3185,-2.2178,0.0,0.0,0.0,0.0,0.0,0.0,0.0,0.0,0.0,0.0,0.0,0.0,0.0,0.0,0.0,0.0,0.0,0.0,0.0,0.0,0.0,0.0,0.0,0.0,0.0,0.0,0.0,0.0,0.0,0.0,0.0,0.0,0.0,0.0,0.0,0.0,0.0,0.0,0.0,0.0,0.0,0.0,0.0,0.0,0.0,0.0,0.0,0.0,0.0,0.0,0.0,0.0,0.0,0.0,0.0,0.0,0.0,0.0,0.0,0.0,0.0,0.0,0.0,0.0,0.0,0.0,0.0,0.0,0.0,0.0,0.0,0.0,0.0,0.0,0.0,0.0,0.0,0.0,0.0,0.0,0.0,0.0,0.0,0.0,0.0,0.0,0.0,0.0,0.0,0.0,0.0,0.0,0.0,0.0,0.0,0.0,0.0,0.0,0.0,0.0,0.0,0.0,0.0,0.0,0.0,0.0,0.0,0.0,0.0,-2.6678,-2.7304,-2.7108,-2.607,-2.5531,-2.4607,-2.3231,0.0,0.0,0.0,0.0,0.0,0.0,0.0,0.0,0.0,0.0,0.0,0.0,0.0,0.0,0.0,0.0,0.0,0.0,0.0,0.0,0.0,0.0,0.0,0.0,0.0,0.0,0.0,0.0,0.0,0.0,0.0,0.0,0.0,0.0,0.0,0.0,0.0,0.0,0.0,0.0,0.0,0.0,0.0,0.0,0.0,0.0,0.0,0.0,0.0,0.0,0.0,0.0,0.0,0.0,0.0,0.0,0.0,0.0,0.0,0.0,0.0,0.0,0.0,0.0,0.0,0.0,0.0,0.0,0.0,0.0,0.0,0.0,0.0,0.0,0.0,0.0,0.0,0.0,0.0,0.0,0.0,0.0,0.0,0.0,0.0,0.0,0.0,0.0,0.0,0.0,0.0,0.0,0.0,0.0,0.0,0.0,0.0,0.0,0.0,0.0,0.0,0.0,0.0,0.0,0.0,0.0,0.0,0.0,-2.9261,-2.9646,-2.9723,-2.9539,-2.9141,-2.8475,0.0,0.0,0.0,0.0,0.0,0.0,0.0,0.0,0.0,0.0,0.0,0.0,0.0,0.0,0.0,0.0,0.0,0.0,0.0,0.0,0.0,0.0,0.0,0.0,0.0,0.0,0.0,0.0,0.0,0.0,0.0,0.0,0.0,0.0,0.0,0.0,0.0,0.0,0.0,0.0,0.0,0.0,0.0,0.0,0.0,0.0,0.0,0.0,0.0,0.0,0.0,0.0,0.0,0.0,0.0,0.0,0.0,0.0,0.0,0.0,0.0,0.0,0.0,0.0,0.0,0.0,0.0,0.0,0.0,0.0,0.0,0.0,0.0,0.0,0.0,0.0,0.0,0.0,0.0,0.0,0.0,0.0,0.0,0.0,0.0,0.0,0.0,0.0,0.0,0.0,0.0,0.0,0.0,0.0,0.0,0.0,0.0,0.0,0.0,0.0,0.0,0.0,0.0,0.0,0.0,0.0,0.0,0.0,0.0,-2.9233,-3.0042,-3.0393,-3.0371,-3.0291,-2.9787,0.0,0.0,0.0,0.0,0.0,0.0,0.0,0.0,0.0,0.0,0.0,0.0,0.0,0.0,0.0,0.0,0.0,0.0,0.0,0.0,0.0,0.0,0.0,0.0,0.0,0.0,0.0,0.0,0.0,0.0,0.0,0.0,0.0,0.0,0.0,0.0,0.0,0.0,0.0,0.0,0.0,0.0,0.0,0.0,0.0,0.0,0.0,0.0,0.0,0.0,0.0,0.0,0.0,0.0,0.0,0.0,0.0,0.0,0.0,0.0,0.0,0.0,0.0,0.0,0.0,0.0,0.0,0.0,0.0,0.0,0.0,0.0,0.0,0.0,0.0,0.0,0.0,0.0,0.0,0.0,0.0,0.0,0.0,0.0,0.0,0.0,0.0,0.0,0.0,0.0,0.0,0.0,0.0,0.0,0.0,0.0,0.0,0.0,0.0,0.0,0.0,0.0,0.0,0.0,0.0,0.0,0.0,0.0,-2.6417,-2.9862,-3.0385,-3.0675,-3.0728,-3.0741,-3.0139,0.0,0.0,0.0,0.0,0.0,0.0,0.0,0.0,0.0,0.0,0.0,0.0,0.0,0.0,0.0,0.0,0.0,0.0,0.0,0.0,0.0,0.0,0.0,0.0,0.0,0.0,0.0,0.0,0.0,0.0,0.0,0.0,0.0,0.0,0.0,0.0,0.0,0.0,0.0,0.0,0.0,0.0,0.0,0.0,0.0,0.0,0.0,0.0,0.0,0.0,0.0,0.0,0.0,0.0,0.0,0.0,0.0,0.0,0.0,0.0,0.0,0.0,0.0,0.0,0.0,0.0,0.0,0.0,0.0,0.0,0.0,0.0,0.0,0.0,0.0,0.0,0.0,0.0,0.0,0.0,0.0,0.0,0.0,0.0,0.0,0.0,0.0,0.0,0.0,0.0,0.0,0.0,0.0,0.0,0.0,0.0,0.0,0.0,0.0,0.0,0.0,0.0,0.0,0.0,0.0,0.0,0.0,0.0,-2.6815,-3.0614,-3.0703,-3.0739,-3.0791,-3.0703,-2.9902,0.0,0.0,0.0,0.0,0.0,0.0,0.0,0.0,0.0,0.0,0.0,0.0,0.0,0.0,0.0,0.0,0.0,0.0,0.0,0.0,0.0,0.0,0.0,0.0,0.0,0.0,0.0,0.0,0.0,0.0,0.0,0.0,0.0,0.0,0.0,0.0,0.0,0.0,0.0,0.0,0.0,0.0,0.0,0.0,0.0,0.0,0.0,0.0,0.0,0.0,0.0,0.0,0.0,0.0,0.0,0.0,0.0,0.0,0.0,0.0,0.0,0.0,0.0,0.0,0.0,0.0,0.0,0.0,0.0,0.0,0.0,0.0,0.0,0.0,0.0,0.0,0.0,0.0,0.0,0.0,0.0,0.0,0.0,0.0,0.0,0.0,0.0,0.0,0.0,0.0,0.0,0.0,0.0,0.0,0.0,0.0,0.0,0.0,0.0,0.0,0.0,0.0,0.0,0.0,0.0,0.0,0.0,0.0,-2.7611,-3.059,-3.0745,-3.0792,-3.0798,-3.0135,-2.9584,0.0,0.0,0.0,0.0,0.0,0.0,0.0,0.0,0.0,0.0,0.0,0.0,0.0,0.0,0.0,0.0,0.0,0.0,0.0,0.0,0.0,0.0,0.0,0.0,0.0,0.0,0.0,0.0,0.0,0.0,0.0,0.0,0.0,0.0,0.0,0.0,0.0,0.0,0.0,0.0,0.0,0.0,0.0,0.0,0.0,0.0,0.0,0.0,-3.0281,0.0,0.0,0.0,0.0,0.0,0.0,0.0,0.0,0.0,0.0,0.0,0.0,0.0,0.0,0.0,0.0,0.0,0.0,0.0,0.0,0.0,0.0,0.0,0.0,0.0,0.0,0.0,0.0,0.0,0.0,0.0,0.0,0.0,0.0,0.0,0.0,0.0,0.0,0.0,0.0,0.0,0.0,0.0,0.0,0.0,0.0,0.0,0.0,0.0,0.0,0.0,0.0,0.0,0.0,0.0,0.0,0.0,0.0,0.0,-2.8199,-3.061,-3.0763,-3.0785,-3.0761,-2.9975,-2.9263,0.0,0.0,0.0,0.0,0.0,0.0,0.0,0.0,0.0,0.0,0.0,0.0,0.0,0.0,0.0,0.0,0.0,0.0,0.0,0.0,0.0,0.0,0.0,0.0,0.0,0.0,0.0,0.0,0.0,0.0,0.0,0.0,0.0,0.0,0.0,0.0,0.0,0.0,0.0,0.0,0.0,0.0,0.0,0.0,0.0,0.0,0.0,0.0,0.0,0.0,0.0,0.0,0.0,0.0,0.0,0.0,0.0,0.0,0.0,0.0,0.0,0.0,0.0,0.0,0.0,0.0,0.0,0.0,0.0,0.0,0.0,0.0,0.0,0.0,0.0,0.0,0.0,0.0,0.0,0.0,0.0,0.0,0.0,0.0,0.0,0.0,0.0,0.0,0.0,0.0,0.0,0.0,0.0,0.0,0.0,0.0,0.0,0.0,0.0,0.0,0.0,0.0,0.0,0.0,0.0,0.0,0.0,-2.8024,-2.8779,-3.0597,-3.0762,-3.0795,-3.0781,-3.0085,-2.9264,-2.83,0.0,0.0,0.0,0.0,0.0,0.0,0.0,0.0,0.0,0.0,0.0,0.0,0.0,0.0,0.0,0.0,0.0,0.0,0.0,0.0,0.0,0.0,0.0,0.0,0.0,0.0,0.0,0.0,0.0,0.0,0.0,0.0,0.0,0.0,0.0,0.0,0.0,0.0,-2.7056,-2.9215,0.0,0.0,0.0,0.0,0.0,0.0,0.0,0.0,-3.0743,0.0,0.0,0.0,0.0,0.0,0.0,0.0,0.0,0.0,0.0,0.0,0.0,0.0,0.0,0.0,0.0,0.0,0.0,0.0,0.0,0.0,0.0,0.0,0.0,0.0,0.0,0.0,0.0,0.0,0.0,0.0,0.0,0.0,0.0,0.0,0.0,0.0,0.0,0.0,0.0,0.0,0.0,0.0,0.0,0.0,0.0,0.0,0.0,0.0,0.0,0.0,0.0,0.0,0.0,0.0,0.0,-2.932,-2.9139,-2.9582,-3.0677,-3.0764,-3.0801,-3.0788,-3.0661,-3.0083,-2.9031,0.0,0.0,0.0,0.0,0.0,0.0,0.0,0.0,0.0,0.0,0.0,0.0,0.0,0.0,0.0,0.0,0.0,0.0,0.0,0.0,0.0,0.0,0.0,0.0,0.0,0.0,0.0,0.0,0.0,0.0,0.0,0.0,0.0,0.0,0.0,0.0,0.0,0.0,0.0,-3.0881,-3.1472,0.0,0.0,0.0,0.0,0.0,0.0,0.0,0.0,-3.1425,0.0,0.0,0.0,0.0,0.0,0.0,0.0,0.0,0.0,0.0,0.0,0.0,0.0,0.0,0.0,0.0,0.0,0.0,0.0,0.0,0.0,0.0,0.0,0.0,0.0,0.0,0.0,0.0,0.0,0.0,0.0,0.0,0.0,0.0,0.0,0.0,0.0,0.0,0.0,0.0,0.0,0.0,0.0,0.0,0.0,0.0,0.0,0.0,0.0,0.0,0.0,0.0,0.0,0.0,0.0,-2.984,-2.9928,-3.0177,-3.0674,-3.0758,-3.0793,-3.0785,-3.0725,-3.0409,0.0,0.0,0.0,0.0,0.0,0.0,0.0,0.0,0.0,0.0,0.0,0.0,0.0,0.0,0.0,0.0,0.0,0.0,0.0,0.0,0.0,0.0,0.0,0.0,0.0,0.0,0.0,0.0,0.0,0.0,0.0,0.0,0.0,0.0,0.0,0.0,0.0,0.0,0.0,0.0,-3.1639,-3.1981,-3.2091,0.0,0.0,0.0,0.0,0.0,0.0,-3.1977,-3.1773,0.0,0.0,0.0,0.0,0.0,0.0,0.0,0.0,0.0,0.0,0.0,0.0,0.0,0.0,0.0,0.0,0.0,0.0,0.0,0.0,0.0,0.0,0.0,0.0,0.0,0.0,0.0,0.0,0.0,0.0,0.0,0.0,0.0,0.0,0.0,0.0,0.0,0.0,0.0,0.0,0.0,0.0,0.0,0.0,0.0,0.0,0.0,0.0,0.0,0.0,0.0,0.0,0.0,0.0,0.0,-3.0177,-3.0375,-3.0551,-3.0678,-3.076,-3.0783,-3.0786,-3.0513,-3.027,0.0,0.0,0.0,0.0,0.0,0.0,0.0,0.0,0.0,0.0,0.0,0.0,0.0,0.0,0.0,0.0,0.0,0.0,0.0,0.0,0.0,0.0,0.0,0.0,0.0,0.0,0.0,0.0,0.0,0.0,0.0,0.0,0.0,0.0,0.0,0.0,0.0,0.0,0.0,0.0,0.0,-3.2495,-3.319,-3.2757,0.0,0.0,0.0,0.0,-3.2734,-3.2292,0.0,0.0,0.0,0.0,0.0,0.0,0.0,0.0,0.0,0.0,0.0,0.0,0.0,0.0,0.0,0.0,0.0,0.0,0.0,0.0,0.0,0.0,0.0,0.0,0.0,0.0,0.0,0.0,0.0,0.0,0.0,0.0,0.0,0.0,0.0,0.0,0.0,0.0,0.0,0.0,0.0,0.0,0.0,0.0,0.0,0.0,0.0,0.0,0.0,0.0,0.0,0.0,0.0,0.0,0.0,0.0,-3.0189,-3.0337,-3.0513,-3.0691,-3.0772,-3.0795,-3.0778,-2.9997,-2.9443,0.0,0.0,0.0,0.0,0.0,0.0,0.0,0.0,0.0,0.0,0.0,0.0,0.0,0.0,0.0,0.0,0.0,0.0,0.0,0.0,0.0,0.0,0.0,0.0,0.0,0.0,0.0,0.0,0.0,0.0,0.0,0.0,0.0,0.0,0.0,0.0,0.0,0.0,0.0,0.0,0.0,-3.3101,-3.3268,-3.3283,-3.3023,0.0,0.0,-3.1854,-3.1194,-3.1601,0.0,0.0,0.0,0.0,0.0,0.0,0.0,0.0,0.0,0.0,0.0,0.0,0.0,0.0,0.0,0.0,0.0,0.0,0.0,0.0,0.0,0.0,0.0,0.0,0.0,0.0,0.0,0.0,0.0,0.0,0.0,0.0,0.0,0.0,0.0,0.0,0.0,0.0,0.0,0.0,0.0,0.0,0.0,0.0,0.0,0.0,0.0,0.0,0.0,0.0,0.0,0.0,0.0,0.0,0.0,-2.9589,-3.0194,-3.0317,-3.049,-3.063,-3.0716,-3.0527,-3.0083,-2.9598,-2.9045,0.0,0.0,0.0,0.0,0.0,0.0,0.0,0.0,0.0,0.0,0.0,0.0,0.0,0.0,0.0,0.0,0.0,0.0,0.0,0.0,0.0,0.0,0.0,0.0,0.0,0.0,0.0,0.0,0.0,0.0,0.0,0.0,0.0,0.0,0.0,0.0,0.0,0.0,0.0,0.0,0.0,0.0,-3.3949,-3.4084,0.0,0.0,0.0,-3.2715,-3.2319,0.0,0.0,0.0,0.0,0.0,0.0,0.0,0.0,0.0,0.0,0.0,0.0,0.0,0.0,0.0,0.0,0.0,0.0,0.0,0.0,0.0,0.0,0.0,0.0,0.0,0.0,0.0,0.0,0.0,0.0,0.0,0.0,0.0,0.0,0.0,0.0,0.0,0.0,0.0,0.0,0.0,0.0,0.0,0.0,0.0,0.0,0.0,0.0,0.0,0.0,0.0,0.0,0.0,0.0,0.0,0.0,0.0,-3.0152,-3.0315,-3.0438,-3.0583,-3.0661,-3.0304,-2.9531,-2.9205,0.0,0.0,0.0,0.0,0.0,0.0,0.0,0.0,0.0,0.0,0.0,0.0,0.0,0.0,0.0,0.0,0.0,0.0,0.0,0.0,0.0,0.0,0.0,0.0,0.0,0.0,0.0,-2.3109,0.0,0.0,0.0,0.0,0.0,0.0,0.0,0.0,0.0,0.0,0.0,0.0,0.0,0.0,-3.3207,-3.4153,-3.413,-3.4027,0.0,0.0,-3.2751,-3.2734,-3.2197,-3.1788,0.0,0.0,0.0,0.0,0.0,0.0,0.0,0.0,0.0,0.0,0.0,0.0,0.0,0.0,0.0,0.0,0.0,0.0,0.0,0.0,0.0,0.0,0.0,0.0,0.0,0.0,0.0,0.0,0.0,0.0,0.0,0.0,0.0,0.0,0.0,0.0,0.0,0.0,0.0,0.0,0.0,0.0,0.0,0.0,0.0,0.0,0.0,0.0,0.0,0.0,0.0,0.0,0.0,0.0,-2.9171,-3.0052,-3.0241,-3.0362,-3.051,-3.0636,-3.0329,-2.9522,-2.8709,-2.7831,0.0,0.0,0.0,0.0,0.0,0.0,0.0,0.0,0.0,0.0,0.0,0.0,0.0,0.0,0.0,0.0,0.0,0.0,0.0,0.0,0.0,0.0,0.0,0.0,0.0,0.0,0.0,0.0,0.0,0.0,0.0,0.0,0.0,0.0,0.0,0.0,0.0,0.0,0.0,0.0,0.0,-3.233,-3.3262,-3.2707,-3.2196,0.0,-3.1532,-3.0971,-3.0976,-3.095,-3.0894,-3.0879,0.0,0.0,0.0,0.0,0.0,0.0,0.0,0.0,0.0,0.0,0.0,0.0,0.0,0.0,0.0,0.0,0.0,0.0,0.0,0.0,0.0,0.0,0.0,0.0,0.0,0.0,0.0,0.0,0.0,0.0,0.0,0.0,0.0,0.0,0.0,0.0,0.0,0.0,0.0,0.0,0.0,0.0,0.0,0.0,0.0,0.0,0.0,0.0,0.0,0.0,0.0,0.0,0.0,-2.8722,-3.0082,-3.0247,-3.0346,-3.0446,-3.0567,-3.0033,-2.8723,-2.8371,-2.7535,0.0,0.0,0.0,0.0,0.0,0.0,0.0,0.0,0.0,0.0,0.0,0.0,0.0,0.0,0.0,0.0,0.0,0.0,0.0,0.0,0.0,0.0,0.0,0.0,0.0,0.0,0.0,0.0,-2.5214,-2.5026,-2.4927,0.0,0.0,0.0,0.0,0.0,0.0,0.0,0.0,0.0,0.0,-3.1993,-3.2388,-3.2605,0.0,0.0,-3.2196,-3.1971,-3.0952,-3.125,-3.1419,-3.0886,-3.0796,0.0,0.0,0.0,0.0,0.0,0.0,0.0,0.0,0.0,0.0,0.0,0.0,0.0,0.0,0.0,0.0,0.0,0.0,0.0,0.0,0.0,0.0,0.0,0.0,0.0,0.0,0.0,0.0,0.0,0.0,0.0,0.0,0.0,0.0,0.0,0.0,0.0,0.0,0.0,0.0,0.0,0.0,0.0,0.0,0.0,0.0,0.0,0.0,0.0,0.0,0.0,0.0,-2.8427,-3.0082,-2.9984,-2.9946,-3.0023,-2.9893,-2.9171,-2.7865,-2.7795,-2.7106,0.0,0.0,0.0,0.0,0.0,0.0,0.0,0.0,0.0,0.0,0.0,0.0,0.0,0.0,0.0,0.0,0.0,0.0,0.0,0.0,0.0,0.0,0.0,0.0,0.0,0.0,0.0,0.0,-2.6227,-2.5837,-2.5987,0.0,0.0,0.0,0.0,0.0,0.0,0.0,0.0,0.0,0.0,-3.1434,-3.1495,-3.2023,-3.2221,-3.166,-3.2124,-3.2122,-3.0975,-3.1305,-3.1504,-3.0895,0.0,0.0,0.0,0.0,0.0,0.0,0.0,0.0,0.0,0.0,0.0,0.0,0.0,0.0,0.0,0.0,0.0,0.0,0.0,0.0,0.0,0.0,0.0,0.0,0.0,0.0,0.0,-2.8987,0.0,0.0,-2.8998,0.0,0.0,0.0,0.0,0.0,0.0,0.0,0.0,0.0,0.0,0.0,0.0,0.0,0.0,0.0,0.0,0.0,0.0,0.0,0.0,0.0,0.0,-2.8427,-3.0052,-2.9404,-2.9071,-2.9119,-2.843,-2.771,-2.6896,-2.6894,-2.6504,-2.5625,0.0,0.0,0.0,0.0,0.0,0.0,0.0,0.0,0.0,0.0,0.0,0.0,0.0,0.0,0.0,0.0,0.0,0.0,0.0,0.0,0.0,0.0,0.0,0.0,0.0,0.0,-2.6883,-2.6601,-2.6734,0.0,0.0,0.0,0.0,0.0,0.0,0.0,0.0,0.0,-3.0288,-3.0486,-3.0534,-3.053,-3.0607,-3.0705,-3.0664,-3.0733,-3.0799,-3.0794,-3.0827,-3.082,0.0,0.0,0.0,0.0,0.0,0.0,0.0,0.0,0.0,0.0,0.0,0.0,0.0,0.0,0.0,0.0,0.0,0.0,0.0,0.0,0.0,0.0,0.0,0.0,0.0,0.0,0.0,-2.8987,-2.8987,0.0,0.0,0.0,0.0,0.0,0.0,0.0,0.0,0.0,0.0,0.0,-2.8198,-2.8198,0.0,0.0,0.0,0.0,0.0,0.0,0.0,0.0,0.0,0.0,0.0,0.0,-2.8196,-2.9221,-2.9111,-2.8751,-2.8236,-2.8033,-2.7583,-2.6814,-2.6837,-2.6454,-2.5625,0.0,0.0,0.0,0.0,0.0,0.0,0.0,0.0,0.0,0.0,0.0,0.0,0.0,0.0,0.0,0.0,0.0,0.0,0.0,0.0,0.0,0.0,0.0,0.0,0.0,-2.7036,0.0,0.0,0.0,0.0,0.0,0.0,0.0,0.0,0.0,0.0,-2.9619,-2.9953,-3.0241,-3.0329,-3.0383,-3.0425,-3.0463,-3.0496,0.0,0.0,0.0,0.0,0.0,0.0,0.0,0.0,0.0,0.0,0.0,0.0,0.0,0.0,-3.0513,-2.9844,-2.9651,-2.9431,-2.8863,0.0,0.0,0.0,0.0,0.0,0.0,0.0,0.0,0.0,0.0,0.0,0.0,0.0,0.0,-2.8987,-2.8987,-2.8987,0.0,0.0,0.0,0.0,0.0,0.0,0.0,0.0,-2.8964,-2.8964,-2.8952,-2.8947,-2.8935,0.0,-2.8881,-2.8391,0.0,0.0,0.0,0.0,0.0,0.0,0.0,0.0,-2.8044,-2.8847,-2.8383,-2.7883,-2.7355,-2.7155,-2.6809,-2.6343,-2.6376,-2.6143,-2.5604,-2.5662,-2.5441,0.0,0.0,0.0,0.0,0.0,0.0,0.0,0.0,0.0,0.0,0.0,0.0,0.0,0.0,0.0,0.0,0.0,0.0,0.0,0.0,0.0,0.0,0.0,-2.6925,0.0,0.0,0.0,0.0,0.0,0.0,0.0,0.0,0.0,-2.9209,-2.9503,-2.9846,-3.0148,-3.0241,-3.0317,-3.0367,0.0,0.0,0.0,0.0,0.0,0.0,0.0,-3.1433,-3.0889,-3.082,-3.0855,-3.085,-3.0829,-3.0828,-3.0827,0.0,0.0,-2.9811,-2.9702,-2.9467,-2.8884,-2.8552,-2.835,-2.8338,-2.7639,-2.6717,0.0,0.0,0.0,0.0,0.0,0.0,0.0,0.0,-2.8987,-2.8987,0.0,-2.9005,0.0,0.0,0.0,0.0,-2.881,-2.8881,0.0,0.0,-2.8905,-2.8905,-2.8893,-2.8834,-2.8816,-2.8816,-2.8816,-2.8845,-2.8911,-2.9049,0.0,0.0,0.0,0.0,0.0,0.0,-2.7944,-2.8698,-2.7318,-2.6504,-2.6452,-2.5788,-2.5403,-2.5415,-2.556,-2.5617,-2.5605,-2.5658,-2.5703,-2.5683,-2.5702,0.0,0.0,0.0,0.0,0.0,0.0,0.0,0.0,0.0,0.0,0.0,0.0,0.0,0.0,0.0,0.0,0.0,0.0,0.0,0.0,-2.7894,0.0,0.0,0.0,0.0,0.0,0.0,0.0,0.0,0.0,-2.9856,-2.9885,-2.9323,-2.9172,-3.0075,0.0,0.0,0.0,0.0,-3.0392,-3.0392,-3.0505,-3.0597,-3.0607,-3.0655,-3.0717,-3.0786,0.0,0.0,-3.0878,-3.0878,-3.0877,-3.0875,-3.0142,-2.972,-3.0393,-3.028,-3.0173,-3.0034,-2.93,-2.9002,-2.8801,-2.6801,-2.531,-3.3371,0.0,0.0,0.0,0.0,-3.0104,-2.9412,-2.8987,-2.8987,-2.8987,-2.8987,-2.8952,0.0,0.0,0.0,0.0,0.0,0.0,-2.8863,-2.8834,-2.8881,-2.8863,-2.884,-2.8798,-2.8816,-2.8816,-2.8816,-2.8554,-2.8091,-2.8195,-2.855,-2.9032,0.0,0.0,0.0,0.0,-2.731,-2.7037,-2.6682,-2.6194,-2.5587,-2.5421,-2.5361,-2.5384,-2.5491,-2.5528,-2.5517,-2.5582,-2.5629,-2.5641,-2.5628,0.0,0.0,0.0,0.0,0.0,0.0,0.0,0.0,0.0,0.0,0.0,0.0,0.0,0.0,0.0,0.0,0.0,0.0,0.0,-2.8587,-2.8076,-2.7529,0.0,0.0,0.0,0.0,0.0,0.0,0.0,0.0,0.0,-2.8982,-2.9395,-2.9772,0.0,0.0,-3.0219,-3.0233,-3.0299,-3.0359,-3.0396,-3.0422,0.0,-3.0525,-3.0586,-3.0623,-3.0659,-3.0691,-3.0742,-3.0753,-3.0797,-3.0839,-3.082,-3.0094,-2.9553,-2.9624,-2.8696,-2.7709,-2.7024,-2.623,-2.5441,-2.4792,-2.4094,-2.3492,-3.3083,-3.3243,-3.252,-3.2006,-3.1551,-3.0782,-3.0226,-2.9838,-2.9539,-2.9411,-2.9374,-2.8997,-2.8839,-2.8822,-2.8749,0.0,0.0,0.0,-2.8791,-2.8743,-2.881,-2.8791,-2.8743,-2.8409,-2.8415,-2.8676,-2.8112,-2.7747,-2.7611,-2.7079,-2.7308,-2.8167,0.0,-2.7313,-2.7905,-2.7188,-2.6613,-2.6214,-2.6028,-2.5694,-2.5214,-2.528,-2.5341,-2.5398,-2.5436,-2.5488,-2.5515,-2.5546,-2.5581,-2.5609,-2.5574,-2.5574,0.0,0.0,0.0,0.0,0.0,0.0,0.0,0.0,0.0,0.0,0.0,-2.5539,-2.5543,0.0,0.0,0.0,-2.6935,-2.7792,-2.8363,-2.82,0.0,0.0,0.0,0.0,0.0,0.0,0.0,-2.7333,-2.7757,-2.8215,-2.8553,-2.912,-2.9622,-2.9969,-3.0098,-3.0171,-3.0185,0.0,-3.031,-3.0348,-3.0389,-3.0428,-3.049,-3.0535,-3.0447,-3.0127,-2.9836,-2.9687,-2.9713,-2.9747,-2.9777,-2.9706,-2.9101,-2.8376,-2.8001,-2.678,-2.5822,-2.5502,-2.4232,-2.3063,-2.2508,-2.2191,-2.1817,-3.2703,-3.2903,-3.2488,-3.2309,-3.2214,-3.1502,-3.1192,-3.1112,-3.0341,-2.9995,-2.9922,-2.9144,-2.8761,-2.87,-2.8625,0.0,-2.86,-2.8657,-2.8694,-2.8682,-2.8694,-2.8694,-2.8645,-2.7894,-2.7857,-2.8473,-2.7066,-2.669,-2.7198,-2.5885,-2.5546,-2.6195,-2.6527,-2.6767,-2.6906,-2.6236,-2.5901,-2.5974,-2.5367,-2.5119,-2.5216,-2.5269,-2.5331,-2.5389,-2.5388,-2.5408,-2.548,-2.5487,-2.5525,-2.5585,-2.5517,-2.5514,-2.5565,0.0,0.0,0.0,0.0,0.0,0.0,0.0,0.0,0.0,0.0,0.0,0.0,0.0,0.0,0.0,-2.7956,0.0,-2.7773,-2.8297,0.0,0.0,0.0,-2.8081,-2.7278,-2.7795,-2.7911,-2.7164,0.0,0.0,-2.8272,-2.8501,-2.8881,-2.9687,-2.9973,-3.0116,-3.0178,-3.0254,-3.0298,-3.0298,-3.0327,-3.0417,-3.0453,-3.0384,-3.0071,-2.9435,-2.8595,-2.8193,-2.8139,-2.814,-2.8139,-2.8237,-2.7478,-2.6718,-2.5859,-2.5056,-2.4473,-2.4994,-2.3325,-2.1745,-2.1607,-2.105,-2.0575,-3.2266,-3.2468,-3.2506,-3.2348,-3.2054,-3.1981,-3.166,-3.1149,-3.0341,-2.9995,-2.994,-2.9089,-2.87,-2.8625,-2.8582,-2.86,-2.86,-2.8657,-2.8675,-2.8625,-2.8687,-2.8687,-2.8607,-2.8413,-2.8093,-2.7676,-2.7374,-2.6631,-2.5611,-2.5328,-2.4949,-2.452,-2.4672,-2.5094,-2.5762,-2.5671,-2.5388,-2.497,-2.4901,-2.4962,-2.5201,-2.5204,-2.5231,-2.5243,-2.5248,-2.5269,-2.5341,-2.5351,-2.5382,-2.544,-2.5433,-2.5425,-2.5367,-2.5359,0.0,0.0,0.0,0.0,0.0,0.0,0.0,0.0,0.0,-2.5333,-2.5317,0.0,-2.5573,0.0,-2.7902,-2.8966,-2.9369,-2.8446,0.0,0.0,-2.6457,-2.5709,-2.5446,-2.4994,-2.4858,-2.5291,-2.5317,-2.5634,-2.6513,-2.7255,-2.7774,-2.8017,-2.9224,-3.0098,-3.0125,-3.0199,-3.0221,-3.0196,-3.0248,-3.0324,-3.0266,-2.9766,-2.9269,-2.9094,-2.842,-2.776,-2.7152,-2.7145,-2.7248,-2.7249,-2.659,-2.5986,-2.5694,-2.4468,-2.3301,-2.2806,-2.2153,-2.1562,-2.0943,-2.0623,-2.0478,-3.1913,-3.2109,-3.2283,-3.2291,-3.2172,-3.2466,-3.2423,-3.2092,-3.0942,-3.0451,-3.0397,-2.9559,-2.8964,-2.8618,-2.8962,-2.8944,-2.86,-2.8637,-2.8619,-2.86,-2.8632,-2.8438,-2.8057,-2.7695,-2.7296,-2.6856,-2.6207,-2.5601,-2.5052,-2.4754,-2.4382,-2.3907,-2.3976,-2.4255,-2.4727,-2.4855,-2.4782,-2.4522,-2.4697,-2.4903,-2.5099,-2.5178,-2.5206,-2.5209,-2.5201,-2.5241,-2.5306,-2.5302,-2.5332,-2.5394,-2.5365,-2.5346,-2.5308,-2.5264,-2.5273,0.0,0.0,0.0,0.0,0.0,0.0,0.0,0.0,0.0,0.0,0.0,-2.5626,-2.6803,-2.8384,-2.9353,-2.9406,-2.8575,-2.7881,-2.7437,-2.6552,-2.5665,-2.4855,-2.4305,-2.3889,-2.3589,-2.3551,-2.4024,-2.5253,-2.5933,-2.6571,-2.7286,-2.8294,-2.895,-2.9029,-2.9336,-2.9518,-2.9168,-2.9449,-2.9577,-2.9257,-2.8465,-2.7902,-2.7798,-2.6942,-2.6056,-2.5649,-2.5349,-2.5308,-2.569,-2.5444,-2.4977,-2.4588,-2.3812,-2.2724,-2.1599,-2.1229,-2.1052,-2.0609,-2.0513,-2.05,-3.1615,-3.1744,-3.1929,-3.2091,-3.2249,-3.2752,-3.3101,-3.3225,-3.1631,-3.0849,-3.064,-2.9952,-2.9264,-2.8672,-2.935,-2.9264,-2.8618,-2.86,-2.86,-2.86,-2.86,-2.8165,-2.7369,-2.6681,-2.6228,-2.5986,-2.4682,-2.4369,-2.4903,-2.4242,-2.3896,-2.3896,-2.3896,-2.3896,-2.3907,-2.4058,-2.422,-2.4367,-2.4615,-2.4832,-2.4974,-2.5088,-2.516,-2.5176,-2.5185,-2.5212,-2.5276,-2.5282,-2.5307,-2.5375,-2.5331,-2.5292,-2.5288,-2.5233,-2.5236,0.0,-2.5236,0.0,0.0,0.0,0.0,0.0,0.0,0.0,0.0,-2.5171,-2.5816,-2.7186,-2.8723,-2.9325,-2.8566,-2.8425,-2.805,-2.7285,-2.7045,-2.6301,-2.4726,-2.4367,-2.3699,-2.2256,-2.2017,-2.2581,-2.4276,-2.4651,-2.5325,-2.6639,-2.6877,-2.6992,-2.73,-2.81,-2.8517,-2.7758,-2.8332,-2.8625,-2.7993,-2.7136,-2.6529,-2.6266,-2.5234,-2.406,-2.3879,-2.3324,-2.3113,-2.3832,-2.4022,-2.383,-2.3191,-2.3137,-2.2596,-2.1294,-2.1049,-2.0918,-2.0601,-2.05,-2.0501,-3.1193,-3.1327,-3.1519,-3.1709,-3.1823,-3.2074,-3.252,-3.2887,-3.1353,-3.0052,-2.8987,-2.8876,-2.8744,-2.8618,-2.8744,-2.8744,-2.86,-2.86,-2.86,-2.86,-2.86,-2.8183,-2.7405,-2.7242,-2.6493,-2.5262,-2.4973,-2.4584,-2.4052,-2.3948,-2.3858,-2.3816,-2.3858,-2.3858,-2.3816,0.0,0.0,0.0,-2.4381,-2.4588,-2.4832,-2.4926,-2.4999,-2.51,-2.5112,0.0,-2.5204,-2.5209,-2.5225,-2.5233,-2.5228,0.0,0.0,0.0,0.0,0.0,0.0,0.0,0.0,0.0,0.0,0.0,-2.5057,-2.5019,-2.5044,-2.5563,-2.6008,-2.6291,-2.7172,-2.7646,-2.7478,-2.6895,-2.6392,-2.6112,-2.5514,-2.4687,-2.3609,-2.2909,-2.237,-2.2141,-2.1485,-2.1686,-2.3304,-2.372,-2.4133,-2.5066,-2.474,-2.4669,-2.5336,-2.6782,-2.7739,-2.7675,-2.7778,-2.7873,-2.7733,-2.6918,-2.6121,-2.552,-2.4703,-2.3554,-2.2388,-2.2012,-2.1914,-2.2263,-2.2241,-2.2546,-2.2992,-2.3096,-2.2978,-2.2664,-2.2573,-2.2179,-2.0816,-2.0528,-2.0512,-3.1075,-3.121,-3.1349,-3.1483,0.0,-3.1748,-3.2003,-3.2247,-3.0969,-2.9676,-2.8495,-2.8977,-2.898,-2.8618,-2.9029,-2.8993,-2.86,-2.86,-2.86,-2.86,-2.86,-2.7966,-2.679,-2.6819,-2.5968,-2.4429,-2.4425,-2.4244,-2.3824,-2.3837,-2.3827,-2.3795,-2.3827,-2.3827,-2.3806,-2.3827,-2.3958,-2.4143,-2.4284,-2.4442,-2.4639,-2.4742,-2.4856,-2.4934,-2.4999,0.0,0.0,0.0,0.0,0.0,0.0,0.0,0.0,0.0,0.0,-2.5081,-2.5076,-2.5051,-2.5044,-2.4992,-2.4938,-2.4903,-2.487,-2.487,-2.4905,-2.5556,-2.596,-2.5887,-2.6558,-2.6831,-2.6394,-2.5974,-2.5548,-2.5049,-2.4624,-2.3996,-2.3113,-2.2296,-2.167,-2.1256,-2.0585,-2.0619,-2.1868,-2.2162,-2.2576,-2.3344,-2.3218,-2.3114,-2.3658,-2.5141,-2.6362,-2.6852,-2.66,-2.6429,-2.639,-2.6085,-2.5481,-2.4648,-2.3829,-2.2867,-2.1677,-2.1182,-2.1088,-2.1548,-2.1714,-2.2031,-2.287,-2.3113,-2.3097,-2.31,-2.3106,-2.2885,-2.191,-2.1445,-2.1125,-3.1035,-3.1171,-3.1215,-3.1312,-3.1443,-3.1519,-3.1461,-3.1282,-3.0511,0.0,0.0,-2.9165,-2.9145,-2.859,-2.9217,-2.9176,-2.8567,-2.8549,-2.8574,-2.8569,-2.8587,-2.7749,-2.6222,-2.6186,-2.5353,-2.385,-2.3813,-2.3795,-2.3795,-2.3813,-2.3795,-2.3795,-2.3795,-2.3795,-2.3803,-2.3813,-2.3865,-2.4024,-2.4153,-2.4284,-2.4435,-2.4553,-2.465,-2.4742,-2.4805,-2.4863,-2.4907,-2.4907,-2.4921,-2.4903,-2.4921,-2.4907,-2.4907,-2.4861,-2.4842,-2.4907,-2.487,-2.4834,-2.4827,-2.478,-2.4711,-2.4634,-2.4634,-2.4665,-2.4761,-2.5281,-2.5566,-2.5418,-2.5959,-2.6004,-2.5308,-2.5234,-2.4948,-2.4218,-2.4078,-2.37,-2.2838,-2.218,-2.1434,-2.0513,-1.9939,-1.9832,-2.0637,-2.0871,-2.1181,-2.1952,-2.2131,-2.2114,-2.2377,-2.3691,-2.505,-2.5768,-2.5601,-2.5158,-2.512,-2.5165,-2.4759,-2.4023,-2.3176,-2.2336,-2.1517,-2.0768,-2.063,-2.1214,-2.144,-2.1811,-2.2581,-2.2771,-2.2995,-2.3262,-2.3329,-2.3376,-2.3444,-2.2742,-2.2011,-3.0871,-3.1015,-3.1035,-3.1114,-3.123,-3.1249,-3.0617,-2.9607,-2.9877,-2.9281,-2.8088,-2.8312,-2.838,-2.8259,-2.838,-2.8407,-2.8358,-2.8393,-2.8458,-2.8523,-2.8574,-2.7749,-2.6222,-2.6186,-2.5371,-2.3886,-2.38,-2.38,-2.3813,-2.38,-2.38,-2.3795,-2.3795,-2.3803,-2.3797,-2.3797,-2.3786,-2.3765,-2.3894,-2.4027,-2.4154,-2.4248,-2.4365,-2.4537,-2.4534,-2.4559,-2.457,-2.457,-2.457,-2.457,-2.457,-2.457,-2.457,-2.4562,-2.4554,-2.4562,-2.4567,-2.4561,-2.4543,-2.4493,-2.4424,-2.4362,-2.4362,-2.4415,-2.4537,-2.4525,-2.4467,-2.4358,-2.4454,-2.434,-2.421,-2.4228,-2.4152,-2.3915,-2.3847,-2.3487,-2.2605,-2.2332,-2.1758,-2.0499,-2.0191,-2.022,-2.052,-2.0669,-2.1008,-2.1663,-2.1429,-2.1254,-2.1933,-2.2907,-2.3997,-2.4792,-2.4993,-2.4991,-2.5037,-2.5076,-2.4721,-2.396,-2.3141,-2.2397,-2.1471,-2.0733,-2.0323,-2.0416,-2.0548,-2.0943,-2.1769,-2.1891,-2.2531,-2.3624,-2.4004,-2.4239,-2.4769,-2.3769,-2.262,-3.0814,-3.1012,-3.1012,-3.1092,-3.119,-3.119,-3.0404,-2.9226,-2.9455,-2.8872,-2.7806,-2.7861,-2.7933,-2.7918,-2.7918,-2.8223,-2.8745,-2.884,-2.8981,-2.9094,-2.9212,-2.816,-2.6312,-2.6186,-2.536,-2.3872,-2.3815,-2.3775,-2.3747,-2.3775,-2.3797,-2.38,-2.38,-2.3807,-2.3804,-2.3754,-2.3739,-2.3711,-2.3792,-2.3888,-2.3979,-2.4086,-2.4182,-2.4284,-2.4284,-2.4275,-2.4283,-2.4319,-2.4347,-2.4337,-2.4373,-2.4355,-2.4337,-2.4337,-2.4319,-2.4301,-2.4256,-2.4229,-2.4229,-2.4211,-2.4173,-2.4145,-2.4145,-2.4117,-2.4117,-2.4135,-2.4059,-2.3901,-2.3831,-2.3765,-2.3725,-2.3732,-2.3693,-2.3605,-2.356,-2.3343,-2.2878,-2.2371,-2.1874,-2.1227,-2.0479,-2.0119,-2.0254,-2.0367,-2.035,-2.0488,-2.0412,-2.0839,-2.1506,-2.2426,-2.3429,-2.4353,-2.4673,-2.4776,-2.4915,-2.4936,-2.4584,-2.3827,-2.3424,-2.2664,-2.158,-2.0906,-2.0623,-2.0224,-2.0192,-2.0618,-2.1462,-2.1665,-2.2299,-2.319,-2.3649,-2.3885,-2.4027,-2.326,-2.2177,-3.0773,-3.0935,-3.0935,-3.1096,-3.1401,-3.1533,-3.0695,-2.9299,-2.9304,-2.8579,-2.7415,-2.7491,-2.7597,-2.7597,-2.758,-2.8107,-2.8926,-2.9171,-2.9348,-2.951,-2.967,-2.8484,-2.6326,-2.6146,-2.5321,-2.3927,-2.3761,-2.3739,-2.3711,-2.3721,-2.3754,-2.3783,-2.3783,-2.3772,-2.3732,-2.3707,-2.3685,-2.3656,-2.3725,-2.3792,-2.3865,-2.3955,-2.4016,-2.4037,-2.4009,-2.4009,-2.4027,-2.4057,-2.4086,-2.4106,-2.4153,-2.4153,-2.4106,-2.4096,-2.4067,-2.4009,-2.3969,-2.3949,-2.3921,-2.3927,-2.3925,-2.3904,-2.3904,-2.3863,-2.3761,-2.3813,-2.3842,-2.3707,-2.3634,-2.3551,-2.3505,-2.3494,-2.3448,-2.336,-2.3289,-2.3223,-2.3098,-2.2528,-2.2048,-2.1849,-2.0823,-2.0043,-1.9966,-1.9902,-1.9785,-1.9638,-2.0064,-2.0825,-2.1519,-2.2215,-2.3009,-2.387,-2.4346,-2.4555,-2.4695,-2.4742,-2.4501,-2.3905,-2.3697,-2.3107,-2.2098,-2.1612,-2.1096,-2.0532,-2.0249,-2.0437,-2.1077,-2.1278,-2.1672,-2.2444,-2.2695,-2.2741,-2.2777,-2.2596,-2.1729,-3.0572,-3.0712,-3.0733,-3.1195,-3.1968,-3.255,-3.1595,-2.9822,-2.9705,-2.8535,-2.6826,-2.7037,-2.7244,-2.7244,-2.7244,-2.7754,-2.864,-2.8906,-2.9119,-2.9251,-2.9514,-2.8334,-2.6171,-2.6015,-2.5218,-2.3862,-2.3652,-2.3652,-2.3707,-2.3652,-2.3652,-2.3718,-2.3729,-2.3667,-2.3629,-2.3607,-2.3585,-2.3528,-2.3585,-2.3685,-2.3815,-2.3754,-2.3783,-2.3818,-2.3775,-2.3725,-2.3736,-2.3743,-2.3775,-2.3818,-2.3797,-2.3786,-2.3836,-2.3786,-2.3754,-2.3725,-2.3725,-2.3714,-2.3732,-2.3714,-2.3689,-2.3641,-2.3641,-2.3607,-2.3533,-2.3551,-2.3573,-2.3567,-2.3533,-2.3476,-2.3407,-2.3413,-2.336,-2.3223,-2.3151,-2.3077,-2.2998,-2.2887,-2.2544,-2.1884,-2.1143,-2.0488,-1.9942,-1.9446,-1.9307,-1.9946,-2.0635,-2.1384,-2.2064,-2.2421,-2.2865,-2.3552,-2.3919,-2.4229,-2.4471,-2.458,-2.4538,-2.4459,-2.3986,-2.3484,-2.3011,-2.2117,-2.1153,-2.0988,-2.0598,-2.0351,-2.0261,-2.0319,-2.0727,-2.1462,-2.177,-2.1831,-2.1915,-2.2195,-2.1969,-3.0321,-3.0522,-3.1011,-3.1757,-3.2591,-3.2892,-3.2235,-3.0981,-3.0098,-2.8961,-2.7724,-2.7079,-2.6792,-2.6792,-2.6792,-2.7317,-2.8234,-2.8608,-2.889,-2.9101,-2.9436,-2.8316,-2.6188,-2.6009,-2.5171,-2.3759,-2.3607,-2.3596,-2.3596,-2.3596,-2.3641,-2.3678,-2.3663,-2.3629,-2.3585,-2.3544,-2.3528,-2.3505,-2.3528,-2.3585,-2.3674,-2.3689,-2.3707,-2.3685,-2.3652,-2.3629,-2.3578,-2.36,-2.3652,-2.3685,-2.3689,-2.3689,-2.3674,-2.3652,-2.3629,-2.3567,-2.3499,-2.3453,-2.3418,-2.3354,-2.3348,-2.3301,-2.3301,-2.3289,-2.3265,-2.3265,-2.3277,-2.3313,-2.3424,-2.3482,-2.3413,-2.3378,-2.3277,-2.3168,-2.3028,-2.294,-2.2876,-2.2816,-2.2617,-2.2309,-2.1298,-2.0506,-2.0188,-1.9626,-1.9631,-2.0385,-2.1153,-2.191,-2.2635,-2.3117,-2.3747,-2.435,-2.4438,-2.4212,-2.4245,-2.4293,-2.4392,-2.4441,-2.4327,-2.4114,-2.3476,-2.3126,-2.2331,-2.1404,-2.0933,-2.0503,-2.0126,-2.0108,-2.032,-2.0797,-2.0882,-2.0939,-2.092,-2.1202,-2.1058,-3.0385,-3.0871,-3.1792,-3.258,-3.3217,-3.3417,-3.2984,-3.205,-3.0987,-2.9802,-2.8481,-2.7449,-2.6766,-2.6449,-2.6468,-2.7044,-2.793,-2.835,-2.8638,-2.8921,-2.9276,-2.8336,-2.6371,-2.6002,-2.5237,-2.4038,-2.3669,-2.3533,-2.3505,-2.3539,-2.3596,-2.3623,-2.3607,-2.3591,-2.3562,-2.3528,-2.3505,-2.3505,-2.3505,-2.3528,-2.3591,-2.3629,-2.3641,-2.3596,-2.3573,-2.3551,-2.3505,-2.3557,-2.3573,-2.3585,-2.3641,-2.3623,-2.3596,-2.3591,-2.3539,-2.343,-2.3295,-2.3187,-2.3089,-2.2998,-2.2917,-2.291,-2.2922,-2.2922,-2.291,-2.2845,-2.2845,-2.2922,-2.326,-2.3457,-2.3283,-2.3217,-2.3132,-2.299,-2.285,-2.2777,-2.2725,-2.2646,-2.2579,-2.2476,-2.143,-2.0541,-2.0442,-2.0252,-2.0435,-2.1038,-2.1721,-2.259,-2.3395,-2.4007,-2.4462,-2.5394,-2.4852,-2.4258,-2.4122,-2.4002,-2.4113,-2.4219,-2.4265,-2.4156,-2.3681,-2.3618,-2.3138,-2.1858,-2.1463,-2.0871,-2.0136,-1.9999,-2.0057,-2.0134,-2.0258,-2.0366,-2.0444,-2.0543,-2.0654,-3.1026,-3.1929,-3.3152,-3.3657,-3.3812,-3.4459,-3.3978,-3.2735,-3.2542,-3.1016,-2.8743,-2.8312,-2.7514,-2.6305,-2.6431,-2.6993,-2.7826,-2.8134,-2.8347,-2.8572,-2.8896,-2.8294,-2.6872,-2.6137,-2.5408,-2.4653,-2.4034,-2.3666,-2.3612,-2.3541,-2.3505,-2.3534,-2.3534,-2.3499,-2.3517,-2.3487,-2.3505,-2.3505,-2.3505,-2.3505,-2.3505,-2.3517,-2.3551,-2.3591,-2.3539,-2.3505,-2.3505,-2.3505,-2.3539,-2.3585,-2.3539,-2.3539,-2.3591,-2.3539,-2.3448,-2.3301,-2.3163,-2.3015,-2.2833,-2.2677,-2.2571,-2.2517,-2.2672,-2.2552,-2.2569,-2.2378,-2.2347,-2.2439,-2.3103,-2.3316,-2.3089,-2.3111,-2.302,-2.2871,-2.2664,-2.262,-2.2569,-2.2556,-2.2358,-2.2296,-2.1688,-2.1027,-2.0506,-2.1103,-2.1534,-2.192,-2.2449,-2.3463,-2.4698,-2.4659,-2.5098,-2.5741,-2.5363,-2.4252,-2.4401,-2.3977,-2.3725,-2.3837,-2.3991,-2.408,-2.3988,-2.3737,-2.3007,-2.233,-2.1828,-2.1122,-2.0214,-1.9843,-1.9906,-1.9986,-2.0087,-2.016,-2.0227,-2.0974,-2.1036,-3.0934,-3.2361,-3.3039,-3.359,-3.4144,-3.4496,-3.4394,-3.3921,-3.3055,-3.1868,-3.0377,-2.9039,-2.7845,-2.6866,-2.6474,-2.6514,-2.6889,-2.7148,-2.7382,-2.761,-2.8017,-2.7694,-2.6847,-2.6614,-2.6157,-2.5444,-2.5092,-2.4968,-2.4926,-2.4504,-2.4254,-2.4165,-2.3755,-2.3505,-2.3505,-2.3505,-2.3505,-2.3505,-2.3505,-2.3505,-2.3505,-2.3505,-2.3505,-2.3528,-2.3505,-2.3505,-2.3505,-2.3471,-2.3459,-2.3482,-2.3395,-2.3372,-2.3395,-2.3336,-2.3217,-2.3008,-2.2863,-2.266,-2.2477,-2.2722,-2.2859,-2.2897,-2.3338,-2.3338,-2.2933,-2.2767,-2.2721,-2.2778,-2.2914,-2.313,-2.3449,-2.3644,-2.3733,-2.3602,-2.3418,-2.3261,-2.3249,-2.3155,-2.3076,-2.2976,-2.2508,-2.1897,-2.1628,-2.2156,-2.2812,-2.3099,-2.4102,-2.5253,-2.6253,-2.6634,-2.7066,-2.776,-2.7134,-2.6143,-2.6152,-2.4456,-2.3458,-2.3587,-2.3714,-2.3881,-2.3894,-2.3971,-2.3443,-2.2845,-2.2282,-2.1669,-2.0833,-2.0038,-2.0045,-1.9892,-1.9987,-2.005,-2.0142,-2.0657,-2.067,-3.072,-3.1892,-3.2279,-3.2813,-3.3421,-3.36,-3.3792,-3.3853,-3.3059,-3.2282,-3.1404,-3.0046,-2.8807,-2.7729,-2.7131,-2.6637,-2.6328,-2.6521,-2.6725,-2.6956,-2.7336,-2.7335,-2.7013,-2.6879,-2.6601,-2.6069,-2.5793,-2.5712,-2.5654,-2.499,-2.4634,-2.458,-2.3839,-2.3418,-2.343,-2.3448,-2.343,-2.343,-2.343,-2.343,-2.343,-2.343,-2.3436,-2.343,-2.3436,-2.3471,-2.3505,-2.3448,-2.3401,-2.336,-2.3301,-2.3253,-2.3205,-2.3132,-2.2965,-2.2721,-2.2535,-2.2397,-2.2408,-2.2698,-2.2988,-2.3205,-2.3636,-2.3736,-2.3288,-2.3238,-2.3158,-2.3095,-2.3244,-2.3488,-2.3812,-2.4244,-2.4364,-2.4017,-2.3753,-2.3636,-2.3569,-2.3451,-2.335,-2.3286,-2.3062,-2.2719,-2.2594,-2.314,-2.3585,-2.3891,-2.5154,-2.6296,-2.7375,-2.7976,-2.8698,-2.9386,-2.8113,-2.712,-2.6466,-2.4861,-2.3723,-2.3705,-2.3424,-2.3591,-2.3774,-2.3929,-2.384,-2.3298,-2.2774,-2.2208,-2.1474,-2.0567,-2.0144,-1.9944,-1.9857,-1.9904,-2.0026,-2.0148,-2.0314,-3.0346,-3.0699,-3.1029,-3.1444,-3.179,-3.2046,-3.2225,-3.2498,-3.265,-3.2288,-3.1687,-3.1444,-3.017,-2.8738,-2.8301,-2.7592,-2.6568,-2.6563,-2.6656,-2.6791,-2.7069,-2.7276,-2.7309,-2.6898,-2.6686,-2.6578,-2.5913,-2.5659,-2.5764,-2.5123,-2.4729,-2.4481,-2.4008,-2.3749,-2.343,-2.366,-2.3519,-2.3572,-2.3625,-2.346,-2.3336,-2.3407,-2.3377,-2.3318,-2.3318,-2.3348,-2.3471,-2.3424,-2.3348,-2.3289,-2.3217,-2.3114,-2.2977,-2.2863,-2.2686,-2.248,-2.22,-2.228,-2.2599,-2.2654,-2.3029,-2.3418,-2.3595,-2.3726,-2.3597,-2.3531,-2.348,-2.3458,-2.3753,-2.4124,-2.4175,-2.4586,-2.4591,-2.3806,-2.3639,-2.3534,-2.3418,-2.3234,-2.308,-2.3081,-2.3091,-2.3399,-2.3669,-2.3836,-2.4098,-2.4556,-2.5355,-2.6468,-2.7777,-2.8288,-2.8852,-2.95,-2.8885,-2.7811,-2.6518,-2.5205,-2.4445,-2.3815,-2.337,-2.3218,-2.3422,-2.3555,-2.3586,-2.3174,-2.2987,-2.2433,-2.1885,-2.1058,-2.0619,-2.0385,-2.0156,-2.0164,-2.0465,-2.0684,-2.048,-3.0027,-3.0221,-3.0531,-3.0795,-3.1094,-3.1429,-3.175,-3.201,-3.2328,-3.235,-3.2087,-3.161,-3.0723,-2.9736,-2.9124,-2.8369,-2.7482,-2.7476,-2.7133,-2.6637,-2.6758,-2.6908,-2.6921,-2.689,-2.6939,-2.7046,-2.6946,-2.6941,-2.6852,-2.6278,-2.5961,-2.5877,-2.5639,-2.5503,-2.5397,-2.5489,-2.5503,-2.545,-2.5007,-2.4479,-2.3987,-2.393,-2.3684,-2.3221,-2.3168,-2.3193,-2.3229,-2.3205,-2.3151,-2.3095,-2.2977,-2.2825,-2.2615,-2.2473,-2.2268,-2.2022,-2.2232,-2.2311,-2.2459,-2.3165,-2.3706,-2.4026,-2.4427,-2.4443,-2.4074,-2.3975,-2.3955,-2.3848,-2.396,-2.4119,-2.4512,-2.463,-2.4615,-2.4446,-2.4286,-2.413,-2.3978,-2.3596,-2.3047,-2.2646,-2.27,-2.3093,-2.3745,-2.4073,-2.4517,-2.517,-2.6043,-2.7139,-2.8122,-2.8801,-2.958,-3.0299,-2.9304,-2.8408,-2.7445,-2.6303,-2.5299,-2.4421,-2.3736,-2.3023,-2.3132,-2.3242,-2.3242,-2.3322,-2.3121,-2.2747,-2.2173,-2.1668,-2.1232,-2.1134,-2.1157,-2.1241,-2.1402,-2.1306,-2.1098,-2.879,-2.8907,-2.9115,-2.9399,-2.9722,-3.0176,-3.0577,-3.0915,-3.1385,-3.1882,-3.2194,-3.1931,-3.145,-3.0959,-3.0495,-2.9742,-2.8837,-2.8792,-2.8254,-2.7361,-2.6933,-2.6789,-2.6606,-2.6691,-2.6888,-2.7099,-2.718,-2.7338,-2.7454,-2.6821,-2.6452,-2.642,-2.6435,-2.6382,-2.6435,-2.6417,-2.6435,-2.6312,-2.5652,-2.501,-2.4512,-2.4199,-2.3802,-2.3354,-2.3084,-2.2944,-2.2902,-2.2876,-2.285,-2.2812,-2.2638,-2.2395,-2.2186,-2.2013,-2.1893,-2.1967,-2.2118,-2.2355,-2.2828,-2.3604,-2.4236,-2.4509,-2.4923,-2.4987,-2.4589,-2.449,-2.4468,-2.4353,-2.4256,-2.4316,-2.4592,-2.4549,-2.4544,-2.4605,-2.4558,-2.4523,-2.4379,-2.3973,-2.3583,-2.3269,-2.3278,-2.3623,-2.4106,-2.4439,-2.4829,-2.5516,-2.6381,-2.7154,-2.8035,-2.8896,-2.9589,-2.9985,-2.9483,-2.886,-2.8536,-2.7459,-2.6202,-2.5167,-2.4201,-2.3381,-2.2933,-2.3005,-2.3033,-2.3614,-2.3651,-2.3368,-2.2846,-2.2303,-2.1881,-2.1989,-2.1944,-2.1771,-2.1675,-2.1863,-2.1744,-2.7033,-2.7029,-2.717,-2.7578,-2.7996,-2.8563,-2.9061,-2.9407,-2.9983,-3.104,-3.2092,-3.2256,-3.2272,-3.2289,-3.2102,-3.1377,-3.0397,-3.0179,-2.9727,-2.8878,-2.802,-2.7179,-2.6376,-2.6331,-2.6487,-2.6691,-2.6758,-2.6907,-2.7083,-2.6592,-2.6238,-2.6308,-2.661,-2.6566,-2.6844,-2.6584,-2.6914,-2.6914,-2.5969,-2.538,-2.505,-2.4348,-2.3773,-2.3582,-2.3042,-2.2681,-2.2538,-2.2368,-2.2368,-2.2477,-2.2184,-2.1926,-2.1766,-2.1541,-2.1761,-2.21,-2.1956,-2.2677,-2.3538,-2.3916,-2.4283,-2.4792,-2.4902,-2.4985,-2.4855,-2.4804,-2.4764,-2.4697,-2.4576,-2.4538,-2.4503,-2.4385,-2.4338,-2.4338,-2.4421,-2.4405,-2.4261,-2.4148,-2.3866,-2.3917,-2.4215,-2.4399,-2.4362,-2.4528,-2.4725,-2.5139,-2.5833,-2.637,-2.7004,-2.7816,-2.867,-2.8927,-2.8946,-2.8616,-2.8074,-2.7768,-2.6515,-2.5313,-2.444,-2.3704,-2.3038,-2.3049,-2.3358,-2.3902,-2.4219,-2.3913,-2.356,-2.3052,-2.2563,-2.2359,-2.2209,-2.1967,-2.215,-2.2516,-2.2476,-2.7003,-2.7029,-2.7144,-2.7372,-2.7685,-2.8116,-2.8503,-2.8897,-2.9448,-3.0545,-3.1729,-3.2066,-3.2422,-3.2853,-3.2893,-3.2366,-3.1677,-3.1498,-3.0807,-2.9789,-2.9409,-2.7829,-2.6241,-2.5885,-2.5995,-2.6208,-2.6314,-2.6435,-2.659,-2.6504,-2.6518,-2.6701,-2.7722,-2.8457,-2.8678,-2.904,-2.9506,-2.9316,-2.7977,-2.6838,-2.6047,-2.5274,-2.4254,-2.3076,-2.2891,-2.2538,-2.2055,-2.1627,-2.1627,-2.1957,-2.1794,-2.1569,-2.1499,-2.1698,-2.1886,-2.2066,-2.2692,-2.3205,-2.3662,-2.4112,-2.4503,-2.4643,-2.4726,-2.4675,-2.471,-2.4706,-2.469,-2.4645,-2.4564,-2.4518,-2.4477,-2.4359,-2.4281,-2.4302,-2.4317,-2.4169,-2.3763,-2.3533,-2.3374,-2.2819,-2.2854,-2.3227,-2.36,-2.3805,-2.3953,-2.441,-2.4874,-2.5345,-2.612,-2.6589,-2.7428,-2.8007,-2.81,-2.7836,-2.7556,-2.7453,-2.6733,-2.5424,-2.4593,-2.4005,-2.357,-2.3457,-2.3967,-2.4559,-2.474,-2.4561,-2.4304,-2.3927,-2.3434,-2.2765,-2.2918,-2.2938,-2.3317,-2.3649,-2.3349,-2.6925,-2.691,-2.6989,-2.7155,-2.7386,-2.7705,-2.8036,-2.8439,-2.9082,-3.0192,-3.1438,-3.1885,-3.2562,-3.3453,-3.3518,-3.3307,-3.2919,-3.287,-3.2093,-3.0788,-2.9821,-2.8171,-2.6506,-2.5872,-2.5754,-2.5936,-2.5974,-2.6083,-2.6226,-2.6349,-2.647,-2.6775,-2.7945,-2.8799,-2.9143,-2.9657,-3.0136,-3.0048,-2.8981,-2.785,-2.7181,-2.6074,-2.5122,-2.3948,-2.3473,-2.285,-2.2394,-2.2019,-2.1761,-2.1533,-2.1308,-2.1279,-2.147,-2.1702,-2.2037,-2.2394,-2.3137,-2.3557,-2.3898,-2.4286,-2.4456,-2.4487,-2.4482,-2.4467,-2.4467,-2.4462,-2.4421,-2.4421,-2.4354,-2.4297,-2.4276,-2.4213,-2.4177,-2.4156,-2.4172,-2.4045,-2.3728,-2.3754,-2.3498,-2.3177,-2.3193,-2.3412,-2.3821,-2.4013,-2.4231,-2.4441,-2.4689,-2.5074,-2.5491,-2.5798,-2.623,-2.6994,-2.7626,-2.76,-2.75,-2.7406,-2.7315,-2.6069,-2.4728,-2.4179,-2.3877,-2.376,-2.4272,-2.4758,-2.5077,-2.52,-2.4816,-2.4379,-2.3721,-2.3383,-2.3676,-2.3764,-2.3896,-2.4018,-2.3795,-2.6794,-2.6794,-2.6779,-2.6873,-2.7041,-2.7342,-2.768,-2.8012,-2.8685,-2.9864,-3.1149,-3.1742,-3.2611,-3.4009,-3.3871,-3.4002,-3.3995,-3.3874,-3.3056,-3.1551,-2.9895,-2.8036,-2.7066,-2.6183,-2.5872,-2.5856,-2.5735,-2.587,-2.6014,-2.6074,-2.615,-2.6522,-2.7267,-2.7932,-2.8476,-2.8765,-2.9203,-2.9431,-2.8767,-2.8084,-2.7538,-2.6469,-2.5519,-2.4898,-2.3779,-2.3229,-2.2941,-2.2695,-2.223,-2.1197,-2.1033,-2.1392,-2.1774,-2.1697,-2.2232,-2.3107,-2.3432,-2.3753,-2.4148,-2.4277,-2.4302,-2.4333,-2.4353,-2.4347,-2.4413,-2.4487,-2.4545,-2.4545,-2.4253,-2.4362,-2.434,-2.4228,-2.4303,-2.4379,-2.4273,-2.4289,-2.4355,-2.4279,-2.4197,-2.4252,-2.4618,-2.4824,-2.5083,-2.5341,-2.547,-2.4519,-2.4598,-2.4517,-2.4777,-2.5004,-2.5606,-2.6381,-2.7003,-2.7557,-2.7473,-2.7399,-2.7349,-2.6788,-2.5245,-2.4362,-2.3983,-2.3988,-2.443,-2.4911,-2.5598,-2.5575,-2.5056,-2.4543,-2.3954,-2.3581,-2.3579,-2.362,-2.37,-2.3827,-2.3749,-2.6794,-2.6794,-2.6794,-2.6873,-2.7029,-2.7192,-2.7458,-2.785,-2.8295,-2.9392,-3.0716,-3.1225,-3.2192,-3.3585,-3.3681,-3.3822,-3.3917,-3.3896,-3.3274,-3.1676,-2.9518,-2.8485,-2.7784,-2.6953,-2.6215,-2.5881,-2.5543,-2.5744,-2.6015,-2.5799,-2.5785,-2.6338,-2.661,-2.7054,-2.7387,-2.7957,-2.8321,-2.8428,-2.8079,-2.7798,-2.7423,-2.6598,-2.5687,-2.4902,-2.3626,-2.2878,-2.2608,-2.2478,-2.2282,-2.2102,-2.2163,-2.2293,-2.2412,-2.2711,-2.3072,-2.3405,-2.385,-2.4148,-2.4271,-2.4276,-2.4291,-2.4279,-2.4502,-2.4756,-2.4729,-2.4942,-2.5122,-2.522,-2.5197,-2.4955,-2.4851,-2.5091,-2.4881,-2.4768,-2.4858,-2.5008,-2.5092,-2.4526,-2.4355,-2.4472,-2.4383,-2.4234,-2.462,-2.4455,-2.4545,-2.4545,-2.4387,-2.4018,-2.4152,-2.4406,-2.5152,-2.6016,-2.6115,-2.6602,-2.6696,-2.6763,-2.698,-2.6873,-2.565,-2.4673,-2.4287,-2.4265,-2.4747,-2.5463,-2.6319,-2.6013,-2.5433,-2.4842,-2.4287,-2.3875,-2.343,-2.3377,-2.3388,-2.3551,-2.3764,-2.6794,-2.6794,-2.6794,-2.6832,-2.6884,-2.6989,-2.7196,-2.7463,-2.778,-2.8641,-2.972,-3.0192,-3.1224,-3.2578,-3.2917,-3.3249,-3.3505,-3.3183,-3.2563,-3.1397,-2.9719,-2.8656,-2.8182,-2.7631,-2.6999,-2.6435,-2.5958,-2.6003,-2.5938,-2.5604,-2.5345,-2.5683,-2.5917,-2.6234,-2.6558,-2.7019,-2.7416,-2.7798,-2.7883,-2.7753,-2.7464,-2.7076,-2.6224,-2.5191,-2.4082,-2.3452,-2.3448,-2.3335,-2.3275,-2.326,-2.3304,-2.3223,-2.2991,-2.32,-2.3454,-2.3839,-2.402,-2.4255,-2.4234,-2.4223,-2.4261,-2.4453,-2.4559,-2.4656,-2.4686,-2.4886,-2.4796,-2.4786,-2.4704,-2.465,-2.4355,-2.4297,-2.4268,-2.4022,-2.4225,-2.4457,-2.4704,-2.468,-2.4575,-2.4754,-2.4873,-2.4886,-2.481,-2.4437,-2.4504,-2.4934,-2.4446,-2.4112,-2.4268,-2.456,-2.5078,-2.5613,-2.5462,-2.5553,-2.5713,-2.5999,-2.6483,-2.6336,-2.5821,-2.5124,-2.4734,-2.4859,-2.5083,-2.5824,-2.6502,-2.6354,-2.5812,-2.521,-2.4437,-2.3796,-2.3325,-2.311,-2.3079,-2.3312,-2.3524,-2.6794,-2.6794,-2.6794,-2.6779,-2.6794,-2.6806,-2.6899,-2.7041,-2.7316,-2.801,-2.8701,-2.9118,-3.013,-3.1207,-3.1945,-3.2629,-3.2978,-3.2226,-3.1549,-3.1197,-2.9761,-2.8798,-2.8257,-2.8081,-2.7911,-2.7514,-2.6671,-2.6335,-2.6188,-2.5647,-2.5606,-2.539,-2.5131,-2.5575,-2.6041,-2.6034,-2.6197,-2.6654,-2.7294,-2.7583,-2.7565,-2.7422,-2.6841,-2.5616,-2.4932,-2.4395,-2.4266,-2.4174,-2.4204,-2.4281,-2.4281,-2.4035,-2.3738,-2.364,-2.3882,-2.4558,-2.4652,-2.4628,-2.4593,-2.4468,-2.4504,-2.4807,-2.4604,-2.4533,-2.4737,-2.4544,-2.436,-2.4258,-2.4233,-2.4137,-2.3448,-2.38,-2.3466,-2.3119,-2.3248,-2.3627,-2.4292,-2.5073,-2.514,-2.471,-2.4766,-2.4801,-2.5024,-2.4941,-2.5112,-2.5097,-2.4534,-2.4187,-2.425,-2.4558,-2.497,-2.5385,-2.5317,-2.5392,-2.5568,-2.5258,-2.5725,-2.5821,-2.5558,-2.5264,-2.495,-2.5179,-2.5391,-2.5936,-2.6356,-2.6332,-2.5883,-2.4976,-2.4249,-2.3579,-2.3045,-2.2664,-2.2755,-2.3044,-2.3271,-2.6794,-2.6794,-2.6794,-2.6794,-2.6794,-2.6794,-2.6873,-2.7029,-2.7196,-2.7691,-2.8412,-2.8666,-2.9256,-3.0164,-3.1147,-3.2175,-3.2536,-3.1671,-3.0927,-3.0642,-2.9418,-2.8497,-2.8435,-2.8412,-2.8506,-2.8255,-2.7438,-2.6977,-2.7029,-2.6669,-2.6274,-2.6536,-2.5762,-2.5455,-2.532,-2.4978,-2.488,-2.5347,-2.6196,-2.6683,-2.6877,-2.7179,-2.6933,-2.5706,-2.5324,-2.4948,-2.4502,-2.4364,-2.4281,-2.4297,-2.4234,-2.4453,-2.4701,-2.4872,-2.5179,-2.5481,-2.5439,-2.5221,-2.5153,-2.5159,-2.5078,-2.5037,-2.4891,-2.4912,-2.4843,-2.457,-2.4209,-2.4333,-2.4402,-2.4513,-2.4983,-2.4529,-2.4776,-2.4734,-2.4542,-2.4884,-2.5447,-2.5629,-2.5531,-2.4852,-2.4653,-2.4623,-2.4898,-2.4904,-2.4572,-2.4318,-2.3846,-2.3455,-2.3393,-2.3877,-2.4466,-2.4878,-2.5262,-2.542,-2.5601,-2.5047,-2.495,-2.5176,-2.5083,-2.495,-2.4848,-2.5259,-2.5681,-2.5949,-2.6425,-2.6714,-2.6015,-2.4959,-2.4299,-2.385,-2.3056,-2.2192,-2.2412,-2.2691,-2.3005,-2.6794,-2.6794,-2.6794,-2.6794,-2.6794,-2.6779,-2.6832,-2.6943,-2.7287,-2.7674,-2.7974,-2.8115,-2.8547,-2.9196,-2.9572,-3.0658,-3.1416,-3.0869,-3.0221,-2.9822,-2.8753,-2.8107,-2.821,-2.8323,-2.8468,-2.837,-2.7915,-2.7549,-2.7565,-2.6829,-2.6763,-2.6526,-2.5795,-2.5312,-2.5142,-2.4692,-2.4374,-2.4594,-2.5333,-2.6087,-2.6449,-2.7072,-2.6849,-2.6443,-2.5832,-2.5407,-2.515,-2.4925,-2.4918,-2.4911,-2.4903,-2.5251,-2.5614,-2.5848,-2.5909,-2.5886,-2.5653,-2.5364,-2.5143,-2.4912,-2.4622,-2.4699,-2.4559,-2.4356,-2.4175,-2.3852,-2.369,-2.3905,-2.4226,-2.4252,-2.4074,-2.425,-2.3966,-2.3723,-2.3924,-2.4416,-2.4773,-2.4951,-2.4936,-2.4917,-2.5231,-2.5204,-2.4881,-2.4629,-2.3991,-2.3523,-2.308,-2.2847,-2.264,-2.3291,-2.4022,-2.4896,-2.5333,-2.5241,-2.5219,-2.4597,-2.4246,-2.444,-2.4477,-2.4334,-2.467,-2.5048,-2.5293,-2.555,-2.6118,-2.7042,-2.6444,-2.5551,-2.4839,-2.4054,-2.3113,-2.2383,-2.2245,-2.2351,-2.2708,-2.6794,-2.6794,-2.6794,-2.6794,-2.6794,-2.6794,-2.6794,-2.6895,-2.7287,-2.7476,-2.7536,-2.7637,-2.7884,-2.8226,-2.8613,-2.9331,-3.0588,-2.9922,-2.9517,-2.9152,-2.8081,-2.7504,-2.7715,-2.788,-2.8063,-2.8284,-2.8216,-2.8119,-2.7829,-2.7311,-2.6956,-2.6864,-2.6157,-2.5733,-2.5703,-2.5287,-2.4825,-2.4933,-2.5395,-2.6072,-2.6765,-2.7249,-2.7394,-2.7122,-2.6386,-2.5798,-2.5388,-2.4919,-2.479,-2.4745,-2.4805,-2.51,-2.5878,-2.6071,-2.5952,-2.5692,-2.5365,-2.5183,-2.4927,-2.4626,-2.4611,-2.4719,-2.3946,-2.3825,-2.3688,-2.3454,-2.2901,-2.3195,-2.3509,-2.3799,-2.3561,-2.3259,-2.2979,-2.2781,-2.2948,-2.326,-2.4031,-2.4527,-2.4982,-2.5232,-2.5775,-2.5347,-2.4553,-2.3999,-2.3286,-2.2651,-2.2227,-2.2355,-2.2294,-2.2974,-2.3818,-2.4963,-2.5426,-2.5166,-2.4762,-2.3954,-2.3714,-2.3759,-2.3699,-2.3554,-2.4145,-2.476,-2.5048,-2.5446,-2.6641,-2.733,-2.6707,-2.6073,-2.5298,-2.4385,-2.3247,-2.2668,-2.2652,-2.245,-2.2497,-2.6794,-2.6794,-2.6794,-2.6794,-2.6794,-2.6794,-2.6794,-2.6808,-2.6939,-2.6895,-2.7072,-2.7341,-2.7315,-2.7241,-2.8188,-2.9181,-2.9643,-2.9379,-2.893,-2.8712,-2.7598,-2.7111,-2.7412,-2.7575,-2.7725,-2.794,-2.8005,-2.8162,-2.8054,-2.7979,-2.8081,-2.7849,-2.7303,-2.7088,-2.678,-2.6149,-2.6187,-2.6211,-2.6711,-2.7342,-2.7856,-2.7959,-2.764,-2.7034,-2.6424,-2.5815,-2.518,-2.4529,-2.3961,-2.3851,-2.3207,-2.3417,-2.4219,-2.4376,-2.4885,-2.5461,-2.5948,-2.6122,-2.5609,-2.5106,-2.4888,-2.4843,-2.4552,-2.4477,-2.3983,-2.3523,-2.3052,-2.3143,-2.3267,-2.3399,-2.3573,-2.3576,-2.3449,-2.3301,-2.322,-2.394,-2.4593,-2.4322,-2.4759,-2.5301,-2.5749,-2.461,-2.355,-2.3078,-2.2556,-2.1926,-2.1524,-2.1756,-2.2287,-2.3227,-2.3614,-2.4722,-2.5442,-2.5218,-2.4156,-2.3374,-2.3276,-2.3223,-2.2939,-2.285,-2.3611,-2.4306,-2.502,-2.5646,-2.6811,-2.7415,-2.6911,-2.628,-2.5637,-2.492,-2.4037,-2.3512,-2.318,-2.2915,-2.2576,-2.7174,-2.6794,-2.6794,-2.6794,-2.6794,-2.6794,-2.6794,-2.6866,-2.7171,-2.7263,-2.7297,-2.7776,-2.7551,-2.7111,-2.7826,-2.8369,-2.867,-2.8484,-2.8297,-2.8053,-2.7161,-2.663,-2.6841,-2.7023,-2.7229,-2.7458,-2.7509,-2.7509,-2.776,-2.8088,-2.8299,-2.8192,-2.7757,-2.7334,-2.7426,-2.6757,-2.6464,-2.6511,-2.6872,-2.7267,-2.7507,-2.7673,-2.755,-2.6951,-2.6491,-2.5994,-2.5343,-2.4577,-2.4257,-2.4287,-2.3926,-2.3984,-2.4654,-2.488,-2.5064,-2.5122,-2.537,-2.5398,-2.5217,-2.492,-2.4867,-2.4869,-2.4646,-2.4147,-2.3741,-2.3487,-2.3204,-2.3082,-2.3363,-2.356,-2.3607,-2.3539,-2.342,-2.339,-2.3449,-2.4142,-2.4675,-2.4525,-2.4621,-2.5172,-2.5547,-2.45,-2.3539,-2.3186,-2.2744,-2.2007,-2.1896,-2.2255,-2.3138,-2.4313,-2.4487,-2.4494,-2.5013,-2.5246,-2.3888,-2.2748,-2.2867,-2.2733,-2.2129,-2.2277,-2.3076,-2.3806,-2.4555,-2.5304,-2.6197,-2.6618,-2.6758,-2.6648,-2.6176,-2.5553,-2.4935,-2.4409,-2.3872,-2.3379,-2.3093,-2.7556,-2.6933,-2.6924,-2.6946,-2.6958,-2.6973,-2.6898,-2.6866,-2.7378,-2.7485,-2.7403,-2.758,-2.7413,-2.7216,-2.7511,-2.7921,-2.7849,-2.7805,-2.7805,-2.7412,-2.6778,-2.6317,-2.6472,-2.6616,-2.6774,-2.6993,-2.7034,-2.706,-2.7214,-2.7519,-2.786,-2.8057,-2.7804,-2.7663,-2.755,-2.7303,-2.7049,-2.6995,-2.7031,-2.7048,-2.6981,-2.7069,-2.692,-2.6611,-2.6295,-2.5974,-2.5549,-2.4641,-2.4423,-2.4436,-2.4041,-2.3919,-2.4463,-2.4448,-2.4526,-2.457,-2.4622,-2.4685,-2.4747,-2.4691,-2.4642,-2.4743,-2.4844,-2.4616,-2.4178,-2.3835,-2.3631,-2.3635,-2.3721,-2.3714,-2.3488,-2.336,-2.3397,-2.3412,-2.347,-2.4116,-2.4672,-2.4747,-2.4992,-2.5593,-2.5719,-2.5036,-2.4217,-2.3682,-2.3034,-2.2171,-2.2217,-2.2727,-2.3835,-2.513,-2.5202,-2.5021,-2.5335,-2.5383,-2.3989,-2.2928,-2.2827,-2.23,-2.1702,-2.1689,-2.2483,-2.3319,-2.4123,-2.4893,-2.5703,-2.6401,-2.6931,-2.6851,-2.675,-2.6356,-2.5909,-2.5114,-2.4534,-2.3968,-2.3548,-2.7809,-2.7347,-2.7286,-2.7336,-2.7459,-2.7432,-2.7223,-2.6958,-2.7357,-2.7273,-2.6906,-2.6516,-2.6792,-2.7018,-2.7594,-2.7874,-2.7818,-2.7805,-2.789,-2.7468,-2.6652,-2.6268,-2.6331,-2.6437,-2.6457,-2.6669,-2.6669,-2.6669,-2.6747,-2.6904,-2.7342,-2.772,-2.7794,-2.8061,-2.8106,-2.79,-2.7695,-2.75,-2.7305,-2.6992,-2.67,-2.6477,-2.6092,-2.5836,-2.5398,-2.502,-2.4836,-2.3976,-2.3581,-2.3687,-2.328,-2.3226,-2.377,-2.3855,-2.4019,-2.4164,-2.4242,-2.4394,-2.4658,-2.4818,-2.4953,-2.5123,-2.5328,-2.5475,-2.5218,-2.5268,-2.505,-2.449,-2.4341,-2.3959,-2.3596,-2.3346,-2.362,-2.3665,-2.386,-2.4463,-2.5005,-2.5275,-2.5569,-2.6072,-2.6009,-2.5561,-2.5222,-2.476,-2.368,-2.2812,-2.2926,-2.3407,-2.442,-2.5542,-2.5665,-2.5702,-2.5973,-2.5563,-2.4267,-2.3481,-2.2792,-2.2114,-2.1498,-2.149,-2.1861,-2.2703,-2.3426,-2.4605,-2.544,-2.6293,-2.6937,-2.6742,-2.6758,-2.7129,-2.6864,-2.5902,-2.4977,-2.4291,-2.3915,-2.7912,-2.7939,-2.7613,-2.7647,-2.7939,-2.8024,-2.7908,-2.7722,-2.7937,-2.8068,-2.7854,-2.7428,-2.744,-2.7888,-2.8141,-2.8338,-2.8338,-2.8382,-2.8324,-2.7931,-2.7215,-2.661,-2.6523,-2.6268,-2.6123,-2.6231,-2.6231,-2.6204,-2.6204,-2.6435,-2.6922,-2.7363,-2.7742,-2.7896,-2.8039,-2.8126,-2.7866,-2.7467,-2.7063,-2.6669,-2.6256,-2.5892,-2.5536,-2.5273,-2.509,-2.4736,-2.4414,-2.3668,-2.3539,-2.3496,-2.3171,-2.3311,-2.3589,-2.3813,-2.4034,-2.4227,-2.4341,-2.4679,-2.4888,-2.5016,-2.5096,-2.5823,-2.6051,-2.6123,-2.602,-2.5646,-2.5281,-2.4931,-2.4798,-2.4431,-2.3878,-2.3998,-2.4255,-2.418,-2.4406,-2.4908,-2.531,-2.5636,-2.5896,-2.6273,-2.6575,-2.6549,-2.6226,-2.5946,-2.4701,-2.3595,-2.3834,-2.4205,-2.5186,-2.5871,-2.6004,-2.6038,-2.627,-2.5734,-2.4477,-2.3543,-2.2688,-2.203,-2.143,-2.1574,-2.1787,-2.1713,-2.2554,-2.3876,-2.5024,-2.5607,-2.6086,-2.6384,-2.6618,-2.6822,-2.6806,-2.6477,-2.5572,-2.4516,-2.4059,-2.7564,-2.7808,-2.7637,-2.7786,-2.8102,-2.8279,-2.8166,-2.7966,-2.8194,-2.8306,-2.838,-2.79,-2.7971,-2.8366,-2.8619,-2.8661,-2.8633,-2.8647,-2.8661,-2.8183,-2.7467,-2.6891,-2.6596,-2.63,-2.5948,-2.5907,-2.5893,-2.5948,-2.5975,-2.6186,-2.673,-2.727,-2.7664,-2.7976,-2.8248,-2.8081,-2.775,-2.7326,-2.6826,-2.6455,-2.6104,-2.5734,-2.5356,-2.5126,-2.494,-2.4651,-2.429,-2.3817,-2.3759,-2.3874,-2.3871,-2.3862,-2.4175,-2.4481,-2.4666,-2.4765,-2.4906,-2.5231,-2.532,-2.5409,-2.56,-2.6453,-2.6581,-2.6521,-2.6281,-2.5934,-2.5746,-2.5363,-2.5228,-2.4929,-2.4343,-2.4462,-2.4725,-2.4707,-2.4883,-2.531,-2.5686,-2.6059,-2.6197,-2.6424,-2.6637,-2.6751,-2.6637,-2.6273,-2.5644,-2.4632,-2.4657,-2.5066,-2.5815,-2.6319,-2.6376,-2.6394,-2.6406,-2.5647,-2.4704,-2.4144,-2.3581,-2.2624,-2.2103,-2.1899,-2.194,-2.1801,-2.2231,-2.379,-2.4681,-2.4948,-2.5236,-2.5557,-2.5973,-2.6385,-2.6135,-2.5729,-2.5138,-2.4097,-2.3802,-2.6586,-2.6778,-2.7278,-2.7607,-2.7834,-2.8112,-2.7826,-2.7421,-2.7895,-2.7925,-2.7624,-2.7575,-2.7797,-2.8126,-2.8675,-2.883,-2.8844,-2.8802,-2.8802,-2.8521,-2.7762,-2.7074,-2.6764,-2.6497,-2.6301,-2.5978,-2.6132,-2.6245,-2.609,-2.6596,-2.7032,-2.7485,-2.8082,-2.8408,-2.8886,-2.8606,-2.8225,-2.7738,-2.7116,-2.6704,-2.6331,-2.594,-2.5506,-2.512,-2.4971,-2.4715,-2.421,-2.405,-2.4034,-2.4187,-2.4377,-2.4473,-2.4684,-2.4905,-2.5014,-2.5013,-2.4992,-2.529,-2.5775,-2.5977,-2.6404,-2.6863,-2.6827,-2.6777,-2.682,-2.6663,-2.6333,-2.5848,-2.5731,-2.5368,-2.5046,-2.4888,-2.5184,-2.5272,-2.5423,-2.5686,-2.6097,-2.6273,-2.6399,-2.6524,-2.6524,-2.6537,-2.6549,-2.6449,-2.6185,-2.5783,-2.5624,-2.5908,-2.6395,-2.6526,-2.6536,-2.6569,-2.6501,-2.6052,-2.5322,-2.5023,-2.4433,-2.3415,-2.2686,-2.2403,-2.2206,-2.2075,-2.2791,-2.396,-2.4361,-2.4624,-2.4668,-2.4728,-2.4765,-2.471,-2.4804,-2.4479,-2.4051,-2.3813,-2.3565,-2.6186,-2.6393,-2.6654,-2.6811,-2.6978,-2.7609,-2.7656,-2.7453,-2.7755,-2.7966,-2.812,-2.8281,-2.8619,-2.896,-2.9066,-2.922,-2.9234,-2.9293,-2.9293,-2.9122,-2.8294,-2.8169,-2.7832,-2.7326,-2.7088,-2.7158,-2.7172,-2.7088,-2.7229,-2.7369,-2.7749,-2.8233,-2.8617,-2.8838,-2.8555,-2.8226,-2.7866,-2.7398,-2.6879,-2.6482,-2.6197,-2.5949,-2.5615,-2.5123,-2.5097,-2.4805,-2.4295,-2.4282,-2.44,-2.4618,-2.4845,-2.4885,-2.5113,-2.5357,-2.5519,-2.5534,-2.5573,-2.6051,-2.6308,-2.6435,-2.6498,-2.6778,-2.6863,-2.6773,-2.6658,-2.6624,-2.6451,-2.635,-2.6168,-2.5799,-2.5485,-2.5774,-2.595,-2.5674,-2.5774,-2.6122,-2.6411,-2.6424,-2.6499,-2.6637,-2.6688,-2.6839,-2.6901,-2.6688,-2.6424,-2.6273,-2.6084,-2.6097,-2.6483,-2.6521,-2.6526,-2.6561,-2.6498,-2.626,-2.5926,-2.5563,-2.495,-2.3953,-2.318,-2.2642,-2.25,-2.2601,-2.305,-2.4053,-2.4177,-2.4304,-2.4098,-2.3794,-2.3042,-2.2818,-2.3378,-2.3853,-2.379,-2.3637,-2.3505,-2.5781,-2.5873,-2.5965,-2.6035,-2.6173,-2.6989,-2.7304,-2.7263,-2.7443,-2.7796,-2.8136,-2.839,-2.8725,-2.9089,-2.9257,-2.9257,-2.9257,-2.9257,-2.9212,-2.9174,-2.8666,-2.836,-2.8198,-2.8052,-2.7605,-2.779,-2.7819,-2.7763,-2.7707,-2.8002,-2.8394,-2.8853,-2.9285,-2.9038,-2.8621,-2.8284,-2.8011,-2.7591,-2.718,-2.6868,-2.6677,-2.6444,-2.619,-2.5842,-2.5594,-2.5384,-2.4896,-2.4736,-2.487,-2.5136,-2.5255,-2.5286,-2.5621,-2.5833,-2.603,-2.6118,-2.621,-2.653,-2.6552,-2.6505,-2.6539,-2.6611,-2.6611,-2.6589,-2.6521,-2.6521,-2.6521,-2.6461,-2.6512,-2.6336,-2.6122,-2.6487,-2.6361,-2.605,-2.6147,-2.6461,-2.6474,-2.6487,-2.6499,-2.665,-2.6713,-2.6939,-2.703,-2.6939,-2.6663,-2.6562,-2.6461,-2.6487,-2.6487,-2.6487,-2.6487,-2.6521,-2.6568,-2.6384,-2.6223,-2.6062,-2.5332,-2.4455,-2.3895,-2.3454,-2.3458,-2.3661,-2.3897,-2.3982,-2.4061,-2.397,-2.3393,-2.2884,-2.2545,-2.2497,-2.2844,-2.3228,-2.3486,-2.34,-2.3237,-2.5312,-2.5312,-2.5312,-2.5347,-2.5488,-2.6289,-2.6645,-2.6679,-2.685,-2.7129,-2.7471,-2.7796,-2.817,-2.849,-2.8587,-2.8573,-2.8541,-2.8554,-2.8541,-2.8483,-2.8153,-2.8132,-2.8129,-2.7919,-2.8047,-2.7985,-2.8044,-2.8283,-2.8002,-2.848,-2.8979,-2.9236,-2.9314,-2.9077,-2.8774,-2.8466,-2.8211,-2.7868,-2.7498,-2.7289,-2.7144,-2.7275,-2.6883,-2.6562,-2.6353,-2.6046,-2.572,-2.5532,-2.5649,-2.5784,-2.5917,-2.6031,-2.6187,-2.6367,-2.6454,-2.6487,-2.6474,-2.6521,-2.6521,-2.6487,-2.6487,-2.6521,-2.6521,-2.6487,-2.6487,-2.6499,-2.6562,-2.6637,-2.67,-2.6688,-2.6663,-2.665,-2.6625,-2.6512,-2.6449,-2.6524,-2.6487,-2.6487,-2.6487,-2.6524,-2.6537,-2.6637,-2.6663,-2.6612,-2.6688,-2.66,-2.6487,-2.6487,-2.6487,-2.6487,-2.6487,-2.6487,-2.6521,-2.6487,-2.6391,-2.6295,-2.5878,-2.5006,-2.5088,-2.4785,-2.4764,-2.4482,-2.4366,-2.4197,-2.4003,-2.3683,-2.3141,-2.2738,-2.2426,-2.2498,-2.2564,-2.2802,-2.3126,-2.2961,-2.2858,-2.5312,-2.5312,-2.5312,-2.5312,-2.5347,-2.5594,-2.5699,-2.5734,-2.5908,-2.6277,-2.6722,-2.6981,-2.7397,-2.7782,-2.7829,-2.7815,-2.7829,-2.7829,-2.7829,-2.7775,-2.7786,-2.805,-2.8243,-2.8314,-2.8643,-2.889,-2.8982,-2.8853,-2.901,-2.9277,-2.9243,-2.9387,-2.9226,-2.8972,-2.8697,-2.8373,-2.821,-2.8013,-2.7656,-2.7536,-2.7503,-2.7503,-2.7183,-2.6896,-2.6798,-2.6452,-2.608,-2.5936,-2.6022,-2.6239,-2.6148,-2.6189,-2.6544,-2.6514,-2.6487,-2.6487,-2.6487,-2.6487,-2.6487,-2.6487,-2.6487,-2.6487,-2.6487,-2.6487,-2.6487,-2.6537,-2.6663,-2.6716,-2.6781,-2.6734,-2.6797,-2.6809,-2.6781,-2.6681,-2.6581,-2.6477,-2.6452,-2.6452,-2.6452,-2.6383,-2.6383,-2.6418,-2.6452,-2.6499,-2.6575,-2.6512,-2.6487,-2.6487,-2.6487,-2.6487,-2.6487,-2.6487,-2.6487,-2.6487,-2.6487,-2.6417,-2.6093,-2.5732,-2.5711,-2.5573,-2.5159,-2.4827,-2.4627,-2.4443,-2.4221,-2.3646,-2.2907,-2.2684,-2.2737,-2.2253,-2.2254,-2.2512,-2.2661,-2.2592,-2.2602,-2.5312,-2.5312,-2.5312,-2.5312,-2.5312,-2.5312,-2.5312,-2.5347,-2.55,-2.5851,-2.6186,-2.6414,-2.671,-2.7015,-2.7048,-2.7048,-2.7048,-2.7061,-2.7061,-2.7129,-2.733,-2.7677,-2.8051,-2.8357,-2.8639,-2.9053,-2.9243,-2.9045,-2.9338,-2.9446,-2.9415,-2.9131,-2.9022,-2.8798,-2.8476,-2.8183,-2.8013,-2.7868,-2.7689,-2.7536,-2.7503,-2.7503,-2.7275,-2.7092,-2.7,-2.6752,-2.6485,-2.6387,-2.6525,-2.6679,-2.6519,-2.6447,-2.6667,-2.6589,-2.6487,-2.6487,-2.6487,-2.6487,-2.6487,-2.6487,-2.6487,-2.6487,-2.6487,-2.6487,-2.6465,-2.6455,-2.6524,-2.6614,-2.6704,-2.6746,-2.6881,-2.6955,-2.6866,-2.6776,-2.6599,-2.6408,-2.6396,-2.6396,-2.6361,-2.628,-2.6292,-2.6327,-2.6396,-2.6465,-2.6487,-2.6487,-2.6487,-2.6487,-2.6487,-2.6487,-2.6487,-2.6487,-2.6487,-2.6487,-2.6487,-2.6487,-2.6285,-2.6109,-2.6122,-2.5921,-2.5485,-2.5393,-2.535,-2.4949,-2.4475,-2.395,-2.3515,-2.3326,-2.3255,-2.2763,-2.2436,-2.2667,-2.2732,-2.2403,-2.2468,-2.5312,-2.5312,-2.5312,-2.5312,-2.5312,-2.5312,-2.5312,-2.5312,-2.5488,-2.5688,-2.5863,-2.6037,-2.6186,-2.6311,-2.6311,-2.6299,-2.6311,-2.6311,-2.6311,-2.6346,-2.662,-2.7015,-2.7384,-2.7762,-2.8059,-2.8398,-2.8638,-2.8739,-2.8912,-2.9117,-2.9194,-2.8812,-2.8798,-2.8624,-2.8314,-2.7941,-2.7789,-2.7723,-2.7623,-2.7503,-2.7503,-2.7503,-2.7503,-2.7464,-2.7438,-2.7398,-2.7378,-2.7351,-2.7289,-2.7121,-2.6952,-2.6688,-2.6611,-2.6533,-2.6452,-2.6418,-2.6383,-2.6349,-2.6349,-2.6349,-2.6361,-2.6396,-2.6465,-2.6396,-2.6292,-2.6305,-2.6395,-2.6337,-2.6366,-2.6287,-2.6336,-2.6359,-2.6333,-2.6524,-2.6592,-2.6731,-2.6995,-2.6716,-2.614,-2.6068,-2.5933,-2.6015,-2.6273,-2.6355,-2.6826,-2.6675,-2.6788,-2.6826,-2.6801,-2.6801,-2.6612,-2.66,-2.6499,-2.6499,-2.6487,-2.6487,-2.6487,-2.6424,-2.6399,-2.6348,-2.6034,-2.6047,-2.6147,-2.5506,-2.4808,-2.474,-2.445,-2.4085,-2.3745,-2.3568,-2.3278,-2.3105,-2.2869,-2.2525,-2.2326,-2.5312,-2.5312,-2.5312,-2.5312,-2.5312,-2.5312,-2.5312,-2.5312,-2.5347,-2.543,-2.5453,-2.5523,-2.5558,-2.5664,-2.5664,-2.5652,-2.5664,-2.5734,-2.5581,-2.5687,-2.5943,-2.6358,-2.6641,-2.7015,-2.7317,-2.7696,-2.796,-2.8189,-2.8527,-2.8862,-2.9035,-2.8812,-2.867,-2.8444,-2.8118,-2.7789,-2.759,-2.759,-2.757,-2.7503,-2.7503,-2.7503,-2.7503,-2.7503,-2.7503,-2.7503,-2.7469,-2.7369,-2.7214,-2.7045,-2.6829,-2.6658,-2.6568,-2.6361,-2.6305,-2.6236,-2.6084,-2.6002,-2.5933,-2.5886,-2.5886,-2.6027,-2.6074,-2.6062,-2.6097,-2.6166,-2.6103,-2.6043,-2.5913,-2.5789,-2.5701,-2.5706,-2.5792,-2.6166,-2.654,-2.6963,-2.7399,-2.6743,-2.5995,-2.5777,-2.5607,-2.5807,-2.6044,-2.6509,-2.6934,-2.7316,-2.7607,-2.7733,-2.7645,-2.7557,-2.7014,-2.6876,-2.6575,-2.6524,-2.6499,-2.6487,-2.6487,-2.6487,-2.6449,-2.6461,-2.6487,-2.6311,-2.6088,-2.5644,-2.5178,-2.5148,-2.4933,-2.4356,-2.4061,-2.4111,-2.3879,-2.3572,-2.3276,-2.2965,-2.2594,-2.5312,-2.5312,-2.5312,-2.5312,-2.5312,-2.5312,-2.5312,-2.5312,-2.5312,-2.5312,-2.5312,-2.5312,-2.5312,-2.5312,-2.5312,-2.5312,-2.5312,-2.5312,-2.5382,-2.5382,-2.5511,-2.5851,-2.6117,-2.6368,-2.6607,-2.6947,-2.7196,-2.753,-2.7973,-2.8379,-2.8476,-2.8379,-2.8295,-2.8229,-2.7934,-2.7656,-2.7503,-2.7503,-2.7503,-2.7503,-2.7503,-2.7503,-2.7503,-2.7503,-2.7503,-2.7503,-2.7403,-2.7302,-2.7113,-2.6943,-2.6773,-2.6602,-2.6465,-2.6327,-2.605,-2.5828,-2.5606,-2.5394,-2.5229,-2.5182,-2.5194,-2.5266,-2.5492,-2.5433,-2.5076,-2.5111,-2.5301,-2.5194,-2.4892,-2.474,-2.4641,-2.4599,-2.4952,-2.5325,-2.5577,-2.5923,-2.6153,-2.5973,-2.5421,-2.5075,-2.5183,-2.5611,-2.6039,-2.6758,-2.721,-2.767,-2.8047,-2.8172,-2.8185,-2.8273,-2.7695,-2.7228,-2.6964,-2.6637,-2.6499,-2.6487,-2.6487,-2.6487,-2.6487,-2.6487,-2.6461,-2.626,-2.5979,-2.5747,-2.5642,-2.5626,-2.5307,-2.4771,-2.4743,-2.4876,-2.4462,-2.3973,-2.3708,-2.3475,-2.328,-2.5253,-2.5241,-2.5241,-2.5276,-2.5312,-2.5276,-2.5241,-2.5218,-2.5218,-2.5135,-2.5099,-2.5135,-2.5206,-2.5312,-2.5312,-2.5312,-2.5312,-2.5312,-2.5312,-2.5227,-2.5417,-2.546,-2.5646,-2.5894,-2.6022,-2.6139,-2.6358,-2.6688,-2.7048,-2.7451,-2.7696,-2.7709,-2.7822,-2.7901,-2.7709,-2.759,-2.7503,-2.7503,-2.7503,-2.7503,-2.7503,-2.7503,-2.7503,-2.7503,-2.7503,-2.7503,-2.7403,-2.7201,-2.7058,-2.6875,-2.6705,-2.6568,-2.643,-2.6258,-2.5793,-2.55,-2.5123,-2.4719,-2.4347,-2.4342,-2.4305,-2.434,-2.4626,-2.4647,-2.4336,-2.437,-2.4574,-2.4464,-2.4158,-2.3756,-2.3668,-2.373,-2.4123,-2.4697,-2.494,-2.5157,-2.5286,-2.5304,-2.4933,-2.4578,-2.4894,-2.5373,-2.6129,-2.6876,-2.7549,-2.7998,-2.8273,-2.831,-2.8398,-2.8549,-2.8373,-2.7846,-2.7457,-2.7128,-2.6637,-2.6487,-2.6487,-2.6487,-2.6487,-2.6487,-2.6461,-2.6336,-2.6242,-2.6158,-2.6052,-2.594,-2.5791,-2.5381,-2.5457,-2.5452,-2.4888,-2.4324,-2.418,-2.3979,-2.4067,-2.4885,-2.4897,-2.504,-2.5218,-2.5276,-2.517,-2.5052,-2.4897,-2.4718,-2.455,-2.4502,-2.4634,-2.4873,-2.5276,-2.5312,-2.5312,-2.5312,-2.5312,-2.4952,-2.4747,-2.5238,-2.5093,-2.5033,-2.5333,-2.53,-2.5418,-2.5594,-2.5791,-2.623,-2.6561,-2.6799,-2.6913,-2.7263,-2.7377,-2.7423,-2.7369,-2.7436,-2.7436,-2.7423,-2.7423,-2.749,-2.749,-2.7503,-2.7503,-2.7503,-2.7436,-2.7302,-2.7113,-2.6943,-2.6773,-2.6624,-2.6521,-2.6396,-2.6154,-2.5641,-2.5052,-2.4683,-2.4143,-2.3799,-2.381,-2.3861,-2.3973,-2.4227,-2.4365,-2.4211,-2.4244,-2.4305,-2.4177,-2.3781,-2.3037,-2.2864,-2.2956,-2.3268,-2.4355,-2.4937,-2.5146,-2.5348,-2.5031,-2.4673,-2.4469,-2.4535,-2.527,-2.6202,-2.7054,-2.8063,-2.85,-2.9013,-2.9063,-2.9113,-2.9063,-2.8988,-2.8486,-2.7971,-2.7281,-2.6713,-2.6524,-2.6487,-2.6487,-2.6487,-2.6487,-2.6487,-2.6487,-2.6396,-2.6188,-2.6166,-2.6092,-2.593,-2.5713,-2.5672,-2.5569,-2.5101,-2.4675,-2.4537,-2.4582,-2.4707]},{"header":{"parameterUnit":"m.s-1","parameterCategory":1,"la1":31.0,"la2":29.5877,"lo1":-88.7671,"lo2":-86.6584,"dy":0.0162,"dx":0.0185,"nx":115,"ny":88,"refTime":"2026-05-04T12:00:00:Z","depth":0,"parameterNumber":3,"parameterNumberName":"V-component_of_WINDS"},"data":[0.0,0.0,0.0,0.0,0.0,0.0,0.0,0.0,0.0,0.0,0.0,0.0,0.0,0.0,0.0,0.0,0.0,0.0,0.0,0.0,0.0,0.0,0.0,0.0,0.0,0.0,0.0,0.0,0.0,0.0,0.0,0.0,0.0,0.0,0.0,0.0,0.0,0.0,0.0,0.0,0.0,0.0,0.0,0.0,0.0,0.0,0.0,0.0,0.0,0.0,0.0,0.0,0.0,0.0,0.0,0.0,0.0,0.0,0.0,0.0,0.0,0.0,0.0,0.0,0.0,0.0,0.0,0.0,0.0,0.0,0.0,0.0,0.0,0.0,0.0,0.0,0.0,0.0,0.0,0.0,0.0,0.0,0.0,0.0,0.0,0.0,0.0,0.0,0.0,0.0,0.0,0.0,0.0,0.0,0.0,0.0,0.0,0.0,0.0,0.0,0.0,0.0,0.0,0.0,0.0,0.0,0.0,0.0,0.0,0.0,0.0,0.0,0.0,0.0,0.0,0.0,0.0,0.0,0.0,0.0,0.0,0.0,0.0,0.0,0.0,0.0,0.0,0.0,0.0,0.0,0.0,0.0,0.0,0.0,0.0,0.0,0.0,0.0,0.0,0.0,0.0,0.0,0.0,0.0,0.0,0.0,0.0,0.0,0.0,0.0,0.0,0.0,0.0,0.0,0.0,0.0,0.0,0.0,0.0,0.0,0.0,0.0,0.0,0.0,0.0,0.0,0.0,0.0,0.0,0.0,0.0,0.0,0.0,0.0,0.0,0.0,0.0,0.0,0.0,0.0,0.0,0.0,0.0,0.0,0.0,0.0,0.0,0.0,0.0,0.0,0.0,0.0,0.0,0.0,0.0,0.0,0.0,0.0,0.0,0.0,0.0,0.0,0.0,0.0,0.0,0.0,0.0,0.0,0.0,0.0,0.0,0.0,0.0,0.0,0.0,0.0,0.0,0.0,0.0,0.0,0.0,0.0,0.0,0.0,0.0,0.0,0.0,0.0,0.0,0.0,0.0,0.0,0.0,0.0,0.0,0.0,0.0,0.0,0.0,0.0,0.0,0.0,0.0,0.0,0.0,0.0,0.0,0.0,0.0,0.0,0.0,0.0,0.0,0.0,0.0,0.0,0.0,0.0,0.0,0.0,0.0,0.0,0.0,0.0,0.0,0.0,0.0,0.0,0.0,0.0,0.0,0.0,0.0,0.0,0.0,0.0,0.0,0.0,0.0,0.0,0.0,0.0,0.0,0.0,0.0,0.0,0.0,0.0,0.0,0.0,0.0,0.0,0.0,0.0,0.0,0.0,0.0,0.0,0.0,0.0,0.0,0.0,0.0,0.0,0.0,0.0,0.0,0.0,0.0,0.0,0.0,0.0,0.0,0.0,0.0,0.0,0.0,0.0,0.0,0.0,0.0,0.0,0.0,0.0,0.0,0.0,0.0,0.0,0.0,0.0,0.0,0.0,0.0,0.0,0.0,0.0,0.0,0.0,0.0,0.0,0.0,0.0,0.0,0.0,0.0,0.0,0.0,0.0,0.0,0.0,0.0,0.0,0.0,0.0,0.0,0.0,0.0,0.0,0.0,0.0,0.0,0.0,0.0,0.0,0.0,0.0,0.0,0.0,0.0,0.0,0.0,0.0,0.0,0.0,0.0,0.0,0.0,0.0,0.0,0.0,0.0,0.0,0.0,0.0,0.0,0.0,0.0,0.0,0.0,0.0,0.0,0.0,0.0,0.0,0.0,0.0,0.0,0.0,0.0,0.0,0.0,0.0,0.0,0.0,0.0,0.0,0.0,0.0,0.0,0.0,0.0,0.0,0.0,0.0,0.0,0.0,0.0,0.0,0.0,0.0,0.0,0.0,0.0,0.0,0.0,0.0,0.0,0.0,0.0,0.0,0.0,0.0,0.0,0.0,0.0,0.0,0.0,0.0,0.0,0.0,0.0,0.0,0.0,0.0,0.0,0.0,0.0,0.0,0.0,0.0,0.0,0.0,0.0,0.0,0.0,0.0,0.0,0.0,0.0,0.0,0.0,0.0,0.0,0.0,0.0,0.0,0.0,0.0,0.0,0.0,0.0,0.0,0.0,0.0,0.0,0.0,0.0,0.0,0.0,0.0,0.0,0.0,0.0,0.0,0.0,0.0,0.0,0.0,0.0,0.0,0.0,0.0,0.0,0.0,0.0,0.0,0.0,0.0,0.0,0.0,0.0,0.0,0.0,0.0,0.0,0.0,0.0,0.0,0.0,0.0,0.0,0.0,0.0,0.0,0.0,0.0,0.0,0.0,0.0,0.0,0.0,0.0,0.0,0.0,0.0,0.0,0.0,0.0,0.0,0.0,0.0,0.0,0.0,0.0,0.0,0.0,0.0,0.0,0.0,0.0,0.0,0.0,0.0,0.0,0.0,0.0,0.0,0.0,0.0,0.0,0.0,0.0,0.0,0.0,0.0,0.0,0.0,0.0,0.0,0.0,0.0,0.0,0.0,0.0,0.0,0.0,0.0,0.0,0.0,0.0,0.0,0.0,0.0,0.0,0.0,0.0,0.0,0.0,0.0,0.0,0.0,0.0,0.0,0.0,0.0,0.0,0.0,0.0,0.0,0.0,0.0,0.0,0.0,0.0,0.0,0.0,0.0,0.0,0.0,0.0,0.0,0.0,0.0,0.0,0.0,0.0,0.0,0.0,0.0,0.0,0.0,0.0,0.0,0.0,0.0,0.0,0.0,0.0,0.0,0.0,0.0,0.0,0.0,0.0,0.0,0.0,0.0,0.0,0.0,0.0,0.0,0.0,0.0,0.0,0.0,0.0,0.0,0.0,0.0,0.0,0.0,0.0,0.0,0.0,0.0,0.0,0.0,0.0,0.0,0.0,0.0,0.0,0.0,0.0,0.0,0.0,0.0,0.0,0.0,0.0,0.0,0.0,0.0,0.0,0.0,0.0,0.0,0.0,0.0,0.0,0.0,0.0,0.0,0.0,0.0,0.0,0.0,0.0,0.0,0.0,0.0,0.0,0.0,0.0,0.0,0.0,0.0,0.0,0.0,0.0,0.0,0.0,0.0,0.0,0.0,0.0,0.0,0.0,0.0,0.0,0.0,0.0,0.0,0.0,0.0,0.0,0.0,0.0,0.0,0.0,0.0,0.0,0.0,0.0,0.0,0.0,0.0,0.0,0.0,0.0,0.0,0.0,0.0,0.0,0.0,0.0,0.0,0.0,0.0,0.0,0.0,0.0,0.0,0.0,0.0,0.0,0.0,0.0,0.0,0.0,0.0,0.0,0.0,0.0,0.0,0.0,0.0,0.0,0.0,0.0,0.0,0.0,0.0,0.0,0.0,0.0,0.0,0.0,0.0,0.0,0.0,0.0,0.0,0.0,0.0,0.0,0.0,0.0,0.0,0.0,0.0,0.0,0.0,0.0,0.0,0.0,0.0,0.0,0.0,0.0,0.0,0.0,0.0,0.0,0.0,0.0,0.0,0.0,0.0,0.0,0.0,0.0,0.0,0.0,0.0,0.0,0.0,0.0,0.0,0.0,0.0,0.0,0.0,0.0,0.0,0.0,0.0,0.0,0.0,0.0,0.0,0.0,0.0,0.0,0.0,0.0,0.0,0.0,0.0,0.0,0.0,0.0,0.0,0.0,0.0,0.0,0.0,0.0,0.0,0.0,0.0,0.0,0.0,0.0,0.0,0.0,0.0,0.0,0.0,0.0,0.0,0.0,0.0,0.0,0.0,0.0,0.0,0.0,0.0,0.0,0.0,0.0,0.0,0.0,0.0,0.0,0.0,0.0,0.0,0.0,0.0,0.0,0.0,0.0,0.0,0.0,0.0,0.0,0.0,0.0,0.0,0.0,0.0,0.0,0.0,0.0,0.0,0.0,0.0,0.0,0.0,0.0,0.0,0.0,0.0,0.0,0.0,0.0,0.0,0.0,0.0,0.0,0.0,0.0,0.0,0.0,0.0,0.0,0.0,0.0,0.0,0.0,0.0,0.0,0.0,0.0,0.0,0.0,0.0,0.0,0.0,0.0,0.0,0.0,0.0,0.0,0.0,0.0,0.0,0.0,0.0,0.0,0.0,0.0,0.0,0.0,0.0,0.0,0.0,0.0,0.0,0.0,0.0,0.0,0.0,0.0,0.0,0.0,0.0,0.0,0.0,0.0,0.0,0.0,0.0,0.0,0.0,0.0,0.0,0.0,0.0,0.0,0.0,0.0,0.0,0.0,0.0,0.0,0.0,0.0,0.0,0.0,0.0,0.0,0.0,0.0,2.3964,0.0,0.0,0.0,0.0,0.0,0.0,0.0,0.0,0.0,0.0,0.0,0.0,0.0,0.0,0.0,0.0,0.0,0.0,0.0,0.0,0.0,0.0,0.0,0.0,0.0,0.0,0.0,0.0,0.0,0.0,0.0,0.0,0.0,0.0,0.0,0.0,0.0,0.0,0.0,0.0,0.0,0.0,0.0,0.0,0.0,0.0,0.0,0.0,0.0,0.0,0.0,0.0,0.0,0.0,0.0,0.0,0.0,0.0,0.0,0.0,0.0,0.0,0.0,0.0,0.0,0.0,0.0,0.0,0.0,0.0,0.0,0.0,0.0,0.0,0.0,0.0,0.0,0.0,0.0,0.0,0.0,0.0,0.0,0.0,0.0,0.0,0.0,0.0,0.0,0.0,0.0,0.0,0.0,0.0,0.0,0.0,0.0,0.0,0.0,0.0,0.0,0.0,0.0,0.0,0.0,0.0,0.0,0.0,0.0,0.0,2.4237,2.4854,2.4271,2.4001,2.4095,0.0,0.0,0.0,0.0,0.0,0.0,0.0,0.0,0.0,0.0,0.0,0.0,0.0,0.0,0.0,0.0,0.0,0.0,0.0,0.0,0.0,0.0,0.0,0.0,0.0,0.0,0.0,0.0,0.0,0.0,0.0,0.0,0.0,0.0,0.0,0.0,0.0,0.0,0.0,0.0,0.0,0.0,0.0,0.0,0.0,0.0,0.0,0.0,0.0,0.0,0.0,0.0,0.0,0.0,0.0,0.0,0.0,0.0,0.0,0.0,0.0,0.0,0.0,0.0,0.0,0.0,0.0,0.0,0.0,0.0,0.0,0.0,0.0,0.0,0.0,0.0,0.0,0.0,0.0,0.0,0.0,0.0,0.0,0.0,0.0,0.0,0.0,0.0,0.0,0.0,0.0,0.0,0.0,0.0,0.0,0.0,0.0,0.0,0.0,0.0,0.0,0.0,0.0,0.0,0.0,0.0,0.0,0.0,0.0,0.0,0.0,0.0,2.4173,2.3852,2.3762,0.0,0.0,0.0,0.0,0.0,0.0,0.0,0.0,0.0,0.0,0.0,0.0,0.0,0.0,0.0,0.0,0.0,0.0,0.0,0.0,0.0,0.0,0.0,0.0,0.0,0.0,0.0,0.0,0.0,0.0,0.0,0.0,0.0,0.0,0.0,0.0,0.0,0.0,0.0,0.0,0.0,0.0,0.0,0.0,0.0,0.0,0.0,0.0,0.0,0.0,0.0,0.0,0.0,0.0,0.0,0.0,0.0,0.0,0.0,0.0,0.0,0.0,0.0,0.0,0.0,0.0,0.0,0.0,0.0,0.0,0.0,0.0,0.0,0.0,0.0,0.0,0.0,0.0,0.0,0.0,0.0,0.0,0.0,0.0,0.0,0.0,0.0,0.0,0.0,0.0,0.0,0.0,0.0,0.0,0.0,0.0,0.0,0.0,0.0,0.0,0.0,0.0,0.0,0.0,0.0,0.0,0.0,0.0,0.0,0.0,2.427,2.467,2.4267,0.0,2.2955,0.0,0.0,0.0,0.0,0.0,0.0,0.0,0.0,0.0,0.0,0.0,0.0,0.0,0.0,0.0,0.0,0.0,0.0,0.0,0.0,0.0,0.0,0.0,0.0,0.0,0.0,0.0,0.0,0.0,0.0,0.0,0.0,0.0,0.0,0.0,0.0,0.0,0.0,0.0,0.0,0.0,0.0,0.0,0.0,0.0,0.0,0.0,0.0,0.0,0.0,0.0,0.0,0.0,0.0,0.0,0.0,0.0,0.0,0.0,0.0,0.0,0.0,0.0,0.0,0.0,0.0,0.0,0.0,0.0,0.0,0.0,0.0,0.0,0.0,0.0,0.0,0.0,0.0,0.0,0.0,0.0,0.0,0.0,0.0,0.0,0.0,0.0,0.0,0.0,0.0,0.0,0.0,0.0,0.0,0.0,0.0,0.0,0.0,0.0,0.0,0.0,0.0,0.0,0.0,0.0,0.0,0.0,0.0,0.0,0.0,2.3846,2.3682,2.3003,2.2716,0.0,0.0,0.0,0.0,0.0,0.0,0.0,0.0,0.0,0.0,0.0,0.0,0.0,0.0,0.0,0.0,0.0,0.0,0.0,0.0,0.0,0.0,0.0,0.0,0.0,0.0,0.0,0.0,0.0,0.0,0.0,0.0,0.0,0.0,0.0,0.0,0.0,0.0,0.0,0.0,0.0,0.0,0.0,0.0,0.0,0.0,0.0,0.0,0.0,0.0,0.0,0.0,0.0,0.0,0.0,0.0,0.0,0.0,0.0,0.0,0.0,0.0,0.0,0.0,0.0,0.0,0.0,0.0,0.0,0.0,0.0,0.0,0.0,0.0,0.0,0.0,0.0,0.0,0.0,0.0,0.0,0.0,0.0,0.0,0.0,0.0,0.0,0.0,0.0,0.0,0.0,0.0,0.0,0.0,0.0,0.0,0.0,0.0,0.0,0.0,0.0,0.0,0.0,0.0,0.0,0.0,0.0,0.0,0.0,0.0,2.3666,2.3339,2.2906,2.2139,2.2077,2.2729,0.0,0.0,0.0,0.0,0.0,0.0,0.0,0.0,0.0,0.0,0.0,0.0,0.0,0.0,0.0,0.0,0.0,0.0,0.0,0.0,0.0,0.0,0.0,0.0,0.0,0.0,0.0,0.0,0.0,0.0,0.0,0.0,0.0,0.0,0.0,0.0,0.0,0.0,0.0,0.0,0.0,0.0,0.0,0.0,0.0,0.0,0.0,0.0,0.0,0.0,0.0,0.0,0.0,0.0,0.0,0.0,0.0,0.0,0.0,0.0,0.0,0.0,0.0,0.0,0.0,0.0,0.0,0.0,0.0,0.0,0.0,0.0,0.0,0.0,0.0,0.0,0.0,0.0,0.0,0.0,0.0,0.0,0.0,0.0,0.0,0.0,0.0,0.0,0.0,0.0,0.0,0.0,0.0,0.0,0.0,0.0,0.0,0.0,0.0,0.0,0.0,0.0,0.0,0.0,0.0,0.0,0.0,0.0,2.3017,2.2987,2.2864,2.2703,2.2287,2.2139,0.0,0.0,0.0,0.0,0.0,0.0,0.0,0.0,0.0,0.0,0.0,0.0,0.0,0.0,0.0,0.0,0.0,0.0,0.0,0.0,0.0,0.0,0.0,0.0,0.0,0.0,0.0,0.0,0.0,0.0,0.0,0.0,0.0,0.0,0.0,0.0,0.0,0.0,0.0,0.0,0.0,0.0,0.0,0.0,0.0,0.0,0.0,0.0,0.0,0.0,0.0,0.0,0.0,0.0,0.0,0.0,0.0,0.0,0.0,0.0,0.0,0.0,0.0,0.0,0.0,0.0,0.0,0.0,0.0,0.0,0.0,0.0,0.0,0.0,0.0,0.0,0.0,0.0,0.0,0.0,0.0,0.0,0.0,0.0,0.0,0.0,0.0,0.0,0.0,0.0,0.0,0.0,0.0,0.0,0.0,0.0,0.0,0.0,0.0,0.0,0.0,0.0,0.0,0.0,0.0,0.0,0.0,0.0,0.0,2.1645,2.2215,2.252,2.2506,2.2265,2.1828,0.0,0.0,0.0,0.0,0.0,0.0,0.0,0.0,0.0,0.0,0.0,0.0,0.0,0.0,0.0,0.0,0.0,0.0,0.0,0.0,0.0,0.0,0.0,0.0,0.0,0.0,0.0,0.0,0.0,0.0,0.0,0.0,0.0,0.0,0.0,0.0,0.0,0.0,0.0,0.0,0.0,0.0,0.0,0.0,0.0,0.0,0.0,0.0,0.0,0.0,0.0,0.0,0.0,0.0,0.0,0.0,0.0,0.0,0.0,0.0,0.0,0.0,0.0,0.0,0.0,0.0,0.0,0.0,0.0,0.0,0.0,0.0,0.0,0.0,0.0,0.0,0.0,0.0,0.0,0.0,0.0,0.0,0.0,0.0,0.0,0.0,0.0,0.0,0.0,0.0,0.0,0.0,0.0,0.0,0.0,0.0,0.0,0.0,0.0,0.0,0.0,0.0,0.0,0.0,0.0,0.0,0.0,0.0,0.0,2.0217,0.0,1.9835,1.8882,1.8411,1.7396,0.0,0.0,0.0,0.0,0.0,0.0,0.0,0.0,0.0,0.0,0.0,0.0,0.0,0.0,0.0,0.0,0.0,0.0,0.0,0.0,0.0,0.0,0.0,0.0,0.0,0.0,0.0,0.0,0.0,0.0,0.0,0.0,0.0,0.0,0.0,0.0,0.0,0.0,0.0,0.0,0.0,0.0,0.0,0.0,0.0,0.0,0.0,0.0,0.0,0.0,0.0,0.0,0.0,0.0,0.0,0.0,0.0,0.0,0.0,0.0,0.0,0.0,0.0,0.0,0.0,0.0,0.0,0.0,0.0,0.0,0.0,0.0,0.0,0.0,0.0,0.0,0.0,0.0,0.0,0.0,0.0,0.0,0.0,0.0,0.0,0.0,0.0,0.0,0.0,0.0,0.0,0.0,0.0,0.0,0.0,0.0,0.0,0.0,0.0,0.0,0.0,0.0,0.0,0.0,0.0,0.0,0.0,0.0,1.9158,1.873,1.7019,1.4877,1.1719,1.0985,0.8836,0.0,0.0,0.0,0.0,0.0,0.0,0.0,0.0,0.0,0.0,0.0,0.0,0.0,0.0,0.0,0.0,0.0,0.0,0.0,0.0,0.0,0.0,0.0,0.0,0.0,0.0,0.0,0.0,0.0,0.0,0.0,0.0,0.0,0.0,0.0,0.0,0.0,0.0,0.0,0.0,0.0,0.0,0.0,0.0,0.0,0.0,0.0,0.0,0.0,0.0,0.0,0.0,0.0,0.0,0.0,0.0,0.0,0.0,0.0,0.0,0.0,0.0,0.0,0.0,0.0,0.0,0.0,0.0,0.0,0.0,0.0,0.0,0.0,0.0,0.0,0.0,0.0,0.0,0.0,0.0,0.0,0.0,0.0,0.0,0.0,0.0,0.0,0.0,0.0,0.0,0.0,0.0,0.0,0.0,0.0,0.0,0.0,0.0,0.0,0.0,0.0,0.0,0.0,0.0,0.0,0.0,0.0,0.0,0.0,1.7119,1.5779,1.4171,1.2409,1.1845,1.0254,0.0,0.0,0.0,0.0,0.0,0.0,0.0,0.0,0.0,0.0,0.0,0.0,0.0,0.0,0.0,0.0,0.0,0.0,0.0,0.0,0.0,0.0,0.0,0.0,0.0,0.0,0.0,0.0,0.0,0.0,0.0,0.0,0.0,0.0,0.0,0.0,0.0,0.0,0.0,0.0,0.0,0.0,0.0,0.0,0.0,0.0,0.0,0.0,0.0,0.0,0.0,0.0,0.0,0.0,0.0,0.0,0.0,0.0,0.0,0.0,0.0,0.0,0.0,0.0,0.0,0.0,0.0,0.0,0.0,0.0,0.0,0.0,0.0,0.0,0.0,0.0,0.0,0.0,0.0,0.0,0.0,0.0,0.0,0.0,0.0,0.0,0.0,0.0,0.0,0.0,0.0,0.0,0.0,0.0,0.0,0.0,0.0,0.0,0.0,0.0,0.0,0.0,0.0,0.0,0.0,0.0,0.0,0.0,0.0,1.3156,1.2192,1.0746,0.8691,0.7745,0.5851,0.2955,0.0,0.0,0.0,0.0,0.0,0.0,0.0,0.0,0.0,0.0,0.0,0.0,0.0,0.0,0.0,0.0,0.0,0.0,0.0,0.0,0.0,0.0,0.0,0.0,0.0,0.0,0.0,0.0,0.0,0.0,0.0,0.0,0.0,0.0,0.0,0.0,0.0,0.0,0.0,0.0,0.0,0.0,0.0,0.0,0.0,0.0,0.0,0.0,0.0,0.0,0.0,0.0,0.0,0.0,0.0,0.0,0.0,0.0,0.0,0.0,0.0,0.0,0.0,0.0,0.0,0.0,0.0,0.0,0.0,0.0,0.0,0.0,0.0,0.0,0.0,0.0,0.0,0.0,0.0,0.0,0.0,0.0,0.0,0.0,0.0,0.0,0.0,0.0,0.0,0.0,0.0,0.0,0.0,0.0,0.0,0.0,0.0,0.0,0.0,0.0,0.0,0.0,0.0,0.0,0.0,0.0,0.0,0.0,0.7533,0.6947,0.5208,0.2033,0.0,-0.2805,0.0,0.0,0.0,0.0,0.0,0.0,0.0,0.0,0.0,0.0,0.0,0.0,0.0,0.0,0.0,0.0,0.0,0.0,0.0,0.0,0.0,0.0,0.0,0.0,0.0,0.0,0.0,0.0,0.0,0.0,0.0,0.0,0.0,0.0,0.0,0.0,0.0,0.0,0.0,0.0,0.0,0.0,0.0,0.0,0.0,0.0,0.0,0.0,0.0,0.0,0.0,0.0,0.0,0.0,0.0,0.0,0.0,0.0,0.0,0.0,0.0,0.0,0.0,0.0,0.0,0.0,0.0,0.0,0.0,0.0,0.0,0.0,0.0,0.0,0.0,0.0,0.0,0.0,0.0,0.0,0.0,0.0,0.0,0.0,0.0,0.0,0.0,0.0,0.0,0.0,0.0,0.0,0.0,0.0,0.0,0.0,0.0,0.0,0.0,0.0,0.0,0.0,0.0,0.0,0.0,0.0,0.0,0.0,0.0,0.7323,0.5196,0.3429,0.1891,0.033,-0.1496,0.0,0.0,0.0,0.0,0.0,0.0,0.0,0.0,0.0,0.0,0.0,0.0,0.0,0.0,0.0,0.0,0.0,0.0,0.0,0.0,0.0,0.0,0.0,0.0,0.0,0.0,0.0,0.0,0.0,0.0,0.0,0.0,0.0,0.0,0.0,0.0,0.0,0.0,0.0,0.0,0.0,0.0,0.0,0.0,0.0,0.0,0.0,0.0,0.0,0.0,0.0,0.0,0.0,0.0,0.0,0.0,0.0,0.0,0.0,0.0,0.0,0.0,0.0,0.0,0.0,0.0,0.0,0.0,0.0,0.0,0.0,0.0,0.0,0.0,0.0,0.0,0.0,0.0,0.0,0.0,0.0,0.0,0.0,0.0,0.0,0.0,0.0,0.0,0.0,0.0,0.0,0.0,0.0,0.0,0.0,0.0,0.0,0.0,0.0,0.0,0.0,0.0,0.0,0.0,0.0,0.0,0.0,0.0,1.1589,0.5535,0.3664,0.2313,0.1442,0.0302,-0.102,0.0,0.0,0.0,0.0,0.0,0.0,0.0,0.0,0.0,0.0,0.0,0.0,0.0,0.0,0.0,0.0,0.0,0.0,0.0,0.0,0.0,0.0,0.0,0.0,0.0,0.0,0.0,0.0,0.0,0.0,0.0,0.0,0.0,0.0,0.0,0.0,0.0,0.0,0.0,0.0,0.0,0.0,0.0,0.0,0.0,0.0,0.0,0.0,0.0,0.0,0.0,0.0,0.0,0.0,0.0,0.0,0.0,0.0,0.0,0.0,0.0,0.0,0.0,0.0,0.0,0.0,0.0,0.0,0.0,0.0,0.0,0.0,0.0,0.0,0.0,0.0,0.0,0.0,0.0,0.0,0.0,0.0,0.0,0.0,0.0,0.0,0.0,0.0,0.0,0.0,0.0,0.0,0.0,0.0,0.0,0.0,0.0,0.0,0.0,0.0,0.0,0.0,0.0,0.0,0.0,0.0,0.0,0.0,1.0529,0.3387,0.245,0.1611,0.0773,-0.0067,-0.1077,0.0,0.0,0.0,0.0,0.0,0.0,0.0,0.0,0.0,0.0,0.0,0.0,0.0,0.0,0.0,0.0,0.0,0.0,0.0,0.0,0.0,0.0,0.0,0.0,0.0,0.0,0.0,0.0,0.0,0.0,0.0,0.0,0.0,0.0,0.0,0.0,0.0,0.0,0.0,0.0,0.0,0.0,0.0,0.0,0.0,0.0,0.0,0.0,0.0,0.0,0.0,0.0,0.0,0.0,0.0,0.0,0.0,0.0,0.0,0.0,0.0,0.0,0.0,0.0,0.0,0.0,0.0,0.0,0.0,0.0,0.0,0.0,0.0,0.0,0.0,0.0,0.0,0.0,0.0,0.0,0.0,0.0,0.0,0.0,0.0,0.0,0.0,0.0,0.0,0.0,0.0,0.0,0.0,0.0,0.0,0.0,0.0,0.0,0.0,0.0,0.0,0.0,0.0,0.0,0.0,0.0,0.0,0.0,0.944,0.3249,0.215,0.1311,0.0437,-0.0329,-0.1227,0.0,0.0,0.0,0.0,0.0,0.0,0.0,0.0,0.0,0.0,0.0,0.0,0.0,0.0,0.0,0.0,0.0,0.0,0.0,0.0,0.0,0.0,0.0,0.0,0.0,0.0,0.0,0.0,0.0,0.0,0.0,0.0,0.0,0.0,0.0,0.0,0.0,0.0,0.0,0.0,0.0,0.0,0.0,0.0,0.0,0.0,0.0,0.0,-0.355,0.0,0.0,0.0,0.0,0.0,0.0,0.0,0.0,0.0,0.0,0.0,0.0,0.0,0.0,0.0,0.0,0.0,0.0,0.0,0.0,0.0,0.0,0.0,0.0,0.0,0.0,0.0,0.0,0.0,0.0,0.0,0.0,0.0,0.0,0.0,0.0,0.0,0.0,0.0,0.0,0.0,0.0,0.0,0.0,0.0,0.0,0.0,0.0,0.0,0.0,0.0,0.0,0.0,0.0,0.0,0.0,0.0,0.0,0.0,0.8086,0.3049,0.1882,0.0974,0.0168,-0.0556,-0.1406,0.0,0.0,0.0,0.0,0.0,0.0,0.0,0.0,0.0,0.0,0.0,0.0,0.0,0.0,0.0,0.0,0.0,0.0,0.0,0.0,0.0,0.0,0.0,0.0,0.0,0.0,0.0,0.0,0.0,0.0,0.0,0.0,0.0,0.0,0.0,0.0,0.0,0.0,0.0,0.0,0.0,0.0,0.0,0.0,0.0,0.0,0.0,0.0,0.0,0.0,0.0,0.0,0.0,0.0,0.0,0.0,0.0,0.0,0.0,0.0,0.0,0.0,0.0,0.0,0.0,0.0,0.0,0.0,0.0,0.0,0.0,0.0,0.0,0.0,0.0,0.0,0.0,0.0,0.0,0.0,0.0,0.0,0.0,0.0,0.0,0.0,0.0,0.0,0.0,0.0,0.0,0.0,0.0,0.0,0.0,0.0,0.0,0.0,0.0,0.0,0.0,0.0,0.0,0.0,0.0,0.0,0.0,0.8937,0.671,0.2778,0.1545,0.0605,-0.0134,-0.0886,-0.1758,-0.2787,0.0,0.0,0.0,0.0,0.0,0.0,0.0,0.0,0.0,0.0,0.0,0.0,0.0,0.0,0.0,0.0,0.0,0.0,0.0,0.0,0.0,0.0,0.0,0.0,0.0,0.0,0.0,0.0,0.0,0.0,0.0,0.0,0.0,0.0,0.0,0.0,0.0,0.0,0.7535,0.4693,0.0,0.0,0.0,0.0,0.0,0.0,0.0,0.0,-0.2893,0.0,0.0,0.0,0.0,0.0,0.0,0.0,0.0,0.0,0.0,0.0,0.0,0.0,0.0,0.0,0.0,0.0,0.0,0.0,0.0,0.0,0.0,0.0,0.0,0.0,0.0,0.0,0.0,0.0,0.0,0.0,0.0,0.0,0.0,0.0,0.0,0.0,0.0,0.0,0.0,0.0,0.0,0.0,0.0,0.0,0.0,0.0,0.0,0.0,0.0,0.0,0.0,0.0,0.0,0.0,0.0,0.7994,0.7536,0.565,0.228,0.1041,0.0,-0.0873,-0.1607,-0.2599,-0.379,0.0,0.0,0.0,0.0,0.0,0.0,0.0,0.0,0.0,0.0,0.0,0.0,0.0,0.0,0.0,0.0,0.0,0.0,0.0,0.0,0.0,0.0,0.0,0.0,0.0,0.0,0.0,0.0,0.0,0.0,0.0,0.0,0.0,0.0,0.0,0.0,0.0,0.0,0.0,0.41,0.2857,0.0,0.0,0.0,0.0,0.0,0.0,0.0,0.0,-0.3511,0.0,0.0,0.0,0.0,0.0,0.0,0.0,0.0,0.0,0.0,0.0,0.0,0.0,0.0,0.0,0.0,0.0,0.0,0.0,0.0,0.0,0.0,0.0,0.0,0.0,0.0,0.0,0.0,0.0,0.0,0.0,0.0,0.0,0.0,0.0,0.0,0.0,0.0,0.0,0.0,0.0,0.0,0.0,0.0,0.0,0.0,0.0,0.0,0.0,0.0,0.0,0.0,0.0,0.0,0.0,0.6889,0.5817,0.4208,0.2044,0.0503,-0.0672,-0.1479,-0.2418,-0.3465,0.0,0.0,0.0,0.0,0.0,0.0,0.0,0.0,0.0,0.0,0.0,0.0,0.0,0.0,0.0,0.0,0.0,0.0,0.0,0.0,0.0,0.0,0.0,0.0,0.0,0.0,0.0,0.0,0.0,0.0,0.0,0.0,0.0,0.0,0.0,0.0,0.0,0.0,0.0,0.0,0.371,0.3079,0.249,0.0,0.0,0.0,0.0,0.0,0.0,-0.2446,-0.3199,0.0,0.0,0.0,0.0,0.0,0.0,0.0,0.0,0.0,0.0,0.0,0.0,0.0,0.0,0.0,0.0,0.0,0.0,0.0,0.0,0.0,0.0,0.0,0.0,0.0,0.0,0.0,0.0,0.0,0.0,0.0,0.0,0.0,0.0,0.0,0.0,0.0,0.0,0.0,0.0,0.0,0.0,0.0,0.0,0.0,0.0,0.0,0.0,0.0,0.0,0.0,0.0,0.0,0.0,0.0,0.6071,0.4607,0.3245,0.1977,0.0268,-0.1041,-0.1816,-0.2837,-0.3952,0.0,0.0,0.0,0.0,0.0,0.0,0.0,0.0,0.0,0.0,0.0,0.0,0.0,0.0,0.0,0.0,0.0,0.0,0.0,0.0,0.0,0.0,0.0,0.0,0.0,0.0,0.0,0.0,0.0,0.0,0.0,0.0,0.0,0.0,0.0,0.0,0.0,0.0,0.0,0.0,0.0,0.3236,0.294,0.2219,0.0,0.0,0.0,0.0,-0.1143,-0.2152,0.0,0.0,0.0,0.0,0.0,0.0,0.0,0.0,0.0,0.0,0.0,0.0,0.0,0.0,0.0,0.0,0.0,0.0,0.0,0.0,0.0,0.0,0.0,0.0,0.0,0.0,0.0,0.0,0.0,0.0,0.0,0.0,0.0,0.0,0.0,0.0,0.0,0.0,0.0,0.0,0.0,0.0,0.0,0.0,0.0,0.0,0.0,0.0,0.0,0.0,0.0,0.0,0.0,0.0,0.0,0.0,0.6108,0.4975,0.3747,0.2348,0.0739,-0.0571,-0.1613,-0.246,-0.3485,0.0,0.0,0.0,0.0,0.0,0.0,0.0,0.0,0.0,0.0,0.0,0.0,0.0,0.0,0.0,0.0,0.0,0.0,0.0,0.0,0.0,0.0,0.0,0.0,0.0,0.0,0.0,0.0,0.0,0.0,0.0,0.0,0.0,0.0,0.0,0.0,0.0,0.0,0.0,0.0,0.0,0.326,0.2947,0.2254,0.1695,0.0,0.0,-0.0347,-0.1021,-0.1933,0.0,0.0,0.0,0.0,0.0,0.0,0.0,0.0,0.0,0.0,0.0,0.0,0.0,0.0,0.0,0.0,0.0,0.0,0.0,0.0,0.0,0.0,0.0,0.0,0.0,0.0,0.0,0.0,0.0,0.0,0.0,0.0,0.0,0.0,0.0,0.0,0.0,0.0,0.0,0.0,0.0,0.0,0.0,0.0,0.0,0.0,0.0,0.0,0.0,0.0,0.0,0.0,0.0,0.0,0.0,0.6933,0.628,0.5209,0.4082,0.2848,0.1274,0.0,-0.0952,-0.2037,-0.3181,0.0,0.0,0.0,0.0,0.0,0.0,0.0,0.0,0.0,0.0,0.0,0.0,0.0,0.0,0.0,0.0,0.0,0.0,0.0,0.0,0.0,0.0,0.0,0.0,0.0,0.0,0.0,0.0,0.0,0.0,0.0,0.0,0.0,0.0,0.0,0.0,0.0,0.0,0.0,0.0,0.0,0.0,0.3007,0.2271,0.0,0.0,0.0,0.0107,-0.0564,0.0,0.0,0.0,0.0,0.0,0.0,0.0,0.0,0.0,0.0,0.0,0.0,0.0,0.0,0.0,0.0,0.0,0.0,0.0,0.0,0.0,0.0,0.0,0.0,0.0,0.0,0.0,0.0,0.0,0.0,0.0,0.0,0.0,0.0,0.0,0.0,0.0,0.0,0.0,0.0,0.0,0.0,0.0,0.0,0.0,0.0,0.0,0.0,0.0,0.0,0.0,0.0,0.0,0.0,0.0,0.0,0.0,0.6478,0.5448,0.4447,0.3485,0.1942,0.0694,-0.0161,-0.1403,0.0,0.0,0.0,0.0,0.0,0.0,0.0,0.0,0.0,0.0,0.0,0.0,0.0,0.0,0.0,0.0,0.0,0.0,0.0,0.0,0.0,0.0,0.0,0.0,0.0,0.0,0.0,0.0857,0.0,0.0,0.0,0.0,0.0,0.0,0.0,0.0,0.0,0.0,0.0,0.0,0.0,0.0,0.338,0.3138,0.2461,0.1932,0.0,0.0,0.0429,-0.0107,-0.0808,-0.1353,0.0,0.0,0.0,0.0,0.0,0.0,0.0,0.0,0.0,0.0,0.0,0.0,0.0,0.0,0.0,0.0,0.0,0.0,0.0,0.0,0.0,0.0,0.0,0.0,0.0,0.0,0.0,0.0,0.0,0.0,0.0,0.0,0.0,0.0,0.0,0.0,0.0,0.0,0.0,0.0,0.0,0.0,0.0,0.0,0.0,0.0,0.0,0.0,0.0,0.0,0.0,0.0,0.0,0.0,0.7003,0.6662,0.5741,0.4945,0.422,0.2781,0.1589,0.0741,-0.0344,-0.1489,0.0,0.0,0.0,0.0,0.0,0.0,0.0,0.0,0.0,0.0,0.0,0.0,0.0,0.0,0.0,0.0,0.0,0.0,0.0,0.0,0.0,0.0,0.0,0.0,0.0,0.0,0.0,0.0,0.0,0.0,0.0,0.0,0.0,0.0,0.0,0.0,0.0,0.0,0.0,0.0,0.0,0.3684,0.3423,0.2861,0.2393,0.0,0.1377,0.0608,0.0068,-0.0642,-0.1214,-0.1551,0.0,0.0,0.0,0.0,0.0,0.0,0.0,0.0,0.0,0.0,0.0,0.0,0.0,0.0,0.0,0.0,0.0,0.0,0.0,0.0,0.0,0.0,0.0,0.0,0.0,0.0,0.0,0.0,0.0,0.0,0.0,0.0,0.0,0.0,0.0,0.0,0.0,0.0,0.0,0.0,0.0,0.0,0.0,0.0,0.0,0.0,0.0,0.0,0.0,0.0,0.0,0.0,0.0,0.6697,0.6704,0.6017,0.5385,0.4788,0.3787,0.2727,0.1631,0.065,-0.0451,0.0,0.0,0.0,0.0,0.0,0.0,0.0,0.0,0.0,0.0,0.0,0.0,0.0,0.0,0.0,0.0,0.0,0.0,0.0,0.0,0.0,0.0,0.0,0.0,0.0,0.0,0.0,0.0,0.2234,0.2741,0.3531,0.0,0.0,0.0,0.0,0.0,0.0,0.0,0.0,0.0,0.0,0.4035,0.369,0.3319,0.0,0.0,0.1793,0.1151,0.0574,-0.0102,-0.0651,-0.0876,-0.121,0.0,0.0,0.0,0.0,0.0,0.0,0.0,0.0,0.0,0.0,0.0,0.0,0.0,0.0,0.0,0.0,0.0,0.0,0.0,0.0,0.0,0.0,0.0,0.0,0.0,0.0,0.0,0.0,0.0,0.0,0.0,0.0,0.0,0.0,0.0,0.0,0.0,0.0,0.0,0.0,0.0,0.0,0.0,0.0,0.0,0.0,0.0,0.0,0.0,0.0,0.0,0.0,0.6498,0.6704,0.6134,0.5618,0.5193,0.4401,0.3453,0.2407,0.1426,0.0414,0.0,0.0,0.0,0.0,0.0,0.0,0.0,0.0,0.0,0.0,0.0,0.0,0.0,0.0,0.0,0.0,0.0,0.0,0.0,0.0,0.0,0.0,0.0,0.0,0.0,0.0,0.0,0.0,0.3075,0.3919,0.4904,0.0,0.0,0.0,0.0,0.0,0.0,0.0,0.0,0.0,0.0,0.4383,0.4077,0.379,0.3422,0.2944,0.2317,0.1719,0.1149,0.0444,-0.0137,-0.0472,0.0,0.0,0.0,0.0,0.0,0.0,0.0,0.0,0.0,0.0,0.0,0.0,0.0,0.0,0.0,0.0,0.0,0.0,0.0,0.0,0.0,0.0,0.0,0.0,0.0,0.0,0.0,1.0586,0.0,0.0,1.0555,0.0,0.0,0.0,0.0,0.0,0.0,0.0,0.0,0.0,0.0,0.0,0.0,0.0,0.0,0.0,0.0,0.0,0.0,0.0,0.0,0.0,0.0,0.6498,0.6662,0.6049,0.5618,0.5364,0.4408,0.3648,0.3064,0.2058,0.1012,0.0,0.0,0.0,0.0,0.0,0.0,0.0,0.0,0.0,0.0,0.0,0.0,0.0,0.0,0.0,0.0,0.0,0.0,0.0,0.0,0.0,0.0,0.0,0.0,0.0,0.0,0.0,0.2826,0.4094,0.5257,0.0,0.0,0.0,0.0,0.0,0.0,0.0,0.0,0.0,0.5375,0.5033,0.4734,0.4631,0.4233,0.394,0.3799,0.2993,0.2221,0.1681,0.0875,0.0101,0.0,0.0,0.0,0.0,0.0,0.0,0.0,0.0,0.0,0.0,0.0,0.0,0.0,0.0,0.0,0.0,0.0,0.0,0.0,0.0,0.0,0.0,0.0,0.0,0.0,0.0,0.0,1.0586,1.0586,0.0,0.0,0.0,0.0,0.0,0.0,0.0,0.0,0.0,0.0,0.0,1.0298,1.0298,0.0,0.0,0.0,0.0,0.0,0.0,0.0,0.0,0.0,0.0,0.0,0.0,0.6186,0.6345,0.5923,0.5524,0.5201,0.466,0.3999,0.3263,0.2702,0.1618,-0.0084,0.0,0.0,0.0,0.0,0.0,0.0,0.0,0.0,0.0,0.0,0.0,0.0,0.0,0.0,0.0,0.0,0.0,0.0,0.0,0.0,0.0,0.0,0.0,0.0,0.0,0.3529,0.0,0.0,0.0,0.0,0.0,0.0,0.0,0.0,0.0,0.0,0.6262,0.5992,0.5947,0.5587,0.5289,0.516,0.4927,0.4592,0.0,0.0,0.0,0.0,0.0,0.0,0.0,0.0,0.0,0.0,0.0,0.0,0.0,0.0,-0.3039,-0.3896,-0.4431,-0.4826,-0.5024,0.0,0.0,0.0,0.0,0.0,0.0,0.0,0.0,0.0,0.0,0.0,0.0,0.0,0.0,1.0586,1.0586,1.0586,0.0,0.0,0.0,0.0,0.0,0.0,0.0,0.0,1.0649,1.0649,1.0681,1.0751,1.0782,0.0,1.087,1.0509,0.0,0.0,0.0,0.0,0.0,0.0,0.0,0.0,0.6153,0.623,0.5775,0.5388,0.5132,0.4697,0.4156,0.3556,0.2976,0.1885,0.0251,-0.028,-0.0638,0.0,0.0,0.0,0.0,0.0,0.0,0.0,0.0,0.0,0.0,0.0,0.0,0.0,0.0,0.0,0.0,0.0,0.0,0.0,0.0,0.0,0.0,0.0,0.4415,0.0,0.0,0.0,0.0,0.0,0.0,0.0,0.0,0.0,0.6844,0.6608,0.6412,0.6305,0.5947,0.5653,0.5491,0.0,0.0,0.0,0.0,0.0,0.0,0.0,0.1407,0.0741,0.0034,-0.0505,-0.0774,-0.0807,-0.0841,-0.0875,0.0,0.0,-0.3364,-0.4075,-0.4601,-0.4898,-0.4874,-0.4776,-0.4615,-0.4408,-0.4112,0.0,0.0,0.0,0.0,0.0,0.0,0.0,0.0,1.0586,1.0586,0.0,1.0593,0.0,0.0,0.0,0.0,1.1059,1.087,0.0,0.0,1.0807,1.0807,1.0839,1.0996,1.1097,1.1097,1.1097,1.0856,1.0451,1.0002,0.0,0.0,0.0,0.0,0.0,0.0,0.6419,0.6362,0.562,0.5212,0.5172,0.4576,0.4166,0.3968,0.2884,0.1847,0.1006,0.0532,0.014,-0.014,-0.028,0.0,0.0,0.0,0.0,0.0,0.0,0.0,0.0,0.0,0.0,0.0,0.0,0.0,0.0,0.0,0.0,0.0,0.0,0.0,0.0,0.4543,0.0,0.0,0.0,0.0,0.0,0.0,0.0,0.0,0.0,0.7409,0.7209,0.6871,0.6568,0.6461,0.0,0.0,0.0,0.0,0.512,0.512,0.4661,0.4164,0.3623,0.2783,0.198,0.1445,0.0,0.0,-0.0202,-0.0269,-0.0337,-0.0472,-0.0921,-0.1655,-0.286,-0.3718,-0.4375,-0.4891,-0.4903,-0.4788,-0.4433,-0.3946,-0.3613,1.3441,0.0,0.0,0.0,0.0,1.1556,1.107,1.0586,1.0586,1.0586,1.0586,1.0681,0.0,0.0,0.0,0.0,0.0,0.0,1.0863,1.0996,1.087,1.0863,1.1035,1.109,1.1097,1.1097,1.1097,1.0854,1.0363,1.0019,0.9587,0.905,0.0,0.0,0.0,0.0,0.6557,0.618,0.5611,0.527,0.5119,0.474,0.4415,0.4162,0.3441,0.2824,0.2345,0.1789,0.1343,0.1091,0.0923,0.0,0.0,0.0,0.0,0.0,0.0,0.0,0.0,0.0,0.0,0.0,0.0,0.0,0.0,0.0,0.0,0.0,0.0,0.0,0.5234,0.5617,0.5946,0.0,0.0,0.0,0.0,0.0,0.0,0.0,0.0,0.0,0.7361,0.7159,0.701,0.0,0.0,0.6251,0.6185,0.5752,0.5422,0.5326,0.5057,0.0,0.4392,0.3789,0.3117,0.2514,0.1776,0.1107,0.0738,0.047,0.0168,-0.0101,-0.0492,-0.1,-0.1617,-0.2542,-0.3341,-0.3768,-0.3803,-0.366,-0.3512,-0.3279,-0.3067,1.4086,1.36,1.3098,1.2648,1.2309,1.197,1.1565,1.1156,1.1007,1.096,1.0946,1.095,1.0926,1.1028,1.1216,0.0,0.0,0.0,1.1052,1.1178,1.1059,1.1052,1.1178,1.1119,1.1157,1.1296,1.0967,1.0721,1.053,1.0057,0.9771,0.9562,0.0,0.8058,0.7837,0.7349,0.6852,0.6354,0.577,0.5374,0.5187,0.4857,0.4525,0.4193,0.383,0.3469,0.3105,0.2657,0.2294,0.1959,0.19,0.19,0.0,0.0,0.0,0.0,0.0,0.0,0.0,0.0,0.0,0.0,0.0,0.2319,0.2488,0.0,0.0,0.0,0.4598,0.5339,0.6158,0.6349,0.0,0.0,0.0,0.0,0.0,0.0,0.0,0.726,0.734,0.7363,0.7384,0.7294,0.7214,0.7195,0.6811,0.6482,0.6416,0.0,0.5583,0.5488,0.5256,0.5024,0.4761,0.4325,0.3806,0.3166,0.2512,0.1881,0.1395,0.1039,0.0715,0.0259,-0.0063,-0.0371,-0.0611,-0.1403,-0.2231,-0.2877,-0.2975,-0.2883,-0.2913,-0.2774,-0.2606,1.4947,1.4307,1.3332,1.289,1.2811,1.2488,1.2208,1.1982,1.1647,1.1514,1.1486,1.1224,1.1185,1.1341,1.1529,0.0,1.1591,1.1397,1.1303,1.1334,1.1303,1.1303,1.132,1.1199,1.1291,1.154,1.0798,1.0581,1.0782,1.0066,0.9806,1.0023,0.9166,0.8568,0.8258,0.7772,0.7244,0.6748,0.6032,0.554,0.5274,0.4912,0.4581,0.4249,0.4135,0.3882,0.3524,0.3327,0.3021,0.2661,0.2738,0.2766,0.2659,0.0,0.0,0.0,0.0,0.0,0.0,0.0,0.0,0.0,0.0,0.0,0.0,0.0,0.0,0.0,0.5815,0.0,0.6636,0.6794,0.0,0.0,0.0,0.7099,0.7086,0.735,0.7446,0.7215,0.0,0.0,0.7377,0.7271,0.7201,0.7196,0.692,0.6642,0.6449,0.5984,0.565,0.565,0.5382,0.509,0.4994,0.4677,0.426,0.3712,0.3163,0.2684,0.1906,0.1567,0.1198,0.0554,0.033,0.0204,0.0113,-0.0328,-0.0962,-0.2049,-0.2297,-0.2381,-0.2557,-0.2445,-0.2299,1.5781,1.5313,1.4814,1.4065,1.3155,1.2921,1.2511,1.1996,1.1647,1.1514,1.1493,1.1312,1.1341,1.1529,1.1584,1.1591,1.1591,1.1397,1.1404,1.1529,1.1373,1.1373,1.1522,1.148,1.1386,1.1217,1.0921,1.0625,1.0282,0.9881,0.9671,0.9535,0.9133,0.8886,0.8808,0.8465,0.7944,0.716,0.6527,0.5878,0.5156,0.5042,0.4904,0.4736,0.4708,0.4598,0.4411,0.4242,0.4049,0.3802,0.3716,0.3771,0.4018,0.4073,0.0,0.0,0.0,0.0,0.0,0.0,0.0,0.0,0.0,0.3984,0.4208,0.0,0.4884,0.0,0.625,0.6854,0.7017,0.6928,0.0,0.0,0.675,0.6679,0.6908,0.6931,0.6982,0.7103,0.7081,0.7109,0.7228,0.7176,0.7118,0.7115,0.6949,0.6811,0.6782,0.635,0.6046,0.5972,0.5811,0.5723,0.5712,0.5517,0.5194,0.5065,0.447,0.3716,0.2884,0.2345,0.1756,0.0952,0.0783,0.0709,0.0673,0.048,0.0102,-0.0523,-0.1234,-0.1839,-0.197,-0.2031,-0.2107,1.6524,1.6184,1.5833,1.5186,1.4366,1.3739,1.3182,1.2641,1.215,1.1957,1.1935,1.1718,1.1629,1.1599,1.1738,1.1731,1.1591,1.1498,1.149,1.1591,1.1459,1.1418,1.1371,1.1224,1.1063,1.085,1.0422,1.0149,0.9995,0.9688,0.9512,0.9387,0.9263,0.9189,0.9153,0.8802,0.8292,0.7702,0.6907,0.6122,0.5449,0.5266,0.5128,0.5014,0.4956,0.4849,0.4719,0.4632,0.4467,0.4221,0.4273,0.4384,0.4491,0.4625,0.4684,0.0,0.0,0.0,0.0,0.0,0.0,0.0,0.0,0.0,0.0,0.0,0.5505,0.6065,0.6684,0.7081,0.7196,0.7058,0.7016,0.7096,0.6929,0.6847,0.6922,0.6998,0.6963,0.6875,0.6865,0.6917,0.7092,0.6979,0.6934,0.7057,0.6891,0.675,0.6669,0.6369,0.6073,0.5934,0.5824,0.5783,0.5786,0.5565,0.5392,0.5309,0.4781,0.4039,0.3291,0.2664,0.2047,0.129,0.1111,0.1063,0.102,0.0884,0.0669,0.033,-0.0278,-0.0965,-0.1509,-0.1727,-0.1884,1.721,1.7012,1.6621,1.6263,1.586,1.484,1.4093,1.3593,1.29,1.2542,1.238,1.2102,1.1823,1.1621,1.1821,1.1823,1.1599,1.1591,1.1591,1.1591,1.1591,1.1415,1.1092,1.0814,1.063,1.0499,0.9816,0.9599,0.9841,0.9549,0.9413,0.9413,0.9413,0.9413,0.9387,0.8935,0.8547,0.8242,0.7262,0.648,0.5909,0.5591,0.5348,0.5179,0.5038,0.4901,0.477,0.4743,0.4605,0.4332,0.4581,0.4688,0.4601,0.4791,0.4877,0.0,0.4877,0.0,0.0,0.0,0.0,0.0,0.0,0.0,0.0,0.584,0.6168,0.6652,0.7028,0.7278,0.7255,0.7252,0.7222,0.7215,0.7278,0.7263,0.709,0.7276,0.7189,0.6698,0.6679,0.6769,0.6961,0.6779,0.6756,0.6982,0.6763,0.6542,0.6428,0.6262,0.5996,0.5711,0.5636,0.5661,0.5536,0.5336,0.5187,0.5106,0.4677,0.4026,0.3409,0.2838,0.2251,0.1614,0.139,0.1327,0.1215,0.1111,0.0987,0.079,0.0505,-0.0068,-0.099,-0.1389,-0.1636,1.7964,1.7769,1.7426,1.7038,1.6655,1.6123,1.5294,1.4343,1.3511,1.2679,1.1933,1.174,1.165,1.1599,1.165,1.165,1.1591,1.1591,1.1591,1.1591,1.1591,1.1423,1.1107,1.1041,1.0704,1.0207,0.9931,0.9746,0.9657,0.9494,0.9458,0.9562,0.9458,0.9458,0.9562,0.0,0.0,0.0,0.7951,0.7283,0.648,0.6273,0.5973,0.5536,0.5481,0.0,0.5042,0.5014,0.4932,0.4791,0.4818,0.0,0.0,0.0,0.0,0.0,0.0,0.0,0.0,0.0,0.0,0.0,0.5814,0.5891,0.5955,0.6462,0.6847,0.7075,0.7408,0.7602,0.762,0.7459,0.7443,0.7642,0.7527,0.743,0.7416,0.7361,0.7188,0.6875,0.6748,0.676,0.6875,0.6774,0.6749,0.6892,0.66,0.6409,0.6405,0.6245,0.6086,0.6009,0.5904,0.5829,0.5832,0.563,0.5433,0.525,0.4858,0.4312,0.3721,0.3216,0.2618,0.1899,0.1677,0.1527,0.128,0.116,0.1179,0.1188,0.106,0.0605,-0.0431,-0.0874,-0.1187,1.8168,1.7974,1.7691,1.7451,0.0,1.6881,1.635,1.5641,1.4277,1.3058,1.1949,1.1855,1.1745,1.1599,1.1728,1.1714,1.1591,1.1591,1.1591,1.1591,1.1591,1.1335,1.0858,1.0836,1.0492,0.987,0.9775,0.9703,0.9595,0.951,0.9536,0.9614,0.9536,0.9536,0.9588,0.9536,0.9256,0.8817,0.8362,0.7824,0.7182,0.6891,0.6544,0.6159,0.6059,0.0,0.0,0.0,0.0,0.0,0.0,0.0,0.0,0.0,0.0,0.5532,0.5732,0.5841,0.5868,0.6087,0.6305,0.644,0.649,0.649,0.6354,0.6877,0.7321,0.7576,0.7993,0.8235,0.8195,0.8096,0.8086,0.8169,0.815,0.8117,0.8043,0.7895,0.7674,0.7319,0.6988,0.6824,0.6895,0.667,0.658,0.6666,0.6466,0.6329,0.6339,0.6298,0.6238,0.6199,0.5988,0.5859,0.5851,0.5783,0.562,0.5408,0.5038,0.4575,0.4042,0.3473,0.2917,0.2384,0.2115,0.1855,0.1649,0.154,0.1489,0.1438,0.1337,0.1074,0.0406,-0.007,-0.0576,1.8236,1.8042,1.7886,1.7716,1.7564,1.7426,1.7126,1.6633,1.4922,0.0,0.0,1.2118,1.1961,1.1769,1.199,1.1936,1.1723,1.1716,1.1654,1.1615,1.1622,1.1246,1.0594,1.058,1.0243,0.9636,0.9621,0.9614,0.9614,0.9621,0.9614,0.9614,0.9614,0.9614,0.9647,0.9621,0.9491,0.9192,0.8791,0.8362,0.791,0.7536,0.7214,0.6891,0.6734,0.6517,0.6268,0.6268,0.6213,0.6122,0.6213,0.6268,0.6268,0.6372,0.6367,0.6268,0.649,0.6625,0.6652,0.6901,0.7144,0.7268,0.7268,0.716,0.6896,0.7279,0.7695,0.8106,0.8591,0.8827,0.8807,0.8781,0.8773,0.8785,0.8883,0.889,0.8795,0.8653,0.8362,0.7874,0.7405,0.7071,0.6955,0.6681,0.6476,0.6555,0.6503,0.642,0.6496,0.6514,0.642,0.6365,0.6146,0.5895,0.58,0.5781,0.5716,0.5518,0.5191,0.4824,0.4353,0.3802,0.3337,0.3005,0.2633,0.2316,0.2075,0.1917,0.181,0.1652,0.1529,0.1404,0.1229,0.0744,0.012,1.8549,1.8269,1.8236,1.81,1.794,1.7906,1.7278,1.6243,1.51,1.3966,1.2875,1.2568,1.2414,1.2398,1.2414,1.2352,1.222,1.2089,1.1934,1.1778,1.1654,1.1246,1.0594,1.058,1.025,0.965,0.9706,0.9706,0.9621,0.9706,0.9706,0.9614,0.9614,0.9647,0.9766,0.9766,0.9792,0.9844,0.9472,0.9073,0.8672,0.8468,0.8123,0.7589,0.753,0.745,0.7278,0.7278,0.7278,0.7278,0.7278,0.7278,0.7278,0.7305,0.7331,0.7305,0.7423,0.7509,0.7503,0.7664,0.7818,0.7945,0.7945,0.7845,0.7589,0.7821,0.8187,0.8625,0.8991,0.9131,0.9142,0.9149,0.9241,0.942,0.9484,0.949,0.9479,0.9422,0.9124,0.8386,0.8055,0.7711,0.7292,0.7041,0.6953,0.696,0.6859,0.6829,0.7206,0.6976,0.6655,0.6556,0.6405,0.6173,0.5982,0.5818,0.5793,0.5531,0.5343,0.5094,0.476,0.4383,0.395,0.3554,0.3232,0.2827,0.2336,0.2108,0.1971,0.1782,0.1679,0.1668,0.1651,0.1376,0.0864,1.8607,1.8313,1.8313,1.8178,1.8008,1.8008,1.7377,1.6325,1.5785,1.4751,1.3562,1.3177,1.3025,1.3056,1.3056,1.3048,1.2987,1.2727,1.2451,1.2237,1.1951,1.1377,1.0631,1.058,1.0278,0.9736,0.9773,0.9818,0.9836,0.9818,0.9766,0.9706,0.9706,0.974,0.9799,0.987,0.9955,0.9973,0.9673,0.938,0.9145,0.8916,0.8653,0.8302,0.8302,0.827,0.8184,0.8137,0.8117,0.8084,0.8037,0.8031,0.8084,0.8084,0.8137,0.819,0.8323,0.8402,0.8402,0.8514,0.862,0.8699,0.8699,0.8718,0.8718,0.8725,0.8876,0.9295,0.9629,0.9844,0.9888,0.9921,0.9966,1.0172,1.0275,1.0332,1.0366,1.0254,1.0026,0.9562,0.8984,0.8488,0.8106,0.7818,0.7533,0.7381,0.7304,0.7559,0.8121,0.8052,0.7782,0.7388,0.7133,0.6842,0.6472,0.6391,0.6272,0.5996,0.5759,0.5493,0.5156,0.4779,0.4431,0.4046,0.3697,0.3289,0.2778,0.2564,0.2344,0.2054,0.1965,0.1958,0.1891,0.1677,0.1162,1.8674,1.8405,1.8405,1.8363,1.8267,1.839,1.7811,1.6831,1.6664,1.576,1.4462,1.3932,1.3722,1.3722,1.3713,1.3747,1.3758,1.3371,1.3028,1.2755,1.2328,1.1617,1.0804,1.073,1.0424,0.9911,0.9903,0.9955,0.9973,0.9947,0.987,0.9851,0.9851,0.9877,0.9921,1.0032,1.0084,1.0102,0.9888,0.9673,0.9491,0.9316,0.9159,0.9047,0.9066,0.9066,0.9073,0.8995,0.8916,0.8863,0.8791,0.8791,0.8863,0.889,0.8968,0.9066,0.9171,0.9223,0.9242,0.9335,0.9394,0.9446,0.9446,0.955,0.9751,0.9621,0.9603,0.988,1.0154,1.0393,1.0496,1.0522,1.0624,1.0769,1.0922,1.1015,1.1141,1.1018,1.0843,1.0627,0.9877,0.924,0.8889,0.8499,0.812,0.786,0.8005,0.8414,0.8886,0.9145,0.8948,0.8541,0.8057,0.7595,0.7198,0.7036,0.6881,0.6545,0.6267,0.5976,0.5586,0.5189,0.4822,0.4481,0.412,0.3765,0.3385,0.3109,0.2829,0.2458,0.231,0.224,0.2068,0.1902,0.1448,1.8965,1.8774,1.8741,1.8883,1.9113,1.951,1.8937,1.783,1.776,1.6976,1.5684,1.4795,1.441,1.441,1.441,1.4448,1.4475,1.3981,1.3578,1.3292,1.2795,1.2027,1.1075,1.1043,1.0672,1.0067,1.0162,1.0162,1.0032,1.0162,1.0162,1.0007,0.9981,1.0076,1.0213,1.0265,1.0316,1.0445,1.0316,1.0084,0.9773,0.987,0.9851,0.9714,0.9818,0.9888,0.9862,0.9895,0.9818,0.9714,0.9766,0.9792,0.9721,0.9792,0.987,0.9888,0.9888,0.9914,0.9921,0.9914,1.0025,1.0187,1.0187,1.0265,1.0385,1.0393,1.0342,1.0308,1.0385,1.0514,1.0667,1.0701,1.0769,1.1015,1.1167,1.1318,1.1435,1.1568,1.1425,1.0911,1.0427,0.9854,0.9273,0.876,0.8495,0.8544,0.8919,0.9353,0.9795,0.9953,1.0061,0.9846,0.9302,0.8461,0.7863,0.7515,0.7385,0.71,0.6765,0.6457,0.6112,0.5668,0.5176,0.4942,0.4637,0.4303,0.3961,0.3651,0.3352,0.2921,0.2673,0.2487,0.2255,0.221,0.1898,1.9363,1.9119,1.9331,1.9461,1.9631,1.9813,1.9465,1.8708,1.813,1.7444,1.6658,1.5753,1.5313,1.5352,1.5313,1.5337,1.525,1.4537,1.4013,1.357,1.2876,1.202,1.1184,1.1107,1.0782,1.0208,1.0265,1.029,1.029,1.029,1.0187,1.0051,1.0136,1.0213,1.0316,1.036,1.0445,1.0496,1.0445,1.0316,1.011,1.0025,1.0032,1.0084,1.0162,1.0213,1.0283,1.0231,1.0162,1.0084,1.0025,1.0025,1.011,1.0162,1.0213,1.0308,1.0462,1.0565,1.0641,1.0735,1.0794,1.0896,1.0896,1.0922,1.0972,1.0972,1.0947,1.0871,1.0675,1.0547,1.0701,1.0777,1.0947,1.1175,1.1418,1.1594,1.1719,1.1877,1.1837,1.1582,1.1028,1.0477,1.0066,0.9572,0.9337,0.9478,0.9864,1.0275,1.0706,1.0965,1.1232,1.1419,1.0945,0.9936,0.8824,0.8276,0.8043,0.7765,0.7408,0.7029,0.6704,0.6359,0.5931,0.5461,0.5171,0.4875,0.4508,0.432,0.4065,0.3527,0.2981,0.271,0.2545,0.2486,0.219,2.0159,1.9952,2.0108,2.021,2.0256,2.0378,2.0114,1.9544,1.8849,1.8129,1.7368,1.6698,1.6242,1.605,1.5943,1.5891,1.5762,1.5034,1.4435,1.395,1.3188,1.2321,1.1501,1.1272,1.0973,1.0546,1.0415,1.0385,1.0496,1.0419,1.029,1.018,1.0265,1.035,1.0368,1.0445,1.0496,1.0496,1.0496,1.0445,1.035,1.0213,1.0187,1.029,1.0342,1.0393,1.0496,1.0427,1.0342,1.0316,1.0187,1.018,1.029,1.035,1.0419,1.0616,1.0863,1.1091,1.1293,1.1435,1.1551,1.161,1.1585,1.1585,1.161,1.1609,1.1609,1.1585,1.1345,1.1251,1.0981,1.1074,1.1251,1.1494,1.1769,1.1952,1.2051,1.22,1.2323,1.2267,1.1696,1.1124,1.0812,1.0458,1.0272,1.0375,1.0712,1.1202,1.1601,1.1904,1.213,1.2626,1.2222,1.1247,0.9899,0.9304,0.8956,0.8606,0.8237,0.782,0.7381,0.7052,0.6607,0.6036,0.5776,0.5495,0.5137,0.4963,0.4723,0.4096,0.3549,0.3135,0.301,0.2864,0.2627,2.1374,2.1435,2.1171,2.1031,2.1077,2.148,2.118,2.0405,2.0236,1.9287,1.7874,1.7606,1.7151,1.6358,1.6078,1.594,1.5904,1.5395,1.4914,1.448,1.3821,1.3081,1.2246,1.174,1.1312,1.0944,1.0701,1.0568,1.0544,1.0512,1.0496,1.0478,1.0478,1.0462,1.047,1.0488,1.0496,1.0496,1.0496,1.0496,1.0496,1.047,1.0393,1.035,1.0419,1.0496,1.0496,1.0496,1.0419,1.0316,1.0419,1.0419,1.035,1.0419,1.0624,1.0896,1.1141,1.1444,1.176,1.2058,1.2255,1.2353,1.2438,1.2372,1.2382,1.2404,1.2419,1.2374,1.2708,1.2561,1.1987,1.1903,1.1951,1.2193,1.237,1.2571,1.2543,1.2924,1.2876,1.2905,1.2553,1.2018,1.1309,1.1191,1.121,1.1229,1.1438,1.1987,1.2618,1.2565,1.2822,1.3151,1.2819,1.1894,1.1217,1.0394,0.9888,0.951,0.9059,0.8705,0.8201,0.7656,0.7116,0.6588,0.6285,0.5982,0.5749,0.548,0.5171,0.4683,0.4132,0.3759,0.3498,0.3416,0.3144,2.2218,2.2397,2.2024,2.197,2.2121,2.2188,2.1912,2.1454,2.0705,1.9913,1.8982,1.8101,1.7358,1.6788,1.6382,1.6168,1.6037,1.5556,1.5139,1.4719,1.3931,1.321,1.2626,1.2059,1.1646,1.1328,1.1205,1.1149,1.1098,1.0942,1.083,1.0791,1.0607,1.0496,1.0496,1.0496,1.0496,1.0496,1.0496,1.0496,1.0496,1.0496,1.0496,1.0445,1.0496,1.0496,1.0496,1.0573,1.0598,1.0547,1.0693,1.0744,1.0693,1.082,1.1074,1.1502,1.1744,1.2049,1.2427,1.2987,1.3298,1.3387,1.3678,1.3678,1.3441,1.3377,1.3417,1.3551,1.3666,1.3761,1.3951,1.3617,1.3462,1.373,1.4002,1.415,1.4282,1.4434,1.456,1.4462,1.4031,1.3386,1.2772,1.2599,1.2547,1.2347,1.2748,1.3286,1.3776,1.3976,1.4203,1.4605,1.42,1.3609,1.3505,1.1698,1.0506,1.0164,0.9762,0.9347,0.8874,0.8489,0.7986,0.7368,0.6946,0.6547,0.6344,0.5935,0.563,0.5145,0.4591,0.4308,0.3961,0.3759,0.3459,2.294,2.2959,2.2549,2.2394,2.2437,2.2239,2.1945,2.1671,2.0808,2.0172,1.9624,1.8775,1.7957,1.7285,1.6953,1.6564,1.6173,1.5739,1.5352,1.4942,1.4192,1.3591,1.3139,1.2605,1.2228,1.1983,1.1789,1.1684,1.1623,1.129,1.1129,1.1105,1.0801,1.0641,1.0616,1.0624,1.0616,1.0616,1.0616,1.0616,1.0616,1.0616,1.065,1.0616,1.065,1.0573,1.0496,1.0624,1.0726,1.0769,1.0896,1.0998,1.1099,1.1251,1.1544,1.2017,1.2363,1.2769,1.3332,1.3909,1.4295,1.45,1.4806,1.4868,1.4552,1.4521,1.4612,1.4748,1.5023,1.5363,1.5724,1.5669,1.5373,1.5154,1.5205,1.5386,1.5489,1.5632,1.5713,1.5633,1.5229,1.4683,1.4152,1.3973,1.372,1.338,1.38,1.4277,1.4786,1.5071,1.546,1.5831,1.5145,1.4725,1.4332,1.2942,1.1731,1.1275,1.0582,1.0105,0.9666,0.9276,0.8795,0.8165,0.7648,0.7243,0.6848,0.6411,0.5991,0.5554,0.5205,0.494,0.4508,0.403,0.3788,2.3655,2.3292,2.2752,2.2377,2.2157,2.182,2.138,2.1105,2.0651,2.0274,1.9945,1.9744,1.8944,1.7957,1.7771,1.7283,1.6601,1.6238,1.578,1.5235,1.4736,1.435,1.399,1.3374,1.3052,1.2963,1.2499,1.217,1.2083,1.1748,1.1531,1.1416,1.1227,1.1137,1.0988,1.1096,1.1029,1.1054,1.1079,1.0971,1.0913,1.0946,1.0963,1.0905,1.0905,1.0794,1.0573,1.0675,1.0794,1.0922,1.1074,1.1242,1.1519,1.1744,1.1999,1.2461,1.2914,1.362,1.4363,1.4782,1.5279,1.5647,1.5803,1.5853,1.573,1.5723,1.58,1.5972,1.6439,1.6931,1.7164,1.7496,1.7218,1.5944,1.5982,1.6137,1.6133,1.6193,1.6311,1.6275,1.6056,1.5745,1.5408,1.5112,1.4803,1.4573,1.4639,1.5013,1.5556,1.5761,1.6034,1.6436,1.6135,1.5655,1.4965,1.4152,1.3307,1.2496,1.1652,1.0981,1.049,1.009,0.9559,0.8954,0.8338,0.7916,0.7589,0.7174,0.6824,0.6403,0.6018,0.5639,0.5269,0.487,0.4353,2.4153,2.3878,2.348,2.31,2.2695,2.2263,2.1872,2.149,2.1044,2.0758,2.059,2.0284,1.9714,1.9081,1.8733,1.8247,1.7677,1.7504,1.6913,1.5926,1.5332,1.5069,1.4884,1.4411,1.4024,1.3818,1.3582,1.3286,1.3024,1.264,1.2487,1.2482,1.2436,1.2404,1.2353,1.2432,1.2404,1.2378,1.2129,1.1873,1.1635,1.1575,1.1455,1.1201,1.1175,1.1124,1.1049,1.1099,1.1167,1.1326,1.1519,1.1819,1.2215,1.2393,1.2759,1.333,1.3994,1.4558,1.5078,1.5846,1.6369,1.6628,1.6906,1.6917,1.6662,1.6632,1.6696,1.6815,1.713,1.7443,1.7932,1.8267,1.8089,1.7558,1.7645,1.7693,1.7702,1.766,1.7446,1.7104,1.6835,1.6663,1.6588,1.6352,1.6074,1.6035,1.6077,1.6266,1.6524,1.6754,1.7164,1.7714,1.7133,1.6692,1.6287,1.5494,1.4423,1.3432,1.2521,1.1731,1.1251,1.0838,1.0318,0.984,0.9195,0.8703,0.8345,0.7967,0.7623,0.7251,0.6874,0.6545,0.6213,0.5759,0.5236,2.4211,2.4041,2.3788,2.3437,2.2962,2.2329,2.181,2.1397,2.0773,2.0655,2.0857,2.0687,2.0424,2.0105,1.9851,1.9361,1.8817,1.8743,1.8173,1.7138,1.6343,1.5938,1.5672,1.5332,1.4943,1.4599,1.449,1.4231,1.3876,1.3482,1.3261,1.3281,1.3252,1.3226,1.3252,1.3243,1.3252,1.3191,1.2895,1.2606,1.2422,1.2263,1.2095,1.1899,1.1698,1.1628,1.1669,1.1719,1.1769,1.1843,1.2132,1.2574,1.2939,1.3194,1.3614,1.4299,1.4919,1.5508,1.6058,1.672,1.7247,1.7402,1.7696,1.7741,1.7458,1.7428,1.7493,1.7653,1.7785,1.8034,1.8447,1.8667,1.8706,1.8625,1.859,1.8732,1.8792,1.8646,1.8384,1.8057,1.7821,1.7721,1.7594,1.7432,1.7184,1.7251,1.7255,1.7174,1.7349,1.7664,1.8177,1.8465,1.82,1.7946,1.7874,1.6868,1.5588,1.4457,1.3346,1.2563,1.1906,1.1595,1.1141,1.0917,1.0407,0.998,0.961,0.8926,0.8454,0.8112,0.7717,0.7258,0.686,0.658,0.6081,2.3916,2.3861,2.3671,2.3346,2.2874,2.2066,2.1504,2.0928,2.0129,2.0302,2.0941,2.1047,2.1058,2.1069,2.0997,2.0572,1.9929,1.9834,1.949,1.8754,1.785,1.7024,1.6243,1.6017,1.5719,1.5371,1.5255,1.503,1.4628,1.4139,1.3805,1.3841,1.3852,1.3683,1.3826,1.3691,1.3861,1.3861,1.3519,1.3424,1.346,1.3117,1.2907,1.2971,1.2576,1.2379,1.2397,1.2623,1.2623,1.2427,1.2905,1.3338,1.3634,1.4022,1.4575,1.5224,1.5734,1.6438,1.718,1.7456,1.7683,1.8012,1.8093,1.8111,1.8058,1.8062,1.8116,1.8274,1.8436,1.8617,1.8759,1.8881,1.8972,1.8972,1.8866,1.8854,1.8912,1.8867,1.8688,1.8686,1.8749,1.8638,1.8233,1.8108,1.8005,1.7931,1.7963,1.7871,1.7873,1.8237,1.8752,1.8965,1.9114,1.894,1.8803,1.799,1.6649,1.5134,1.4075,1.3275,1.2541,1.2191,1.2063,1.1852,1.1649,1.1246,1.0706,1.0023,0.9375,0.8892,0.8414,0.7887,0.76,0.737,0.6979,2.3891,2.3861,2.37,2.3378,2.2975,2.2414,2.192,2.1431,2.0667,2.0797,2.1452,2.1476,2.1612,2.1951,2.1926,2.1626,2.1216,2.1096,2.0584,1.9857,1.9512,1.8289,1.7041,1.6729,1.6521,1.6218,1.6046,1.5845,1.5546,1.5187,1.4965,1.4839,1.517,1.529,1.5208,1.536,1.5565,1.5506,1.5151,1.4953,1.4963,1.4739,1.4394,1.4003,1.3856,1.3609,1.3351,1.3745,1.3745,1.3324,1.3552,1.3907,1.423,1.4808,1.536,1.5849,1.6715,1.7367,1.7669,1.8046,1.8339,1.8444,1.8464,1.8467,1.8452,1.8491,1.8479,1.8572,1.8679,1.8771,1.8825,1.8946,1.9013,1.8987,1.8999,1.884,1.8566,1.8386,1.8303,1.8029,1.8017,1.8269,1.8521,1.864,1.8672,1.8815,1.8787,1.8712,1.8674,1.8791,1.9295,1.9931,2.0136,1.9901,1.952,1.878,1.761,1.5925,1.4777,1.3929,1.3234,1.267,1.271,1.2717,1.2708,1.2413,1.1788,1.1125,1.0464,0.9751,0.923,0.8805,0.8631,0.8404,0.7897,2.3979,2.3966,2.3878,2.3658,2.339,2.2889,2.2451,2.197,2.1178,2.1239,2.1809,2.171,2.1964,2.2564,2.2608,2.2466,2.2204,2.2171,2.1647,2.0718,2.002,1.8868,1.7669,1.7247,1.6965,1.6722,1.6627,1.6418,1.6189,1.5989,1.5787,1.5654,1.6012,1.6169,1.6113,1.6313,1.6576,1.6656,1.6522,1.6446,1.6575,1.6175,1.5928,1.5515,1.5243,1.4733,1.4717,1.5169,1.5026,1.4354,1.4305,1.4659,1.5103,1.5552,1.6121,1.6723,1.7554,1.8035,1.8296,1.8593,1.8724,1.8747,1.8786,1.8774,1.8774,1.8813,1.8866,1.8866,1.8984,1.9025,1.9052,1.9131,1.9146,1.9172,1.9184,1.8998,1.858,1.8642,1.8524,1.8395,1.8532,1.879,1.9247,1.9445,1.9578,1.966,1.9507,1.9458,1.9428,1.9573,1.9811,2.0388,2.0912,2.0751,2.0396,1.973,1.8773,1.7091,1.5602,1.4708,1.3994,1.3374,1.3419,1.3548,1.3616,1.347,1.2815,1.2122,1.1378,1.0718,1.0203,0.9692,0.9413,0.9099,0.8631,2.4125,2.4125,2.4112,2.4037,2.3819,2.3352,2.2919,2.2482,2.1616,2.1697,2.2219,2.1918,2.2309,2.3102,2.3062,2.3043,2.2984,2.2848,2.2349,2.1332,2.026,1.8999,1.8342,1.766,1.7247,1.6952,1.6994,1.7002,1.6853,1.6651,1.6459,1.6453,1.6546,1.6577,1.6732,1.6817,1.7074,1.738,1.7499,1.7677,1.7841,1.7478,1.7213,1.7152,1.6229,1.5891,1.6101,1.6413,1.6188,1.505,1.5211,1.5614,1.6149,1.635,1.6906,1.7691,1.8102,1.8516,1.8867,1.8924,1.8987,1.9011,1.9112,1.9151,1.9289,1.9478,1.9656,1.9656,1.9552,1.9728,1.9754,1.9707,1.9768,1.983,1.9744,1.9538,1.933,1.9269,1.9247,1.9334,1.9846,2.0057,2.0357,2.0567,2.0717,2.0122,1.9963,1.9721,1.9709,1.98,2.0141,2.0704,2.1145,2.1578,2.1176,2.0694,1.9643,1.8368,1.6709,1.5595,1.4841,1.4343,1.4247,1.4274,1.4409,1.425,1.3817,1.3084,1.2271,1.1533,1.0901,1.0332,0.9847,0.9536,0.9146,2.4125,2.4125,2.4125,2.4037,2.3861,2.3586,2.3245,2.2805,2.2156,2.23,2.2781,2.2582,2.2909,2.368,2.3475,2.3409,2.3202,2.3025,2.255,2.1669,2.043,1.9761,1.9229,1.8438,1.7682,1.7375,1.7351,1.7611,1.7838,1.7566,1.7516,1.764,1.7405,1.7402,1.728,1.7512,1.774,1.7936,1.8191,1.8618,1.8892,1.871,1.8407,1.8259,1.7323,1.689,1.6959,1.7131,1.7098,1.6883,1.6739,1.6761,1.6927,1.7309,1.7704,1.804,1.855,1.8867,1.8963,1.9052,1.9064,1.9269,1.9709,2.0047,2.0205,2.0744,2.0986,2.1022,2.1049,2.1033,2.0945,2.1054,2.097,2.0921,2.0997,2.1031,2.0869,2.0083,1.9767,1.9994,2.0011,1.9977,2.0521,2.0384,2.0459,2.0459,2.0282,1.9931,1.9953,2.0074,2.0459,2.0974,2.11,2.1398,2.1093,2.0722,2.0147,1.9301,1.7919,1.672,1.5961,1.531,1.5202,1.5187,1.5234,1.4943,1.4463,1.3841,1.2982,1.2296,1.1618,1.1056,1.0566,1.0149,0.9692,2.4125,2.4125,2.4125,2.4054,2.3995,2.3878,2.3641,2.33,2.2798,2.2884,2.322,2.2959,2.321,2.3942,2.3642,2.3444,2.3352,2.2753,2.2275,2.173,2.0858,2.0299,2.0056,1.9482,1.8818,1.8296,1.8092,1.8334,1.8459,1.8221,1.7912,1.8109,1.7979,1.7862,1.7872,1.8096,1.8276,1.8618,1.9119,1.9614,1.9817,1.9853,1.9494,1.8983,1.8312,1.7914,1.7952,1.8068,1.8144,1.8132,1.8044,1.786,1.7682,1.7923,1.8201,1.85,1.8809,1.9078,1.9105,1.9182,1.9385,1.9801,2.038,2.0873,2.1318,2.1921,2.2228,2.2269,2.2243,2.2244,2.193,2.1877,2.1851,2.1629,2.1812,2.2021,2.2097,2.1266,2.0484,2.0817,2.101,2.1114,2.1143,2.101,2.1021,2.139,2.0879,2.0548,2.0454,2.0562,2.0765,2.1067,2.1036,2.1017,2.0822,2.0588,2.0413,1.9801,1.902,1.8087,1.7319,1.6689,1.6134,1.6059,1.5885,1.5408,1.4902,1.4263,1.3685,1.2987,1.2337,1.1775,1.1225,1.0685,1.0259,2.4125,2.4125,2.4125,2.4112,2.4125,2.4083,2.4008,2.3819,2.3382,2.3348,2.3554,2.3162,2.3487,2.3946,2.3746,2.3707,2.3523,2.2828,2.2297,2.2253,2.1474,2.0971,2.0719,2.0496,2.0232,1.958,1.9113,1.9046,1.9114,1.8762,1.8818,1.8617,1.8343,1.8496,1.8618,1.8527,1.86,1.8968,1.9785,2.0317,2.0537,2.0664,2.0364,1.9523,1.9131,1.8804,1.8747,1.8802,1.8953,1.9013,1.9013,1.8821,1.863,1.847,1.87,1.923,1.9521,1.9678,1.9783,1.9814,2.011,2.0723,2.1294,2.1848,2.2469,2.2938,2.3218,2.3324,2.335,2.3309,2.2842,2.2983,2.271,2.2423,2.2598,2.2966,2.3204,2.2825,2.2488,2.1766,2.2056,2.2282,2.2384,2.2359,2.2315,2.2155,2.1611,2.1118,2.0987,2.0928,2.1046,2.1159,2.1149,2.1212,2.103,2.0637,2.0463,2.031,1.9789,1.9211,1.8589,1.821,1.7573,1.6722,1.635,1.5979,1.5513,1.4859,1.4248,1.3613,1.2972,1.237,1.1783,1.1208,1.0821,2.4125,2.4125,2.4125,2.4125,2.4125,2.4125,2.4037,2.3861,2.3641,2.3755,2.4053,2.3842,2.3956,2.4263,2.428,2.419,2.3966,2.3329,2.2989,2.2881,2.2168,2.167,2.1623,2.1459,2.1335,2.1051,2.0349,2.0053,2.0276,2.0234,1.9979,2.0408,1.9813,1.9444,1.9298,1.9166,1.8876,1.9101,1.992,2.0474,2.067,2.095,2.0854,1.9949,1.9741,1.9492,1.9143,1.9035,1.9013,1.9025,1.9105,1.9364,1.9648,1.9652,1.9894,2.0268,2.06,2.0744,2.0827,2.1064,2.1371,2.1957,2.256,2.3231,2.373,2.404,2.4156,2.428,2.4349,2.446,2.4874,2.4637,2.4776,2.468,2.4596,2.4668,2.4736,2.4913,2.4817,2.3947,2.3703,2.3366,2.3473,2.3325,2.2964,2.2578,2.1995,2.1352,2.0925,2.0939,2.1035,2.1154,2.1245,2.133,2.1387,2.0924,2.0613,2.0707,2.0357,2.0025,1.9588,1.9602,1.9046,1.8002,1.7366,1.7101,1.6454,1.5748,1.5183,1.4795,1.3922,1.3007,1.2423,1.1907,1.1376,2.4125,2.4125,2.4125,2.4125,2.4125,2.4112,2.4054,2.4047,2.4248,2.443,2.4532,2.4548,2.4707,2.4881,2.4432,2.4332,2.4379,2.4064,2.3878,2.3721,2.3025,2.2457,2.2389,2.2278,2.2092,2.1868,2.1371,2.0949,2.0961,2.054,2.0722,2.0677,2.0153,1.982,1.9688,1.9249,1.9086,1.9215,1.9793,2.0382,2.0617,2.1151,2.1024,2.0846,2.0548,2.0391,2.0275,2.0274,2.0313,2.0353,2.0392,2.0677,2.0974,2.1119,2.1075,2.1197,2.1478,2.1759,2.1953,2.2186,2.271,2.3286,2.3716,2.4091,2.4493,2.4699,2.4855,2.5135,2.5584,2.5668,2.5647,2.5723,2.5588,2.544,2.56,2.5673,2.571,2.635,2.6392,2.6086,2.5619,2.5094,2.4504,2.4203,2.3627,2.3016,2.2435,2.1776,2.1113,2.1156,2.1394,2.1404,2.1494,2.1179,2.1114,2.0639,2.039,2.0553,2.0539,2.0193,2.0246,2.0058,1.9717,1.8992,1.8544,1.8585,1.8005,1.7479,1.6754,1.5959,1.5045,1.4157,1.33,1.2613,1.2042,2.4125,2.4125,2.4125,2.4125,2.4125,2.4125,2.4125,2.4217,2.457,2.4739,2.4848,2.494,2.5162,2.5248,2.4928,2.4721,2.5103,2.4775,2.4713,2.457,2.3719,2.313,2.3,2.283,2.2574,2.2297,2.2194,2.1969,2.1451,2.1099,2.0919,2.0942,2.0482,2.0105,2.0081,1.9756,1.9396,1.948,1.9841,2.037,2.0911,2.1337,2.1596,2.1719,2.151,2.1456,2.1398,2.1377,2.1407,2.1369,2.142,2.1676,2.2298,2.2464,2.2362,2.2186,2.2441,2.2675,2.3042,2.342,2.4027,2.4557,2.4581,2.4888,2.5126,2.5317,2.5268,2.5818,2.6166,2.6431,2.6224,2.6232,2.6088,2.5977,2.6167,2.6465,2.6747,2.73,2.8176,2.79,2.7399,2.6594,2.5705,2.518,2.4592,2.3713,2.3118,2.2749,2.2148,2.1897,2.1969,2.1892,2.1716,2.1117,2.0686,2.01,1.9899,1.9936,1.9886,1.9633,1.9992,2.032,2.0058,2.006,2.072,2.0688,1.9989,1.9074,1.8212,1.7273,1.6277,1.5362,1.457,1.349,1.2631,2.4125,2.4125,2.4125,2.4125,2.4125,2.4125,2.4125,2.4138,2.4256,2.4217,2.4429,2.4889,2.4975,2.4853,2.5437,2.5703,2.5768,2.5595,2.5427,2.529,2.4309,2.3619,2.336,2.3138,2.2957,2.2726,2.2678,2.2451,2.2116,2.1958,2.189,2.1807,2.1332,2.1163,2.0923,2.043,2.0413,2.0478,2.0916,2.141,2.1861,2.214,2.2134,2.2137,2.232,2.249,2.2326,2.2232,2.2101,2.2048,2.1593,2.1884,2.2684,2.3031,2.3771,2.4214,2.441,2.4253,2.4569,2.4888,2.5271,2.567,2.576,2.6019,2.5945,2.5784,2.5658,2.5759,2.6068,2.6447,2.6762,2.6942,2.6975,2.6923,2.6889,2.7479,2.792,2.7795,2.8734,2.9298,2.8722,2.7513,2.6444,2.6027,2.555,2.462,2.3853,2.3536,2.3332,2.3177,2.2556,2.2456,2.2116,2.1538,2.0405,1.9788,1.9661,1.9573,1.9334,1.9258,1.99,2.0531,2.1228,2.1425,2.2101,2.2102,2.1072,2.0165,1.9495,1.8694,1.7787,1.6849,1.5894,1.4704,1.3431,2.4955,2.4125,2.4125,2.4125,2.4125,2.4125,2.4125,2.4191,2.4465,2.4655,2.485,2.5397,2.5468,2.5282,2.6005,2.6396,2.6445,2.6272,2.6215,2.5932,2.4998,2.4189,2.3956,2.375,2.3514,2.3245,2.3185,2.3185,2.2884,2.2543,2.2309,2.2224,2.1735,2.1356,2.1428,2.0858,2.0629,2.0759,2.128,2.1787,2.2175,2.2559,2.2862,2.2968,2.3438,2.3612,2.3684,2.3528,2.3578,2.3659,2.3358,2.3466,2.4122,2.445,2.4847,2.5397,2.5425,2.5398,2.5605,2.5975,2.6376,2.6669,2.6662,2.6352,2.6194,2.6028,2.5941,2.5919,2.6349,2.6748,2.7097,2.7258,2.7361,2.7386,2.7516,2.808,2.8574,2.8652,2.8955,2.9538,2.9911,2.8622,2.7439,2.679,2.6164,2.5149,2.4804,2.4825,2.4758,2.4795,2.3958,2.2991,2.2571,2.2043,2.0629,1.9558,1.966,1.9545,1.911,1.9237,2.0015,2.0694,2.144,2.1948,2.2226,2.2089,2.1765,2.1435,2.0868,2.0145,1.935,1.8268,1.7185,1.5844,1.4641,2.6149,2.4842,2.4563,2.4423,2.438,2.4393,2.4272,2.4191,2.476,2.502,2.511,2.5495,2.5675,2.594,2.6394,2.6729,2.6776,2.6793,2.6793,2.6356,2.5578,2.4702,2.4363,2.4176,2.4002,2.3725,2.3708,2.3679,2.3501,2.3143,2.2763,2.2519,2.2116,2.1759,2.1524,2.1332,2.1181,2.1377,2.1987,2.2396,2.269,2.3221,2.366,2.4066,2.4467,2.4865,2.5162,2.4966,2.5071,2.5139,2.4679,2.4607,2.5222,2.5372,2.5676,2.6119,2.6231,2.6413,2.6596,2.6887,2.7248,2.742,2.7592,2.7219,2.6852,2.653,2.6476,2.6656,2.7049,2.734,2.738,2.7412,2.7637,2.7778,2.7908,2.8487,2.9015,2.9232,2.9588,3.0231,3.038,2.9704,2.8606,2.7728,2.6791,2.5731,2.5614,2.5972,2.624,2.6423,2.5702,2.4696,2.4148,2.3412,2.1695,2.0509,2.024,1.9686,1.9242,1.9315,2.0156,2.095,2.1721,2.212,2.2442,2.2649,2.2598,2.2481,2.2297,2.1486,2.0609,1.9533,1.8362,1.7017,1.5697,2.7627,2.6815,2.5781,2.5269,2.5107,2.5137,2.4728,2.438,2.4958,2.4992,2.4872,2.4889,2.5536,2.5977,2.6589,2.6918,2.6864,2.6793,2.6874,2.6467,2.5625,2.4981,2.4715,2.4545,2.435,2.4118,2.4118,2.4118,2.4031,2.3855,2.3352,2.2902,2.2658,2.2421,2.2207,2.1995,2.2128,2.2369,2.2912,2.3309,2.3674,2.4155,2.4599,2.4895,2.5398,2.5852,2.6001,2.5712,2.5678,2.5793,2.5239,2.5236,2.577,2.609,2.6442,2.6837,2.7161,2.7392,2.7627,2.7563,2.7652,2.784,2.8129,2.8417,2.8254,2.8497,2.8376,2.7803,2.8063,2.7928,2.775,2.7578,2.8087,2.8203,2.8498,2.9089,2.9602,2.9988,3.0404,3.1002,3.0928,3.0462,3.0058,2.9247,2.791,2.6827,2.6961,2.7346,2.7968,2.812,2.7582,2.6849,2.6258,2.512,2.323,2.2186,2.1208,2.0532,2.0047,2.0084,2.043,2.1217,2.1989,2.2497,2.2856,2.316,2.3313,2.2941,2.2652,2.2513,2.1851,2.0742,1.9296,1.7771,1.6513,2.9221,2.868,2.7795,2.6816,2.5883,2.5792,2.5629,2.5514,2.5655,2.6003,2.6203,2.6142,2.6383,2.6932,2.7176,2.7366,2.7366,2.7348,2.7352,2.6972,2.6223,2.5585,2.528,2.4981,2.4736,2.4622,2.4622,2.465,2.465,2.4489,2.4508,2.4103,2.3485,2.2842,2.2604,2.2776,2.2971,2.3356,2.3734,2.4118,2.4538,2.4894,2.5259,2.555,2.5756,2.6123,2.6238,2.5943,2.6086,2.6152,2.5734,2.6003,2.6487,2.6916,2.7345,2.7748,2.8063,2.839,2.8441,2.8276,2.8179,2.8996,2.9316,2.9462,2.9475,2.9309,2.9083,2.887,2.8907,2.8732,2.833,2.8536,2.8906,2.8816,2.9086,2.9684,3.0163,3.0552,3.0793,3.1241,3.16,3.157,3.1255,3.0853,2.9373,2.8058,2.8342,2.8719,2.9294,2.9631,2.9071,2.854,2.7926,2.6764,2.4908,2.3441,2.2054,2.1554,2.1105,2.1293,2.155,2.1431,2.2163,2.2707,2.3081,2.3108,2.313,2.3087,2.2936,2.2757,2.2443,2.1923,2.0341,1.8516,1.736,3.0478,3.0149,2.9508,2.8337,2.702,2.6777,2.667,2.6597,2.6697,2.692,2.7406,2.706,2.7071,2.7393,2.7637,2.7678,2.7651,2.7664,2.7678,2.7216,2.6524,2.6025,2.5683,2.5343,2.4948,2.5018,2.5005,2.4948,2.492,2.5067,2.509,2.4879,2.4529,2.4053,2.3703,2.3719,2.4016,2.4497,2.5015,2.5436,2.5934,2.6302,2.6314,2.6535,2.6629,2.6551,2.6566,2.6335,2.6387,2.6573,2.6628,2.6794,2.7325,2.7915,2.8375,2.8678,2.8968,2.9282,2.9256,2.9101,2.9063,2.99,3.0177,3.0308,3.0233,2.9965,2.9946,2.9631,2.9669,2.9513,2.9011,2.9217,2.9532,2.9445,2.9654,3.0163,3.0612,3.0987,3.1152,3.1421,3.1675,3.1809,3.1675,3.1241,3.0494,2.9355,2.9385,2.9806,3.0427,3.0612,3.0409,2.9899,2.9392,2.805,2.6608,2.5554,2.4526,2.3685,2.3291,2.3027,2.3069,2.2823,2.287,2.3635,2.373,2.3163,2.3023,2.3163,2.308,2.2936,2.242,2.1781,2.063,1.8869,1.81,3.1335,3.1146,3.063,2.967,2.851,2.8235,2.7886,2.7601,2.7956,2.7925,2.7564,2.7336,2.7138,2.722,2.7691,2.7841,2.7854,2.7813,2.7813,2.7542,2.6809,2.6145,2.5846,2.5588,2.5398,2.5086,2.5236,2.5344,2.5195,2.5627,2.5708,2.5855,2.5902,2.5747,2.5388,2.5644,2.6034,2.6496,2.6939,2.7293,2.7626,2.7939,2.7835,2.7474,2.7371,2.7209,2.677,2.6651,2.6692,2.6922,2.7433,2.7662,2.8023,2.884,2.9287,2.9416,2.9588,2.9873,3.0179,3.0082,3.0307,3.0632,3.0793,3.094,3.1057,3.1012,3.0832,3.0398,3.0395,3.0165,2.9849,2.9726,3.0013,3.0118,3.0298,3.0612,3.1032,3.1241,3.1391,3.154,3.154,3.1555,3.157,3.1451,3.1137,3.0658,3.0537,3.0808,3.1317,3.1334,3.107,3.0835,3.0352,2.9576,2.8371,2.7852,2.7016,2.6119,2.5251,2.4718,2.4447,2.4303,2.444,2.4812,2.4308,2.3676,2.3461,2.3312,2.3044,2.2643,2.1896,2.1139,2.0136,1.9412,1.8786,3.1695,3.1523,3.1277,3.091,3.0426,2.9802,2.9464,2.944,2.9505,2.9278,2.8803,2.8591,2.8308,2.8211,2.813,2.8279,2.8293,2.8288,2.8288,2.8184,2.7383,2.7203,2.6877,2.6446,2.6158,2.6169,2.6183,2.6102,2.6237,2.643,2.6738,2.6968,2.7216,2.701,2.6281,2.6206,2.656,2.7042,2.7531,2.7967,2.834,2.8568,2.8448,2.784,2.7811,2.7549,2.6982,2.6968,2.7099,2.7401,2.7958,2.8314,2.8763,2.9559,3.0012,3.0229,3.0477,3.0841,3.1007,3.0951,3.1025,3.1146,3.1176,3.1278,3.1351,3.138,3.1245,3.1126,3.1049,3.0746,3.0372,3.0717,3.0926,3.0597,3.0717,3.1062,3.1406,3.1421,3.1511,3.1675,3.1735,3.1914,3.1989,3.1735,3.1421,3.1241,3.1017,3.1032,3.1422,3.1467,3.1334,3.1305,3.1025,3.0611,3.0023,2.9278,2.8387,2.7313,2.6432,2.5761,2.56,2.5771,2.5712,2.5907,2.5036,2.4199,2.4046,2.3742,2.2892,2.2228,2.204,2.1524,2.0772,2.0232,1.9723,3.2051,3.1951,3.1851,3.1794,3.168,3.0911,3.0659,3.0748,3.0613,3.0267,2.9844,2.9656,2.9359,2.9026,2.894,2.894,2.894,2.894,2.8958,2.8857,2.8232,2.793,2.765,2.7268,2.6775,2.6837,2.6806,2.6752,2.6698,2.6982,2.742,2.7985,2.8466,2.8103,2.7579,2.7673,2.795,2.8446,2.8893,2.913,2.9305,2.9305,2.9087,2.8638,2.8362,2.813,2.765,2.7532,2.7621,2.8039,2.8482,2.8897,2.9538,3.018,3.068,3.0989,3.1167,3.1408,3.1364,3.1378,3.1349,3.1365,3.1365,3.1409,3.1467,3.1467,3.1467,3.1466,3.1525,3.1316,3.1062,3.1496,3.1346,3.1046,3.1092,3.1466,3.1481,3.1496,3.1511,3.169,3.1765,3.2034,3.2213,3.2034,3.1705,3.1585,3.1466,3.1496,3.1496,3.1496,3.1496,3.1467,3.1453,3.1097,3.0772,3.0447,2.9529,2.8506,2.7854,2.728,2.7405,2.7643,2.731,2.687,2.6086,2.537,2.4813,2.4273,2.3706,2.3347,2.3145,2.248,2.1521,2.0977,2.0513,3.2398,3.2398,3.2398,3.237,3.2259,3.161,3.1336,3.1307,3.1161,3.0866,3.051,3.0267,2.9946,2.9696,2.9602,2.9588,2.962,2.9634,2.962,2.9431,2.8963,2.8627,2.8191,2.7737,2.7441,2.7084,2.7023,2.7253,2.6982,2.7443,2.8107,2.8543,2.8744,2.8761,2.8899,2.9094,2.9341,2.956,2.9878,3.0042,3.0147,3.0292,2.9856,2.9436,2.9204,2.8927,2.8565,2.8418,2.8549,2.8952,2.9487,2.988,3.0391,3.1008,3.1318,3.1496,3.1481,3.1467,3.1467,3.1496,3.1496,3.1467,3.1467,3.1496,3.1496,3.1511,3.1585,3.1675,3.175,3.1735,3.1705,3.169,3.166,3.1525,3.1451,3.154,3.1496,3.1496,3.1496,3.154,3.1555,3.1675,3.1705,3.1645,3.1735,3.163,3.1496,3.1496,3.1496,3.1496,3.1496,3.1496,3.1467,3.1496,3.1244,3.0992,3.0501,2.9473,2.9635,2.9277,2.9448,2.9047,2.8403,2.7774,2.719,2.6535,2.5814,2.5309,2.4907,2.4552,2.4144,2.3459,2.2528,2.1741,2.1223,3.2398,3.2398,3.2398,3.2398,3.237,3.2176,3.2092,3.2064,3.1923,3.1595,3.1219,3.097,3.0628,3.0253,3.0237,3.0222,3.0237,3.0237,3.0237,3.0047,2.9797,2.9494,2.9119,2.875,2.8394,2.8143,2.8049,2.7985,2.8076,2.8334,2.8425,2.8753,2.8972,2.9226,2.9523,2.9834,2.9988,3.0172,3.0447,3.0582,3.0612,3.0612,3.019,2.9871,2.9697,2.9377,2.9028,2.8869,2.9028,2.9593,2.9882,3.026,3.1011,3.1319,3.1496,3.1496,3.1496,3.1496,3.1496,3.1496,3.1496,3.1496,3.1496,3.1496,3.1496,3.1555,3.1705,3.1839,3.1988,3.2002,3.2077,3.2092,3.1988,3.1868,3.1748,3.1554,3.1524,3.1524,3.1524,3.1582,3.1582,3.1553,3.1524,3.1511,3.16,3.1525,3.1496,3.1496,3.1496,3.1496,3.1496,3.1496,3.1496,3.1496,3.1496,3.1274,3.0959,3.0599,3.0642,3.0477,2.9983,2.9522,2.9155,2.8619,2.7986,2.7321,2.6643,2.6268,2.6041,2.5375,2.4878,2.4247,2.3568,2.279,2.2114,3.2398,3.2398,3.2398,3.2398,3.2398,3.2398,3.2398,3.237,3.2274,3.1994,3.1695,3.148,3.1204,3.094,3.0911,3.0911,3.0911,3.0925,3.0925,3.0866,3.0688,3.027,2.995,2.9687,2.9334,2.9117,2.8926,2.8793,2.883,2.8748,2.878,2.9067,2.9149,2.9369,2.9682,2.996,3.0172,3.028,3.0417,3.0582,3.0612,3.0612,3.0292,3.0089,2.9987,2.9711,2.9479,2.9435,2.9784,3.0221,3.0439,3.076,3.1292,3.1409,3.1496,3.1496,3.1496,3.1496,3.1496,3.1496,3.1496,3.1496,3.1496,3.1496,3.1539,3.1598,3.1821,3.2,3.2179,3.2373,3.2464,3.2554,3.2375,3.2195,3.1911,3.1612,3.1597,3.1597,3.1626,3.1668,3.1683,3.1655,3.1597,3.1539,3.1496,3.1496,3.1496,3.1496,3.1496,3.1496,3.1496,3.1496,3.1496,3.1496,3.1496,3.1496,3.1256,3.1047,3.1062,3.0823,3.0372,3.0195,3.0078,2.9471,2.872,2.8166,2.7716,2.7493,2.7168,2.6535,2.6095,2.579,2.5026,2.3867,2.3266,3.2398,3.2398,3.2398,3.2398,3.2398,3.2398,3.2398,3.2398,3.2259,3.215,3.201,3.1868,3.1695,3.1566,3.1566,3.1551,3.1566,3.1566,3.1566,3.1537,3.1306,3.094,3.0614,3.0297,3.0023,2.973,2.9526,2.9373,2.923,2.9053,2.9004,2.9383,2.9369,2.9512,2.9837,3.016,3.0326,3.0387,3.0477,3.0612,3.0612,3.0612,3.0612,3.0569,3.0539,3.0496,3.054,3.0644,3.0777,3.0925,3.1073,3.1248,3.1365,3.1482,3.1524,3.1553,3.1582,3.1611,3.1611,3.1611,3.1626,3.1597,3.1539,3.1597,3.1683,3.1698,3.1877,3.2379,3.2632,3.3047,3.3257,3.3064,3.281,3.2681,3.2474,3.2284,3.2242,3.2194,3.2137,3.212,3.1953,3.1912,3.1801,3.1758,3.1899,3.172,3.1854,3.1899,3.1869,3.1869,3.1645,3.163,3.1511,3.1511,3.1496,3.1496,3.1496,3.1421,3.1391,3.1331,3.0957,3.0972,3.1092,3.033,2.9564,2.9289,2.8946,2.8513,2.811,2.7902,2.7558,2.7475,2.6599,2.5238,2.4312,3.2398,3.2398,3.2398,3.2398,3.2398,3.2398,3.2398,3.2398,3.237,3.233,3.2287,3.2231,3.2203,3.212,3.212,3.2104,3.212,3.2064,3.216,3.2076,3.1894,3.1552,3.1262,3.094,3.0673,3.0358,3.0115,2.9901,2.9605,2.9306,2.9162,2.9383,2.9495,2.9713,3.0021,3.0326,3.0507,3.0507,3.0552,3.0612,3.0612,3.0612,3.0612,3.0612,3.0612,3.0612,3.0642,3.0732,3.0895,3.1043,3.1205,3.1351,3.1453,3.1626,3.1698,3.1756,3.1855,3.1896,3.1953,3.1966,3.1966,3.1927,3.1913,3.1898,3.187,3.1813,3.2091,3.2667,3.3167,3.3609,3.3799,3.3501,3.3236,3.3117,3.2994,3.2928,3.2871,3.2805,3.268,3.2479,3.2265,3.2155,3.209,3.2087,3.2242,3.2482,3.2901,3.3051,3.2946,3.2841,3.2123,3.1959,3.16,3.154,3.1511,3.1496,3.1496,3.1496,3.1451,3.1466,3.1496,3.1286,3.1091,3.0902,3.0476,3.0171,2.9714,2.9026,2.8738,2.8798,2.8457,2.8154,2.7739,2.6593,2.5594,3.2398,3.2398,3.2398,3.2398,3.2398,3.2398,3.2398,3.2398,3.2398,3.2398,3.2398,3.2398,3.2398,3.2398,3.2398,3.2398,3.2398,3.2398,3.2342,3.2342,3.2216,3.1994,3.1752,3.1493,3.1291,3.0999,3.0807,3.0509,3.0129,2.9775,2.9682,2.9775,2.9882,2.9943,3.0219,3.0447,3.0612,3.0612,3.0612,3.0612,3.0612,3.0612,3.0612,3.0612,3.0612,3.0612,3.0702,3.0791,3.0984,3.1132,3.1278,3.1424,3.1539,3.1655,3.1883,3.2038,3.2191,3.2358,3.2437,3.2523,3.2539,3.2557,3.2555,3.2625,3.2605,3.2578,3.253,3.3056,3.3259,3.3664,3.3761,3.3549,3.3263,3.3079,3.2884,3.2737,3.2953,3.3095,3.298,3.2827,3.2671,3.256,3.2444,3.2388,3.2571,3.2976,3.3425,3.3574,3.3589,3.3694,3.3006,3.2378,3.2064,3.1675,3.1511,3.1496,3.1496,3.1496,3.1496,3.1496,3.1466,3.1227,3.1029,3.1095,3.1106,3.1018,3.0496,2.985,2.9619,2.9711,2.9217,2.8633,2.8192,2.7853,2.7198,3.2468,3.2453,3.2453,3.2425,3.2398,3.2425,3.2453,3.2496,3.2496,3.2535,3.2563,3.2535,3.248,3.2398,3.2398,3.2398,3.2398,3.2398,3.2398,3.2216,3.2241,3.2007,3.1883,3.1834,3.1779,3.1709,3.1552,3.1248,3.0911,3.0554,3.0358,3.0372,3.0296,3.0249,3.0372,3.0507,3.0612,3.0612,3.0612,3.0612,3.0612,3.0612,3.0612,3.0612,3.0612,3.0612,3.0702,3.0881,3.1058,3.119,3.1336,3.1453,3.1568,3.1712,3.2066,3.2274,3.252,3.2803,3.3129,3.335,3.3377,3.3424,3.3433,3.3538,3.3572,3.362,3.3592,3.3672,3.3868,3.377,3.388,3.3812,3.3509,3.3453,3.3248,3.3084,3.3403,3.3732,3.3619,3.3444,3.3111,3.2992,3.2922,3.2822,3.3051,3.344,3.3694,3.3739,3.3844,3.4023,3.3814,3.3185,3.2721,3.2258,3.1675,3.1496,3.1496,3.1496,3.1496,3.1496,3.1466,3.1316,3.1344,3.1592,3.1603,3.1468,3.1287,3.079,3.0676,3.04,2.9726,2.9052,2.8816,2.8577,2.8682,3.28,3.2816,3.2633,3.2496,3.2425,3.2508,3.2648,3.2816,3.2951,3.3027,3.3112,3.2989,3.2784,3.2425,3.2398,3.2398,3.2398,3.2398,3.2009,3.1674,3.2158,3.1974,3.1897,3.2207,3.2382,3.2315,3.2176,3.1992,3.1608,3.1305,3.1102,3.1028,3.0748,3.0673,3.0657,3.0732,3.0672,3.0672,3.0657,3.0657,3.0598,3.0598,3.0612,3.0612,3.0612,3.0672,3.0791,3.0984,3.1132,3.1278,3.138,3.1467,3.1597,3.1798,3.2163,3.2574,3.283,3.323,3.3597,3.4162,3.4316,3.4477,3.468,3.5203,3.5309,3.5523,3.5529,3.5592,3.5506,3.4805,3.4708,3.4601,3.4415,3.4782,3.48,3.477,3.4889,3.5093,3.5155,3.4462,3.3693,3.3611,3.3537,3.3558,3.3742,3.4191,3.473,3.479,3.4773,3.4713,3.4547,3.3948,3.3335,3.2512,3.1765,3.154,3.1496,3.1496,3.1496,3.1496,3.1496,3.1496,3.1597,3.1769,3.1813,3.1722,3.1526,3.1401,3.1005,3.0608,2.9981,2.9472,2.9307,2.9295,2.9445]}]]